[[{"header":{"parameterUnit":"m.s-1","parameterCategory":1,"la1":31.0,"la2":29.5877,"lo1":-88.7671,"lo2":-86.6584,"dy":0.0162,"dx":0.0185,"nx":115,"ny":88,"refTime":"2024-04-17T12:00:00:Z","depth":0,"parameterNumber":2,"parameterNumberName":"U-component_of_WINDS"},"data":[0.0,0.0,0.0,0.0,0.0,0.0,0.0,0.0,0.0,0.0,0.0,0.0,0.0,0.0,0.0,0.0,0.0,0.0,0.0,0.0,0.0,0.0,0.0,0.0,0.0,0.0,0.0,0.0,0.0,0.0,0.0,0.0,0.0,0.0,0.0,0.0,0.0,0.0,0.0,0.0,0.0,0.0,0.0,0.0,0.0,0.0,0.0,0.0,0.0,0.0,0.0,0.0,0.0,0.0,0.0,0.0,0.0,0.0,0.0,0.0,0.0,0.0,0.0,0.0,0.0,0.0,0.0,0.0,0.0,0.0,0.0,0.0,0.0,0.0,0.0,0.0,0.0,0.0,0.0,0.0,0.0,0.0,0.0,0.0,0.0,0.0,0.0,0.0,0.0,0.0,0.0,0.0,0.0,0.0,0.0,0.0,0.0,0.0,0.0,0.0,0.0,0.0,0.0,0.0,0.0,0.0,0.0,0.0,0.0,0.0,0.0,0.0,0.0,0.0,0.0,0.0,0.0,0.0,0.0,0.0,0.0,0.0,0.0,0.0,0.0,0.0,0.0,0.0,0.0,0.0,0.0,0.0,0.0,0.0,0.0,0.0,0.0,0.0,0.0,0.0,0.0,0.0,0.0,0.0,0.0,0.0,0.0,0.0,0.0,0.0,0.0,0.0,0.0,0.0,0.0,0.0,0.0,0.0,0.0,0.0,0.0,0.0,0.0,0.0,0.0,0.0,0.0,0.0,0.0,0.0,0.0,0.0,0.0,0.0,0.0,0.0,0.0,0.0,0.0,0.0,0.0,0.0,0.0,0.0,0.0,0.0,0.0,0.0,0.0,0.0,0.0,0.0,0.0,0.0,0.0,0.0,0.0,0.0,0.0,0.0,0.0,0.0,0.0,0.0,0.0,0.0,0.0,0.0,0.0,0.0,0.0,0.0,0.0,0.0,0.0,0.0,0.0,0.0,0.0,0.0,0.0,0.0,0.0,0.0,0.0,0.0,0.0,0.0,0.0,0.0,0.0,0.0,0.0,0.0,0.0,0.0,0.0,0.0,0.0,0.0,0.0,0.0,0.0,0.0,0.0,0.0,0.0,0.0,0.0,0.0,0.0,0.0,0.0,0.0,0.0,0.0,0.0,0.0,0.0,0.0,0.0,0.0,0.0,0.0,0.0,0.0,0.0,0.0,0.0,0.0,0.0,0.0,0.0,0.0,0.0,0.0,0.0,0.0,0.0,0.0,0.0,0.0,0.0,0.0,0.0,0.0,0.0,0.0,0.0,0.0,0.0,0.0,0.0,0.0,0.0,0.0,0.0,0.0,0.0,0.0,0.0,0.0,0.0,0.0,0.0,0.0,0.0,0.0,0.0,0.0,0.0,0.0,0.0,0.0,0.0,0.0,0.0,0.0,0.0,0.0,0.0,0.0,0.0,0.0,0.0,0.0,0.0,0.0,0.0,0.0,0.0,0.0,0.0,0.0,0.0,0.0,0.0,0.0,0.0,0.0,0.0,0.0,0.0,0.0,0.0,0.0,0.0,0.0,0.0,0.0,0.0,0.0,0.0,0.0,0.0,0.0,0.0,0.0,0.0,0.0,0.0,0.0,0.0,0.0,0.0,0.0,0.0,0.0,0.0,0.0,0.0,0.0,0.0,0.0,0.0,0.0,0.0,0.0,0.0,0.0,0.0,0.0,0.0,0.0,0.0,0.0,0.0,0.0,0.0,0.0,0.0,0.0,0.0,0.0,0.0,0.0,0.0,0.0,0.0,0.0,0.0,0.0,0.0,0.0,0.0,0.0,0.0,0.0,0.0,0.0,0.0,0.0,0.0,0.0,0.0,0.0,0.0,0.0,0.0,0.0,0.0,0.0,0.0,0.0,0.0,0.0,0.0,0.0,0.0,0.0,0.0,0.0,0.0,0.0,0.0,0.0,0.0,0.0,0.0,0.0,0.0,0.0,0.0,0.0,0.0,0.0,0.0,0.0,0.0,0.0,0.0,0.0,0.0,0.0,0.0,0.0,0.0,0.0,0.0,0.0,0.0,0.0,0.0,0.0,0.0,0.0,0.0,0.0,0.0,0.0,0.0,0.0,0.0,0.0,0.0,0.0,0.0,0.0,0.0,0.0,0.0,0.0,0.0,0.0,0.0,0.0,0.0,0.0,0.0,0.0,0.0,0.0,0.0,0.0,0.0,0.0,0.0,0.0,0.0,0.0,0.0,0.0,0.0,0.0,0.0,0.0,0.0,0.0,0.0,0.0,0.0,0.0,0.0,0.0,0.0,0.0,0.0,0.0,0.0,0.0,0.0,0.0,0.0,0.0,0.0,0.0,0.0,0.0,0.0,0.0,0.0,0.0,0.0,0.0,0.0,0.0,0.0,0.0,0.0,0.0,0.0,0.0,0.0,0.0,0.0,0.0,0.0,0.0,0.0,0.0,0.0,0.0,0.0,0.0,0.0,0.0,0.0,0.0,0.0,0.0,0.0,0.0,0.0,0.0,0.0,0.0,0.0,0.0,0.0,0.0,0.0,0.0,0.0,0.0,0.0,0.0,0.0,0.0,0.0,0.0,0.0,0.0,0.0,0.0,0.0,0.0,0.0,0.0,0.0,0.0,0.0,0.0,0.0,0.0,0.0,0.0,0.0,0.0,0.0,0.0,0.0,0.0,0.0,0.0,0.0,0.0,0.0,0.0,0.0,0.0,0.0,0.0,0.0,0.0,0.0,0.0,0.0,0.0,0.0,0.0,0.0,0.0,0.0,0.0,0.0,0.0,0.0,0.0,0.0,0.0,0.0,0.0,0.0,0.0,0.0,0.0,0.0,0.0,0.0,0.0,0.0,0.0,0.0,0.0,0.0,0.0,0.0,0.0,0.0,0.0,0.0,0.0,0.0,0.0,0.0,0.0,0.0,0.0,0.0,0.0,0.0,0.0,0.0,0.0,0.0,0.0,0.0,0.0,0.0,0.0,0.0,0.0,0.0,0.0,0.0,0.0,0.0,0.0,0.0,0.0,0.0,0.0,0.0,0.0,0.0,0.0,0.0,0.0,0.0,0.0,0.0,0.0,0.0,0.0,0.0,0.0,0.0,0.0,0.0,0.0,0.0,0.0,0.0,0.0,0.0,0.0,0.0,0.0,0.0,0.0,0.0,0.0,0.0,0.0,0.0,0.0,0.0,0.0,0.0,0.0,0.0,0.0,0.0,0.0,0.0,0.0,0.0,0.0,0.0,0.0,0.0,0.0,0.0,0.0,0.0,0.0,0.0,0.0,0.0,0.0,0.0,0.0,0.0,0.0,0.0,0.0,0.0,0.0,0.0,0.0,0.0,0.0,0.0,0.0,0.0,0.0,0.0,0.0,0.0,0.0,0.0,0.0,0.0,0.0,0.0,0.0,0.0,0.0,0.0,0.0,0.0,0.0,0.0,0.0,0.0,0.0,0.0,0.0,0.0,0.0,0.0,0.0,0.0,0.0,0.0,0.0,0.0,0.0,0.0,0.0,0.0,0.0,0.0,0.0,0.0,0.0,0.0,0.0,0.0,0.0,0.0,0.0,0.0,0.0,0.0,0.0,0.0,0.0,0.0,0.0,0.0,0.0,0.0,0.0,0.0,0.0,0.0,0.0,0.0,0.0,0.0,0.0,0.0,0.0,0.0,0.0,0.0,0.0,0.0,0.0,0.0,0.0,0.0,0.0,0.0,0.0,0.0,0.0,0.0,0.0,0.0,0.0,0.0,0.0,0.0,0.0,0.0,0.0,0.0,0.0,0.0,0.0,0.0,0.0,0.0,0.0,0.0,0.0,0.0,0.0,0.0,0.0,0.0,0.0,0.0,0.0,0.0,0.0,0.0,0.0,0.0,0.0,0.0,0.0,0.0,0.0,0.0,0.0,0.0,0.0,0.0,0.0,0.0,0.0,0.0,0.0,0.0,0.0,0.0,0.0,0.0,0.0,0.0,0.0,0.0,0.0,0.0,0.0,0.0,0.0,0.0,0.0,0.0,0.0,0.0,0.0,0.0,0.0,0.0,0.0,0.0,0.0,0.0,0.0,0.0,0.0,0.0,0.0,0.0,0.0,0.0,0.0,0.0,0.0,0.0,0.0,0.0,0.0,0.0,0.0,0.0,0.0,0.0,0.0,0.0,0.0,0.0,0.0,0.0,0.0,0.0,0.0,0.0,0.0,0.0,0.0,0.0,0.0,0.0,0.0,0.0,0.0,0.0,0.0,0.0,0.0,0.0,0.0,0.0,0.0,0.0,0.0,0.0,0.0,0.0,0.0,3.9011,0.0,0.0,0.0,0.0,0.0,0.0,0.0,0.0,0.0,0.0,0.0,0.0,0.0,0.0,0.0,0.0,0.0,0.0,0.0,0.0,0.0,0.0,0.0,0.0,0.0,0.0,0.0,0.0,0.0,0.0,0.0,0.0,0.0,0.0,0.0,0.0,0.0,0.0,0.0,0.0,0.0,0.0,0.0,0.0,0.0,0.0,0.0,0.0,0.0,0.0,0.0,0.0,0.0,0.0,0.0,0.0,0.0,0.0,0.0,0.0,0.0,0.0,0.0,0.0,0.0,0.0,0.0,0.0,0.0,0.0,0.0,0.0,0.0,0.0,0.0,0.0,0.0,0.0,0.0,0.0,0.0,0.0,0.0,0.0,0.0,0.0,0.0,0.0,0.0,0.0,0.0,0.0,0.0,0.0,0.0,0.0,0.0,0.0,0.0,0.0,0.0,0.0,0.0,0.0,0.0,0.0,0.0,0.0,0.0,0.0,3.875,3.8851,3.8851,3.8881,3.8935,0.0,0.0,0.0,0.0,0.0,0.0,0.0,0.0,0.0,0.0,0.0,0.0,0.0,0.0,0.0,0.0,0.0,0.0,0.0,0.0,0.0,0.0,0.0,0.0,0.0,0.0,0.0,0.0,0.0,0.0,0.0,0.0,0.0,0.0,0.0,0.0,0.0,0.0,0.0,0.0,0.0,0.0,0.0,0.0,0.0,0.0,0.0,0.0,0.0,0.0,0.0,0.0,0.0,0.0,0.0,0.0,0.0,0.0,0.0,0.0,0.0,0.0,0.0,0.0,0.0,0.0,0.0,0.0,0.0,0.0,0.0,0.0,0.0,0.0,0.0,0.0,0.0,0.0,0.0,0.0,0.0,0.0,0.0,0.0,0.0,0.0,0.0,0.0,0.0,0.0,0.0,0.0,0.0,0.0,0.0,0.0,0.0,0.0,0.0,0.0,0.0,0.0,0.0,0.0,0.0,0.0,0.0,0.0,0.0,0.0,0.0,0.0,3.8792,3.8833,3.8925,0.0,0.0,0.0,0.0,0.0,0.0,0.0,0.0,0.0,0.0,0.0,0.0,0.0,0.0,0.0,0.0,0.0,0.0,0.0,0.0,0.0,0.0,0.0,0.0,0.0,0.0,0.0,0.0,0.0,0.0,0.0,0.0,0.0,0.0,0.0,0.0,0.0,0.0,0.0,0.0,0.0,0.0,0.0,0.0,0.0,0.0,0.0,0.0,0.0,0.0,0.0,0.0,0.0,0.0,0.0,0.0,0.0,0.0,0.0,0.0,0.0,0.0,0.0,0.0,0.0,0.0,0.0,0.0,0.0,0.0,0.0,0.0,0.0,0.0,0.0,0.0,0.0,0.0,0.0,0.0,0.0,0.0,0.0,0.0,0.0,0.0,0.0,0.0,0.0,0.0,0.0,0.0,0.0,0.0,0.0,0.0,0.0,0.0,0.0,0.0,0.0,0.0,0.0,0.0,0.0,0.0,0.0,0.0,0.0,0.0,3.8707,3.8704,3.8762,0.0,3.8979,0.0,0.0,0.0,0.0,0.0,0.0,0.0,0.0,0.0,0.0,0.0,0.0,0.0,0.0,0.0,0.0,0.0,0.0,0.0,0.0,0.0,0.0,0.0,0.0,0.0,0.0,0.0,0.0,0.0,0.0,0.0,0.0,0.0,0.0,0.0,0.0,0.0,0.0,0.0,0.0,0.0,0.0,0.0,0.0,0.0,0.0,0.0,0.0,0.0,0.0,0.0,0.0,0.0,0.0,0.0,0.0,0.0,0.0,0.0,0.0,0.0,0.0,0.0,0.0,0.0,0.0,0.0,0.0,0.0,0.0,0.0,0.0,0.0,0.0,0.0,0.0,0.0,0.0,0.0,0.0,0.0,0.0,0.0,0.0,0.0,0.0,0.0,0.0,0.0,0.0,0.0,0.0,0.0,0.0,0.0,0.0,0.0,0.0,0.0,0.0,0.0,0.0,0.0,0.0,0.0,0.0,0.0,0.0,0.0,0.0,3.8449,3.8692,3.8762,3.8822,0.0,0.0,0.0,0.0,0.0,0.0,0.0,0.0,0.0,0.0,0.0,0.0,0.0,0.0,0.0,0.0,0.0,0.0,0.0,0.0,0.0,0.0,0.0,0.0,0.0,0.0,0.0,0.0,0.0,0.0,0.0,0.0,0.0,0.0,0.0,0.0,0.0,0.0,0.0,0.0,0.0,0.0,0.0,0.0,0.0,0.0,0.0,0.0,0.0,0.0,0.0,0.0,0.0,0.0,0.0,0.0,0.0,0.0,0.0,0.0,0.0,0.0,0.0,0.0,0.0,0.0,0.0,0.0,0.0,0.0,0.0,0.0,0.0,0.0,0.0,0.0,0.0,0.0,0.0,0.0,0.0,0.0,0.0,0.0,0.0,0.0,0.0,0.0,0.0,0.0,0.0,0.0,0.0,0.0,0.0,0.0,0.0,0.0,0.0,0.0,0.0,0.0,0.0,0.0,0.0,0.0,0.0,0.0,0.0,0.0,3.8219,3.8401,3.8673,3.875,3.8795,3.8788,0.0,0.0,0.0,0.0,0.0,0.0,0.0,0.0,0.0,0.0,0.0,0.0,0.0,0.0,0.0,0.0,0.0,0.0,0.0,0.0,0.0,0.0,0.0,0.0,0.0,0.0,0.0,0.0,0.0,0.0,0.0,0.0,0.0,0.0,0.0,0.0,0.0,0.0,0.0,0.0,0.0,0.0,0.0,0.0,0.0,0.0,0.0,0.0,0.0,0.0,0.0,0.0,0.0,0.0,0.0,0.0,0.0,0.0,0.0,0.0,0.0,0.0,0.0,0.0,0.0,0.0,0.0,0.0,0.0,0.0,0.0,0.0,0.0,0.0,0.0,0.0,0.0,0.0,0.0,0.0,0.0,0.0,0.0,0.0,0.0,0.0,0.0,0.0,0.0,0.0,0.0,0.0,0.0,0.0,0.0,0.0,0.0,0.0,0.0,0.0,0.0,0.0,0.0,0.0,0.0,0.0,0.0,0.0,3.8101,3.8467,3.8676,3.8658,3.8707,3.8735,0.0,0.0,0.0,0.0,0.0,0.0,0.0,0.0,0.0,0.0,0.0,0.0,0.0,0.0,0.0,0.0,0.0,0.0,0.0,0.0,0.0,0.0,0.0,0.0,0.0,0.0,0.0,0.0,0.0,0.0,0.0,0.0,0.0,0.0,0.0,0.0,0.0,0.0,0.0,0.0,0.0,0.0,0.0,0.0,0.0,0.0,0.0,0.0,0.0,0.0,0.0,0.0,0.0,0.0,0.0,0.0,0.0,0.0,0.0,0.0,0.0,0.0,0.0,0.0,0.0,0.0,0.0,0.0,0.0,0.0,0.0,0.0,0.0,0.0,0.0,0.0,0.0,0.0,0.0,0.0,0.0,0.0,0.0,0.0,0.0,0.0,0.0,0.0,0.0,0.0,0.0,0.0,0.0,0.0,0.0,0.0,0.0,0.0,0.0,0.0,0.0,0.0,0.0,0.0,0.0,0.0,0.0,0.0,0.0,3.734,3.7739,3.793,3.793,3.8186,3.8336,0.0,0.0,0.0,0.0,0.0,0.0,0.0,0.0,0.0,0.0,0.0,0.0,0.0,0.0,0.0,0.0,0.0,0.0,0.0,0.0,0.0,0.0,0.0,0.0,0.0,0.0,0.0,0.0,0.0,0.0,0.0,0.0,0.0,0.0,0.0,0.0,0.0,0.0,0.0,0.0,0.0,0.0,0.0,0.0,0.0,0.0,0.0,0.0,0.0,0.0,0.0,0.0,0.0,0.0,0.0,0.0,0.0,0.0,0.0,0.0,0.0,0.0,0.0,0.0,0.0,0.0,0.0,0.0,0.0,0.0,0.0,0.0,0.0,0.0,0.0,0.0,0.0,0.0,0.0,0.0,0.0,0.0,0.0,0.0,0.0,0.0,0.0,0.0,0.0,0.0,0.0,0.0,0.0,0.0,0.0,0.0,0.0,0.0,0.0,0.0,0.0,0.0,0.0,0.0,0.0,0.0,0.0,0.0,0.0,3.7038,0.0,3.7469,3.7451,3.7738,3.7896,0.0,0.0,0.0,0.0,0.0,0.0,0.0,0.0,0.0,0.0,0.0,0.0,0.0,0.0,0.0,0.0,0.0,0.0,0.0,0.0,0.0,0.0,0.0,0.0,0.0,0.0,0.0,0.0,0.0,0.0,0.0,0.0,0.0,0.0,0.0,0.0,0.0,0.0,0.0,0.0,0.0,0.0,0.0,0.0,0.0,0.0,0.0,0.0,0.0,0.0,0.0,0.0,0.0,0.0,0.0,0.0,0.0,0.0,0.0,0.0,0.0,0.0,0.0,0.0,0.0,0.0,0.0,0.0,0.0,0.0,0.0,0.0,0.0,0.0,0.0,0.0,0.0,0.0,0.0,0.0,0.0,0.0,0.0,0.0,0.0,0.0,0.0,0.0,0.0,0.0,0.0,0.0,0.0,0.0,0.0,0.0,0.0,0.0,0.0,0.0,0.0,0.0,0.0,0.0,0.0,0.0,0.0,0.0,3.7018,3.7268,3.7396,3.7377,3.7286,3.7414,3.7505,0.0,0.0,0.0,0.0,0.0,0.0,0.0,0.0,0.0,0.0,0.0,0.0,0.0,0.0,0.0,0.0,0.0,0.0,0.0,0.0,0.0,0.0,0.0,0.0,0.0,0.0,0.0,0.0,0.0,0.0,0.0,0.0,0.0,0.0,0.0,0.0,0.0,0.0,0.0,0.0,0.0,0.0,0.0,0.0,0.0,0.0,0.0,0.0,0.0,0.0,0.0,0.0,0.0,0.0,0.0,0.0,0.0,0.0,0.0,0.0,0.0,0.0,0.0,0.0,0.0,0.0,0.0,0.0,0.0,0.0,0.0,0.0,0.0,0.0,0.0,0.0,0.0,0.0,0.0,0.0,0.0,0.0,0.0,0.0,0.0,0.0,0.0,0.0,0.0,0.0,0.0,0.0,0.0,0.0,0.0,0.0,0.0,0.0,0.0,0.0,0.0,0.0,0.0,0.0,0.0,0.0,0.0,0.0,0.0,3.6618,3.6516,3.6516,3.662,3.6843,3.6981,0.0,0.0,0.0,0.0,0.0,0.0,0.0,0.0,0.0,0.0,0.0,0.0,0.0,0.0,0.0,0.0,0.0,0.0,0.0,0.0,0.0,0.0,0.0,0.0,0.0,0.0,0.0,0.0,0.0,0.0,0.0,0.0,0.0,0.0,0.0,0.0,0.0,0.0,0.0,0.0,0.0,0.0,0.0,0.0,0.0,0.0,0.0,0.0,0.0,0.0,0.0,0.0,0.0,0.0,0.0,0.0,0.0,0.0,0.0,0.0,0.0,0.0,0.0,0.0,0.0,0.0,0.0,0.0,0.0,0.0,0.0,0.0,0.0,0.0,0.0,0.0,0.0,0.0,0.0,0.0,0.0,0.0,0.0,0.0,0.0,0.0,0.0,0.0,0.0,0.0,0.0,0.0,0.0,0.0,0.0,0.0,0.0,0.0,0.0,0.0,0.0,0.0,0.0,0.0,0.0,0.0,0.0,0.0,0.0,3.6174,3.6062,3.6041,3.6088,3.6329,3.6498,3.6618,0.0,0.0,0.0,0.0,0.0,0.0,0.0,0.0,0.0,0.0,0.0,0.0,0.0,0.0,0.0,0.0,0.0,0.0,0.0,0.0,0.0,0.0,0.0,0.0,0.0,0.0,0.0,0.0,0.0,0.0,0.0,0.0,0.0,0.0,0.0,0.0,0.0,0.0,0.0,0.0,0.0,0.0,0.0,0.0,0.0,0.0,0.0,0.0,0.0,0.0,0.0,0.0,0.0,0.0,0.0,0.0,0.0,0.0,0.0,0.0,0.0,0.0,0.0,0.0,0.0,0.0,0.0,0.0,0.0,0.0,0.0,0.0,0.0,0.0,0.0,0.0,0.0,0.0,0.0,0.0,0.0,0.0,0.0,0.0,0.0,0.0,0.0,0.0,0.0,0.0,0.0,0.0,0.0,0.0,0.0,0.0,0.0,0.0,0.0,0.0,0.0,0.0,0.0,0.0,0.0,0.0,0.0,0.0,3.5958,3.5975,3.5927,3.5817,3.5932,3.6058,0.0,0.0,0.0,0.0,0.0,0.0,0.0,0.0,0.0,0.0,0.0,0.0,0.0,0.0,0.0,0.0,0.0,0.0,0.0,0.0,0.0,0.0,0.0,0.0,0.0,0.0,0.0,0.0,0.0,0.0,0.0,0.0,0.0,0.0,0.0,0.0,0.0,0.0,0.0,0.0,0.0,0.0,0.0,0.0,0.0,0.0,0.0,0.0,0.0,0.0,0.0,0.0,0.0,0.0,0.0,0.0,0.0,0.0,0.0,0.0,0.0,0.0,0.0,0.0,0.0,0.0,0.0,0.0,0.0,0.0,0.0,0.0,0.0,0.0,0.0,0.0,0.0,0.0,0.0,0.0,0.0,0.0,0.0,0.0,0.0,0.0,0.0,0.0,0.0,0.0,0.0,0.0,0.0,0.0,0.0,0.0,0.0,0.0,0.0,0.0,0.0,0.0,0.0,0.0,0.0,0.0,0.0,0.0,0.0,3.5861,3.5756,3.5778,3.5932,3.5883,3.5949,0.0,0.0,0.0,0.0,0.0,0.0,0.0,0.0,0.0,0.0,0.0,0.0,0.0,0.0,0.0,0.0,0.0,0.0,0.0,0.0,0.0,0.0,0.0,0.0,0.0,0.0,0.0,0.0,0.0,0.0,0.0,0.0,0.0,0.0,0.0,0.0,0.0,0.0,0.0,0.0,0.0,0.0,0.0,0.0,0.0,0.0,0.0,0.0,0.0,0.0,0.0,0.0,0.0,0.0,0.0,0.0,0.0,0.0,0.0,0.0,0.0,0.0,0.0,0.0,0.0,0.0,0.0,0.0,0.0,0.0,0.0,0.0,0.0,0.0,0.0,0.0,0.0,0.0,0.0,0.0,0.0,0.0,0.0,0.0,0.0,0.0,0.0,0.0,0.0,0.0,0.0,0.0,0.0,0.0,0.0,0.0,0.0,0.0,0.0,0.0,0.0,0.0,0.0,0.0,0.0,0.0,0.0,0.0,3.5711,3.5728,3.5644,3.5689,3.5805,3.5756,3.5817,0.0,0.0,0.0,0.0,0.0,0.0,0.0,0.0,0.0,0.0,0.0,0.0,0.0,0.0,0.0,0.0,0.0,0.0,0.0,0.0,0.0,0.0,0.0,0.0,0.0,0.0,0.0,0.0,0.0,0.0,0.0,0.0,0.0,0.0,0.0,0.0,0.0,0.0,0.0,0.0,0.0,0.0,0.0,0.0,0.0,0.0,0.0,0.0,0.0,0.0,0.0,0.0,0.0,0.0,0.0,0.0,0.0,0.0,0.0,0.0,0.0,0.0,0.0,0.0,0.0,0.0,0.0,0.0,0.0,0.0,0.0,0.0,0.0,0.0,0.0,0.0,0.0,0.0,0.0,0.0,0.0,0.0,0.0,0.0,0.0,0.0,0.0,0.0,0.0,0.0,0.0,0.0,0.0,0.0,0.0,0.0,0.0,0.0,0.0,0.0,0.0,0.0,0.0,0.0,0.0,0.0,0.0,0.0,3.5616,3.5616,3.5616,3.5616,3.5616,3.5616,3.5667,0.0,0.0,0.0,0.0,0.0,0.0,0.0,0.0,0.0,0.0,0.0,0.0,0.0,0.0,0.0,0.0,0.0,0.0,0.0,0.0,0.0,0.0,0.0,0.0,0.0,0.0,0.0,0.0,0.0,0.0,0.0,0.0,0.0,0.0,0.0,0.0,0.0,0.0,0.0,0.0,0.0,0.0,0.0,0.0,0.0,0.0,0.0,0.0,0.0,0.0,0.0,0.0,0.0,0.0,0.0,0.0,0.0,0.0,0.0,0.0,0.0,0.0,0.0,0.0,0.0,0.0,0.0,0.0,0.0,0.0,0.0,0.0,0.0,0.0,0.0,0.0,0.0,0.0,0.0,0.0,0.0,0.0,0.0,0.0,0.0,0.0,0.0,0.0,0.0,0.0,0.0,0.0,0.0,0.0,0.0,0.0,0.0,0.0,0.0,0.0,0.0,0.0,0.0,0.0,0.0,0.0,0.0,0.0,3.5616,3.5616,3.5616,3.5616,3.5616,3.5616,3.5667,0.0,0.0,0.0,0.0,0.0,0.0,0.0,0.0,0.0,0.0,0.0,0.0,0.0,0.0,0.0,0.0,0.0,0.0,0.0,0.0,0.0,0.0,0.0,0.0,0.0,0.0,0.0,0.0,0.0,0.0,0.0,0.0,0.0,0.0,0.0,0.0,0.0,0.0,0.0,0.0,0.0,0.0,0.0,0.0,0.0,0.0,0.0,0.0,3.2969,0.0,0.0,0.0,0.0,0.0,0.0,0.0,0.0,0.0,0.0,0.0,0.0,0.0,0.0,0.0,0.0,0.0,0.0,0.0,0.0,0.0,0.0,0.0,0.0,0.0,0.0,0.0,0.0,0.0,0.0,0.0,0.0,0.0,0.0,0.0,0.0,0.0,0.0,0.0,0.0,0.0,0.0,0.0,0.0,0.0,0.0,0.0,0.0,0.0,0.0,0.0,0.0,0.0,0.0,0.0,0.0,0.0,0.0,0.0,3.5616,3.5616,3.5616,3.5616,3.5616,3.5616,3.5644,0.0,0.0,0.0,0.0,0.0,0.0,0.0,0.0,0.0,0.0,0.0,0.0,0.0,0.0,0.0,0.0,0.0,0.0,0.0,0.0,0.0,0.0,0.0,0.0,0.0,0.0,0.0,0.0,0.0,0.0,0.0,0.0,0.0,0.0,0.0,0.0,0.0,0.0,0.0,0.0,0.0,0.0,0.0,0.0,0.0,0.0,0.0,0.0,0.0,0.0,0.0,0.0,0.0,0.0,0.0,0.0,0.0,0.0,0.0,0.0,0.0,0.0,0.0,0.0,0.0,0.0,0.0,0.0,0.0,0.0,0.0,0.0,0.0,0.0,0.0,0.0,0.0,0.0,0.0,0.0,0.0,0.0,0.0,0.0,0.0,0.0,0.0,0.0,0.0,0.0,0.0,0.0,0.0,0.0,0.0,0.0,0.0,0.0,0.0,0.0,0.0,0.0,0.0,0.0,0.0,0.0,0.0,3.5577,3.5577,3.5577,3.5554,3.5554,3.5554,3.5577,3.5628,3.5746,0.0,0.0,0.0,0.0,0.0,0.0,0.0,0.0,0.0,0.0,0.0,0.0,0.0,0.0,0.0,0.0,0.0,0.0,0.0,0.0,0.0,0.0,0.0,0.0,0.0,0.0,0.0,0.0,0.0,0.0,0.0,0.0,0.0,0.0,0.0,0.0,0.0,0.0,3.2442,3.2981,0.0,0.0,0.0,0.0,0.0,0.0,0.0,0.0,3.1677,0.0,0.0,0.0,0.0,0.0,0.0,0.0,0.0,0.0,0.0,0.0,0.0,0.0,0.0,0.0,0.0,0.0,0.0,0.0,0.0,0.0,0.0,0.0,0.0,0.0,0.0,0.0,0.0,0.0,0.0,0.0,0.0,0.0,0.0,0.0,0.0,0.0,0.0,0.0,0.0,0.0,0.0,0.0,0.0,0.0,0.0,0.0,0.0,0.0,0.0,0.0,0.0,0.0,0.0,0.0,0.0,3.5583,3.5543,3.5514,3.5498,3.5406,3.536,3.536,3.5452,3.5807,3.6363,0.0,0.0,0.0,0.0,0.0,0.0,0.0,0.0,0.0,0.0,0.0,0.0,0.0,0.0,0.0,0.0,0.0,0.0,0.0,0.0,0.0,0.0,0.0,0.0,0.0,0.0,0.0,0.0,0.0,0.0,0.0,0.0,0.0,0.0,0.0,0.0,0.0,0.0,0.0,3.3139,3.3877,0.0,0.0,0.0,0.0,0.0,0.0,0.0,0.0,3.1808,0.0,0.0,0.0,0.0,0.0,0.0,0.0,0.0,0.0,0.0,0.0,0.0,0.0,0.0,0.0,0.0,0.0,0.0,0.0,0.0,0.0,0.0,0.0,0.0,0.0,0.0,0.0,0.0,0.0,0.0,0.0,0.0,0.0,0.0,0.0,0.0,0.0,0.0,0.0,0.0,0.0,0.0,0.0,0.0,0.0,0.0,0.0,0.0,0.0,0.0,0.0,0.0,0.0,0.0,0.0,3.5058,3.4697,3.4504,3.4521,3.4456,3.4545,3.4826,3.4913,3.5452,0.0,0.0,0.0,0.0,0.0,0.0,0.0,0.0,0.0,0.0,0.0,0.0,0.0,0.0,0.0,0.0,0.0,0.0,0.0,0.0,0.0,0.0,0.0,0.0,0.0,0.0,0.0,0.0,0.0,0.0,0.0,0.0,0.0,0.0,0.0,0.0,0.0,0.0,0.0,0.0,3.3377,3.4086,3.4628,0.0,0.0,0.0,0.0,0.0,0.0,3.1696,3.1452,0.0,0.0,0.0,0.0,0.0,0.0,0.0,0.0,0.0,0.0,0.0,0.0,0.0,0.0,0.0,0.0,0.0,0.0,0.0,0.0,0.0,0.0,0.0,0.0,0.0,0.0,0.0,0.0,0.0,0.0,0.0,0.0,0.0,0.0,0.0,0.0,0.0,0.0,0.0,0.0,0.0,0.0,0.0,0.0,0.0,0.0,0.0,0.0,0.0,0.0,0.0,0.0,0.0,0.0,0.0,3.4592,3.3912,3.3608,3.3726,3.3716,3.3894,3.4309,3.4472,3.5199,0.0,0.0,0.0,0.0,0.0,0.0,0.0,0.0,0.0,0.0,0.0,0.0,0.0,0.0,0.0,0.0,0.0,0.0,0.0,0.0,0.0,0.0,0.0,0.0,0.0,0.0,0.0,0.0,0.0,0.0,0.0,0.0,0.0,0.0,0.0,0.0,0.0,0.0,0.0,0.0,0.0,3.4374,3.4563,3.5061,0.0,0.0,0.0,0.0,3.1972,3.1389,0.0,0.0,0.0,0.0,0.0,0.0,0.0,0.0,0.0,0.0,0.0,0.0,0.0,0.0,0.0,0.0,0.0,0.0,0.0,0.0,0.0,0.0,0.0,0.0,0.0,0.0,0.0,0.0,0.0,0.0,0.0,0.0,0.0,0.0,0.0,0.0,0.0,0.0,0.0,0.0,0.0,0.0,0.0,0.0,0.0,0.0,0.0,0.0,0.0,0.0,0.0,0.0,0.0,0.0,0.0,0.0,3.4592,3.3811,3.3649,3.4095,3.4068,3.4101,3.4151,3.4715,3.5553,0.0,0.0,0.0,0.0,0.0,0.0,0.0,0.0,0.0,0.0,0.0,0.0,0.0,0.0,0.0,0.0,0.0,0.0,0.0,0.0,0.0,0.0,0.0,0.0,0.0,0.0,0.0,0.0,0.0,0.0,0.0,0.0,0.0,0.0,0.0,0.0,0.0,0.0,0.0,0.0,0.0,3.4788,3.4931,3.5054,3.479,0.0,0.0,3.3248,3.1613,3.1315,0.0,0.0,0.0,0.0,0.0,0.0,0.0,0.0,0.0,0.0,0.0,0.0,0.0,0.0,0.0,0.0,0.0,0.0,0.0,0.0,0.0,0.0,0.0,0.0,0.0,0.0,0.0,0.0,0.0,0.0,0.0,0.0,0.0,0.0,0.0,0.0,0.0,0.0,0.0,0.0,0.0,0.0,0.0,0.0,0.0,0.0,0.0,0.0,0.0,0.0,0.0,0.0,0.0,0.0,0.0,3.4417,3.3903,3.2879,3.2449,3.2652,3.2641,3.2792,3.3124,3.3707,3.4852,0.0,0.0,0.0,0.0,0.0,0.0,0.0,0.0,0.0,0.0,0.0,0.0,0.0,0.0,0.0,0.0,0.0,0.0,0.0,0.0,0.0,0.0,0.0,0.0,0.0,0.0,0.0,0.0,0.0,0.0,0.0,0.0,0.0,0.0,0.0,0.0,0.0,0.0,0.0,0.0,0.0,0.0,3.4471,3.4837,0.0,0.0,0.0,3.3248,3.1596,0.0,0.0,0.0,0.0,0.0,0.0,0.0,0.0,0.0,0.0,0.0,0.0,0.0,0.0,0.0,0.0,0.0,0.0,0.0,0.0,0.0,0.0,0.0,0.0,0.0,0.0,0.0,0.0,0.0,0.0,0.0,0.0,0.0,0.0,0.0,0.0,0.0,0.0,0.0,0.0,0.0,0.0,0.0,0.0,0.0,0.0,0.0,0.0,0.0,0.0,0.0,0.0,0.0,0.0,0.0,0.0,0.0,3.3443,3.2145,3.164,3.1923,3.1923,3.2132,3.2602,3.3135,0.0,0.0,0.0,0.0,0.0,0.0,0.0,0.0,0.0,0.0,0.0,0.0,0.0,0.0,0.0,0.0,0.0,0.0,0.0,0.0,0.0,0.0,0.0,0.0,0.0,0.0,0.0,3.4202,0.0,0.0,0.0,0.0,0.0,0.0,0.0,0.0,0.0,0.0,0.0,0.0,0.0,0.0,3.3882,3.407,3.4396,3.4091,0.0,0.0,3.2788,3.1328,3.0861,3.0712,0.0,0.0,0.0,0.0,0.0,0.0,0.0,0.0,0.0,0.0,0.0,0.0,0.0,0.0,0.0,0.0,0.0,0.0,0.0,0.0,0.0,0.0,0.0,0.0,0.0,0.0,0.0,0.0,0.0,0.0,0.0,0.0,0.0,0.0,0.0,0.0,0.0,0.0,0.0,0.0,0.0,0.0,0.0,0.0,0.0,0.0,0.0,0.0,0.0,0.0,0.0,0.0,0.0,0.0,0.0,3.3563,3.2201,3.2023,3.3039,3.3093,3.3103,3.3156,3.3739,3.4604,0.0,0.0,0.0,0.0,0.0,0.0,0.0,0.0,0.0,0.0,0.0,0.0,0.0,0.0,0.0,0.0,0.0,0.0,0.0,0.0,0.0,0.0,0.0,0.0,0.0,0.0,0.0,0.0,0.0,0.0,0.0,0.0,0.0,0.0,0.0,0.0,0.0,0.0,0.0,0.0,0.0,3.4102,3.4084,3.3657,3.2933,0.0,0.0,3.1524,3.0474,3.0405,3.0593,3.0855,0.0,0.0,0.0,0.0,0.0,0.0,0.0,0.0,0.0,0.0,0.0,0.0,0.0,0.0,0.0,0.0,0.0,0.0,0.0,0.0,0.0,0.0,0.0,0.0,0.0,0.0,0.0,0.0,0.0,0.0,0.0,0.0,0.0,0.0,0.0,0.0,0.0,0.0,0.0,0.0,0.0,0.0,0.0,0.0,0.0,0.0,0.0,0.0,0.0,0.0,0.0,0.0,0.0,3.5074,3.4641,3.3398,3.2734,3.2758,3.2772,3.2573,3.216,3.2738,3.3527,0.0,0.0,0.0,0.0,0.0,0.0,0.0,0.0,0.0,0.0,0.0,0.0,0.0,0.0,0.0,0.0,0.0,0.0,0.0,0.0,0.0,0.0,0.0,0.0,0.0,0.0,0.0,0.0,3.3192,3.2768,3.2101,0.0,0.0,0.0,0.0,0.0,0.0,0.0,0.0,0.0,0.0,3.3533,3.4036,3.3575,0.0,0.0,3.1718,3.1432,3.0351,3.0359,3.0568,3.0733,3.0851,0.0,0.0,0.0,0.0,0.0,0.0,0.0,0.0,0.0,0.0,0.0,0.0,0.0,0.0,0.0,0.0,0.0,0.0,0.0,0.0,0.0,0.0,0.0,0.0,0.0,0.0,0.0,0.0,0.0,0.0,0.0,0.0,0.0,0.0,0.0,0.0,0.0,0.0,0.0,0.0,0.0,0.0,0.0,0.0,0.0,0.0,0.0,0.0,0.0,0.0,0.0,0.0,3.5718,3.5368,3.4133,3.3351,3.305,3.2854,3.2552,3.2128,3.2435,3.2979,0.0,0.0,0.0,0.0,0.0,0.0,0.0,0.0,0.0,0.0,0.0,0.0,0.0,0.0,0.0,0.0,0.0,0.0,0.0,0.0,0.0,0.0,0.0,0.0,0.0,0.0,0.0,0.0,3.3424,3.3103,3.2655,0.0,0.0,0.0,0.0,0.0,0.0,0.0,0.0,0.0,0.0,3.3164,3.3519,3.3088,3.2361,3.1414,3.1295,3.1052,3.0314,3.0359,3.0531,3.0671,0.0,0.0,0.0,0.0,0.0,0.0,0.0,0.0,0.0,0.0,0.0,0.0,0.0,0.0,0.0,0.0,0.0,0.0,0.0,0.0,0.0,0.0,0.0,0.0,0.0,0.0,0.0,3.7363,0.0,0.0,3.7232,0.0,0.0,0.0,0.0,0.0,0.0,0.0,0.0,0.0,0.0,0.0,0.0,0.0,0.0,0.0,0.0,0.0,0.0,0.0,0.0,0.0,0.0,3.6222,3.5479,3.4253,3.3759,3.4204,3.3679,3.3356,3.3295,3.3212,3.3343,3.3671,0.0,0.0,0.0,0.0,0.0,0.0,0.0,0.0,0.0,0.0,0.0,0.0,0.0,0.0,0.0,0.0,0.0,0.0,0.0,0.0,0.0,0.0,0.0,0.0,0.0,0.0,3.3309,3.3309,3.3277,0.0,0.0,0.0,0.0,0.0,0.0,0.0,0.0,0.0,0.0,3.3642,3.3066,3.2428,3.1946,3.1366,3.0647,3.0372,3.0222,3.0205,3.0359,3.0531,0.0,0.0,0.0,0.0,0.0,0.0,0.0,0.0,0.0,0.0,0.0,0.0,0.0,0.0,0.0,0.0,0.0,0.0,0.0,0.0,0.0,0.0,0.0,0.0,0.0,0.0,0.0,3.5975,3.6585,0.0,0.0,0.0,0.0,0.0,0.0,0.0,0.0,0.0,0.0,0.0,3.7442,3.7027,0.0,0.0,0.0,0.0,0.0,0.0,0.0,0.0,0.0,0.0,0.0,0.0,3.6151,3.6674,3.5507,3.4701,3.4438,3.4212,3.3683,3.2823,3.2754,3.2795,3.2955,0.0,0.0,0.0,0.0,0.0,0.0,0.0,0.0,0.0,0.0,0.0,0.0,0.0,0.0,0.0,0.0,0.0,0.0,0.0,0.0,0.0,0.0,0.0,0.0,0.0,3.3069,0.0,0.0,0.0,0.0,0.0,0.0,0.0,0.0,0.0,0.0,0.0,3.3581,3.3581,3.3028,3.256,3.2323,3.1369,3.0569,0.0,0.0,0.0,0.0,0.0,0.0,0.0,0.0,0.0,0.0,0.0,0.0,0.0,0.0,3.0526,3.0851,3.0773,3.0671,3.0654,0.0,0.0,0.0,0.0,0.0,0.0,0.0,0.0,0.0,0.0,0.0,0.0,0.0,0.0,3.5103,0.0,3.6006,0.0,0.0,0.0,0.0,0.0,0.0,0.0,0.0,3.6707,3.6538,3.6523,3.6086,3.6102,0.0,3.6615,3.6615,0.0,0.0,0.0,0.0,0.0,0.0,0.0,0.0,3.6196,3.6906,3.6005,3.5248,3.4782,3.4513,3.3991,3.3124,3.2601,3.2359,3.241,3.2379,3.2544,0.0,0.0,0.0,0.0,0.0,0.0,0.0,0.0,0.0,0.0,0.0,0.0,0.0,0.0,0.0,0.0,0.0,0.0,0.0,0.0,0.0,0.0,0.0,3.2633,0.0,0.0,0.0,0.0,0.0,0.0,0.0,0.0,0.0,3.3214,3.3256,3.3256,3.3309,3.2734,3.2212,3.1959,0.0,0.0,0.0,0.0,0.0,0.0,0.0,3.0274,3.0485,3.0589,3.0651,3.0733,3.063,3.0526,3.0526,0.0,0.0,3.0589,3.0485,3.0338,3.0321,3.0065,2.9848,2.9848,2.9694,2.9544,0.0,0.0,0.0,0.0,0.0,0.0,0.0,0.0,3.3796,3.4221,0.0,3.5544,0.0,0.0,0.0,0.0,0.0,3.6227,0.0,0.0,3.4986,3.492,3.4935,3.4935,3.492,3.4935,3.5133,3.5133,3.4986,3.5752,0.0,0.0,0.0,0.0,0.0,0.0,3.6274,3.6196,3.5733,3.5374,3.5151,3.4575,3.4188,3.4099,3.2741,3.202,3.2079,3.1946,3.1946,3.2086,3.314,0.0,0.0,0.0,0.0,0.0,0.0,0.0,0.0,0.0,0.0,0.0,0.0,0.0,0.0,0.0,0.0,0.0,0.0,0.0,0.0,3.189,0.0,0.0,0.0,0.0,0.0,0.0,0.0,0.0,0.0,0.0,3.3091,3.315,3.3123,3.3235,0.0,0.0,0.0,0.0,3.0215,2.9582,2.9655,2.9772,2.9793,3.0022,3.0167,3.021,0.0,0.0,3.0485,3.0316,3.0189,3.0189,2.9979,2.9875,3.0124,3.0098,2.9995,2.9973,2.976,2.9589,2.9566,2.9373,2.9121,3.1719,0.0,0.0,0.0,0.0,3.2982,3.289,3.2763,3.3353,3.3693,3.3934,3.4706,0.0,0.0,0.0,0.0,0.0,0.0,3.5864,3.5608,3.5608,3.5365,3.4902,3.4902,3.4902,3.4902,3.4968,3.4968,3.4902,3.5034,3.5264,3.5557,0.0,0.0,0.0,0.0,3.5527,3.5928,3.5379,3.5034,3.4968,3.4824,3.4277,3.3362,3.2488,3.1811,3.1395,3.1336,3.1537,3.1946,3.225,0.0,0.0,0.0,0.0,0.0,0.0,0.0,0.0,0.0,0.0,0.0,0.0,0.0,0.0,0.0,0.0,0.0,0.0,0.0,3.2425,3.1578,3.1159,0.0,0.0,0.0,0.0,0.0,0.0,0.0,0.0,0.0,3.3027,3.2683,3.2427,0.0,0.0,3.1255,3.0575,2.9927,2.9451,2.9229,2.9282,0.0,2.9766,2.976,2.982,3.0146,3.0087,3.0006,3.0006,2.9941,2.9919,2.9935,2.9738,2.9605,2.9671,2.9687,2.9665,2.9605,2.9425,2.9259,2.9243,2.9167,2.9114,3.057,3.1526,3.1502,3.1709,3.2033,3.2033,3.1924,3.1779,3.2599,3.3108,3.3437,3.4249,3.4916,3.5429,3.5479,0.0,0.0,0.0,3.5382,3.5317,3.5285,3.5103,3.4735,3.4702,3.4702,3.4702,3.4783,3.4783,3.4702,3.4731,3.4798,3.4997,0.0,0.0,3.5671,3.5151,3.5085,3.5397,3.5085,3.4868,3.4817,3.4817,3.4332,3.324,3.2535,3.1951,3.1396,3.1057,3.1073,3.1465,3.1707,3.2059,0.0,0.0,0.0,0.0,0.0,0.0,0.0,0.0,0.0,0.0,0.0,3.2552,3.3044,0.0,0.0,0.0,3.1877,3.1992,3.1794,3.1305,0.0,0.0,0.0,0.0,0.0,0.0,0.0,3.0294,3.0602,3.1116,3.1679,3.1309,3.1301,3.2169,3.165,3.0954,3.0299,0.0,2.9209,2.9501,2.9548,2.9721,3.0277,3.0341,3.0456,3.0819,3.0735,3.0652,3.0629,3.0577,3.0509,3.0486,3.0341,3.0083,2.9812,2.9765,2.9653,2.9398,2.9213,2.9114,2.9114,2.9114,2.9114,2.9779,2.9895,3.0947,3.1244,3.1119,3.1068,3.1007,3.0895,3.1673,3.2398,3.3073,3.3928,3.4448,3.4698,3.4817,0.0,3.465,3.4664,3.4597,3.438,3.438,3.438,3.438,3.4414,3.438,3.4414,3.4515,3.4515,3.4414,3.4515,3.4631,3.4664,3.4698,3.4765,3.4902,3.4868,3.4802,3.4664,3.4769,3.4783,3.4664,3.4698,3.4291,3.3518,3.2861,3.2271,3.1771,3.1007,3.0642,3.0791,3.1306,3.1792,3.2142,0.0,0.0,0.0,0.0,0.0,0.0,0.0,0.0,0.0,0.0,0.0,0.0,0.0,0.0,0.0,3.0539,0.0,3.048,3.0999,0.0,0.0,0.0,3.1131,3.0434,2.9875,2.9549,2.9515,0.0,0.0,2.9856,2.9735,3.0226,3.2044,3.1624,3.0905,3.0251,2.9659,2.9493,3.0204,3.0283,3.0504,3.1044,3.1357,3.151,3.1676,3.1853,3.1732,3.1725,3.1614,3.155,3.1462,3.1371,3.1002,3.0394,3.0283,3.0077,2.9469,2.9177,2.9114,2.9114,2.9114,2.9114,2.9779,2.9818,3.0075,3.019,3.0139,3.0139,3.0101,3.0139,3.0884,3.1291,3.1549,3.2911,3.3859,3.4481,3.4501,3.4515,3.4481,3.4481,3.4448,3.438,3.438,3.438,3.438,3.438,3.438,3.4346,3.3811,3.3845,3.4332,3.3845,3.3859,3.4448,3.4481,3.4549,3.4716,3.4582,3.4515,3.4481,3.4515,3.4501,3.4448,3.4481,3.4176,3.3518,3.2861,3.2208,3.1602,3.0946,3.0612,3.0642,3.0762,3.0911,3.1029,3.189,0.0,0.0,0.0,0.0,0.0,0.0,0.0,0.0,0.0,3.1987,3.2099,0.0,3.1563,0.0,3.0119,2.995,3.0464,3.0194,0.0,0.0,3.0359,3.0269,2.9198,2.9794,3.0064,2.9549,3.0244,3.0925,3.1218,3.1715,3.2037,3.2065,3.1315,3.0501,2.9837,3.0342,3.0756,3.0923,3.097,3.1082,3.146,3.1557,3.1589,3.1404,3.1395,3.1379,3.1379,3.1346,3.1297,3.1297,3.1248,3.1144,3.1002,3.097,3.0923,3.0646,2.9856,2.9114,2.9114,2.913,2.913,2.9779,2.9779,2.9779,2.9779,2.9779,2.9779,2.9779,2.9856,3.0582,3.0895,3.1007,3.2528,3.3638,3.438,3.438,3.438,3.438,3.438,3.438,3.438,3.438,3.438,3.438,3.438,3.438,3.438,3.3589,3.3604,3.4332,3.3589,3.3604,3.438,3.438,3.4448,3.4563,3.4448,3.438,3.438,3.438,3.438,3.438,3.438,3.424,3.3877,3.2991,3.2321,3.1944,3.1061,3.0687,3.091,3.0896,3.1014,3.1175,3.1608,3.1864,0.0,0.0,0.0,0.0,0.0,0.0,0.0,0.0,0.0,0.0,0.0,3.0763,3.0615,2.9936,2.9797,3.0434,3.0163,2.9813,2.9549,2.9827,2.9656,2.8716,2.923,2.9505,2.916,2.9752,3.0329,3.0689,3.1052,3.1304,3.1236,3.1149,3.0907,3.0467,3.0838,3.1334,3.1618,3.1697,3.1858,3.2269,3.2358,3.2307,3.2165,3.2139,3.2155,3.2139,3.2139,3.2155,3.2139,3.2155,3.2029,3.176,3.1681,3.1602,3.1167,3.0582,3.0069,2.9974,2.9934,2.995,2.9779,2.9779,2.9779,2.9779,2.9779,2.9779,2.9779,2.9818,3.0482,3.082,3.1007,3.2313,3.3402,3.423,3.4264,3.423,3.4264,3.438,3.4332,3.4264,3.4264,3.4298,3.438,3.4196,3.4147,3.4196,3.3332,3.3346,3.4094,3.3297,3.3367,3.4216,3.4216,3.4298,3.438,3.438,3.438,3.438,3.438,3.438,3.438,3.438,3.438,3.437,3.318,3.2481,3.2452,3.1264,3.0777,3.119,3.119,3.135,3.1652,3.1379,3.1379,0.0,3.1146,0.0,0.0,0.0,0.0,0.0,0.0,0.0,0.0,2.9611,2.9766,3.0329,2.9844,2.9704,3.0208,3.0238,3.0025,2.9456,2.9393,2.9156,2.867,2.8587,2.8587,2.8587,2.8651,2.8931,2.9459,2.9495,2.9799,3.0586,3.1347,3.1706,3.1533,3.153,3.1792,3.2355,3.2434,3.2608,3.3066,3.323,3.323,3.3261,3.3198,3.3293,3.3214,3.323,3.3261,3.3261,3.3198,3.304,3.2529,3.2434,3.2177,3.1631,3.1464,3.1313,3.1027,3.0898,3.0964,2.9779,2.9779,2.9779,2.9779,2.9779,2.9779,2.9779,2.9792,2.9921,3.0343,3.0932,3.1204,3.2096,3.3367,3.3451,3.3437,3.3437,3.4113,3.4045,3.3416,3.3451,3.3776,3.4312,3.3101,3.284,3.3297,3.1988,3.1733,3.2506,3.1733,3.206,3.3402,3.3416,3.3742,3.438,0.0,0.0,0.0,3.438,3.438,3.438,3.438,3.438,3.4351,3.3148,0.0,3.2469,3.1264,3.0642,3.0717,3.0717,0.0,0.0,0.0,0.0,0.0,0.0,0.0,0.0,0.0,0.0,0.0,3.0009,2.9948,2.9808,2.9625,2.9566,2.9659,2.958,2.9345,2.899,2.8944,2.8894,2.8785,2.8766,2.8702,2.8619,2.8587,2.8587,2.8587,2.9026,2.9362,2.9535,3.0259,3.0996,3.1438,3.2057,3.2531,3.2804,3.2809,3.2929,3.3087,3.3056,3.3119,3.3277,3.3293,3.3293,3.3293,3.3293,3.3293,3.3293,3.3293,3.3293,3.3293,3.3293,3.3277,3.3103,3.3024,3.2867,3.2772,3.2635,3.2295,3.1376,3.109,3.0989,2.9779,2.9779,2.9779,2.9779,0.0,2.9779,2.9779,2.9779,2.9779,3.0203,3.0895,3.0895,3.1563,3.2648,3.2648,3.2861,3.3192,3.3241,3.3241,3.3192,3.3192,3.3227,3.3255,3.284,3.2648,3.2613,3.1476,3.1291,3.2015,3.1291,3.1696,3.3192,3.3192,3.3589,3.4366,3.438,3.438,3.438,3.438,3.438,3.438,3.438,3.438,3.4337,3.318,0.0,0.0,0.0,0.0,0.0,0.0,0.0,0.0,3.0434,0.0,2.9993,2.9995,3.0011,3.0011,2.9858,2.9594,2.923,2.9198,2.9198,2.9198,2.9121,2.8998,2.8935,2.8998,2.8899,2.8495,2.8554,2.8587,2.8587,2.8587,2.8587,2.8587,2.8587,2.8587,2.8619,2.8881,2.917,2.9487,3.0056,3.0778,3.145,3.1806,3.2241,3.2834,3.3145,3.3293,3.3293,3.3293,3.3293,3.3293,3.3293,3.3293,3.3293,3.3293,3.3293,3.3293,3.3293,3.3293,3.3293,3.3293,3.3293,3.3293,3.324,3.3176,3.3096,3.3058,3.2833,3.2144,3.1914,3.1768,2.9779,2.9779,2.9779,2.9779,2.9779,2.9779,2.9753,2.9753,0.0,0.0,0.0,3.067,3.1119,3.1856,3.1856,3.2182,3.2741,3.2313,3.2362,3.2791,3.2777,3.2541,3.211,3.2434,3.2376,3.1856,3.1082,3.1057,3.1649,3.102,3.1415,3.267,3.2826,3.3262,3.4113,3.4182,3.423,3.4312,3.438,3.438,3.438,3.4346,3.4278,3.4298,3.297,3.232,3.2306,3.0831,3.0189,3.0539,3.0313,3.0162,3.0101,3.0086,2.9901,2.9446,2.9162,2.9035,2.9004,2.8748,2.8587,2.8587,2.8587,2.8587,2.8587,2.8554,2.8476,2.832,2.8444,2.8457,2.8268,2.843,2.8554,2.8554,2.8587,2.8587,2.8587,2.8587,2.8587,2.8587,2.8619,2.8798,2.9251,2.9515,2.9979,3.0748,3.1145,3.1578,3.2339,3.2958,3.3293,3.3293,3.3293,3.3293,3.3293,3.3293,3.3293,3.3293,3.3293,3.3293,3.3293,3.3293,3.3293,3.3293,3.3293,3.3293,3.3293,3.3256,3.3203,3.3085,3.3016,3.2962,3.2827,3.266,3.2489,2.9779,2.9779,2.9779,2.9779,2.9779,2.9779,2.9689,2.9457,2.9714,2.9856,2.9921,2.9703,3.0152,3.1068,3.0895,3.097,3.1254,3.1819,3.1769,3.1254,3.1217,3.1563,3.2015,3.0835,3.057,3.097,3.0317,3.0011,3.0113,2.9998,3.0381,3.1156,3.123,3.1988,3.3262,3.3367,3.352,3.3874,3.4196,3.438,3.438,3.4059,3.3874,3.3831,3.2392,3.1542,3.1547,3.0344,2.9696,2.9758,2.9727,2.9571,2.9275,2.9275,2.9131,2.878,2.8683,2.8651,2.8651,2.8619,2.8587,2.8587,2.8587,2.8587,2.8587,2.8444,2.832,2.8287,2.8216,2.8177,2.8131,2.8281,2.8352,2.8365,2.8509,2.8587,2.8587,2.8587,2.8587,2.8587,2.8587,2.8619,2.8766,2.9022,2.9432,2.9948,3.0584,3.116,3.1921,3.2753,3.324,3.3293,3.3293,3.3293,3.3293,3.3293,3.3293,3.3293,3.3293,3.3293,3.3293,3.3293,3.3293,3.3293,3.3293,3.3293,3.3293,3.3112,3.3005,3.2951,3.2757,3.2578,3.2523,3.2468,3.2425,2.9779,2.9779,2.9779,2.9779,2.9779,2.9663,2.9509,2.938,2.9417,2.9417,2.9429,2.9287,2.9496,2.9896,2.9832,3.0126,3.0745,3.0683,3.0745,3.0895,3.0895,3.0857,3.0835,3.052,3.0343,3.0279,2.996,2.9779,2.9779,2.9779,3.0177,3.0895,3.1526,3.2254,3.3003,3.3171,3.343,3.3805,3.4196,3.423,3.3805,3.3805,3.3736,3.3514,3.2157,3.141,3.1382,3.0071,2.932,2.932,2.9162,2.8972,2.8844,2.8812,2.8748,2.8619,2.8587,2.8587,2.8587,2.8587,2.8587,2.8587,2.8587,2.8554,2.8457,2.8365,2.8222,2.8072,2.8066,2.8112,2.8112,2.8216,2.8352,2.8444,2.8554,2.8587,2.8587,2.8587,2.8587,2.8587,2.8587,2.8587,2.8587,2.8748,2.8972,2.9432,3.0176,3.0984,3.148,3.212,3.2645,3.2877,3.3118,3.3266,3.3266,3.3293,3.3293,3.3293,3.3293,3.3293,3.3293,3.3293,3.3266,3.3293,3.3293,3.3293,3.3266,3.3203,3.3085,3.2897,3.28,3.2648,3.2468,3.216,3.2048,2.9753,2.9702,2.9702,2.9702,2.9624,2.9392,2.9263,2.9223,2.904,2.8973,2.8973,2.9013,2.9052,2.9091,2.9052,2.9496,3.0088,2.96,2.9755,3.0456,3.0557,3.0254,2.9805,3.0317,3.0241,2.9767,2.9702,2.9702,2.9702,2.9753,3.0139,3.0809,3.1576,3.2196,3.2712,3.2797,3.3044,3.3563,3.3942,3.3874,3.3339,3.3479,3.3409,3.3094,3.1886,3.1191,3.1102,2.9748,2.8972,2.8972,2.8716,2.8587,2.8587,2.8587,2.8587,2.8587,2.8587,2.8587,2.8587,2.8587,2.8587,2.8587,2.8541,2.8444,2.8268,2.8203,2.8105,2.7875,2.7901,2.798,2.8033,2.8151,2.8346,2.8509,2.8573,2.8587,2.8587,2.8587,2.8587,2.8587,2.8587,2.8587,2.8587,2.8587,2.878,2.9289,3.0038,3.0732,3.1102,3.1495,3.1908,3.2244,3.2699,3.2904,3.2985,3.2958,3.2931,3.2985,3.2958,3.2958,3.3011,3.3065,3.3038,3.3038,3.3011,3.2904,3.2947,3.2807,3.2645,3.2413,3.2247,3.2148,3.1892,3.1551,3.1393,2.965,2.947,2.9419,2.9314,2.917,2.8961,2.8882,2.8831,2.8618,2.855,2.859,2.8724,2.8922,2.9052,2.8922,2.9,2.9275,2.917,2.9197,2.9314,2.9457,2.9496,2.9457,2.9535,2.9484,2.9431,2.9431,2.9431,2.9431,2.965,3.0011,3.033,2.996,3.0582,3.1932,3.1663,3.1882,3.281,3.3199,3.3374,3.3269,3.2974,3.2775,3.2747,3.1281,3.0508,3.0501,2.9304,2.8651,2.8651,2.8619,2.8587,2.8587,2.8587,2.8587,2.8587,2.8587,2.8587,2.8587,2.8587,2.8587,2.8587,2.843,2.8281,2.8145,2.7954,2.7855,2.7789,2.7656,2.7703,2.7822,2.8,2.8197,2.8365,2.8509,2.8587,2.8587,2.8587,2.8587,2.8587,2.8587,2.8587,2.8587,2.8587,2.8844,2.9415,2.9851,3.0326,3.0702,3.1073,3.135,3.1481,3.1781,3.202,3.2104,3.2048,3.216,3.2132,3.2076,3.2272,3.2492,3.2382,3.2132,3.2492,3.2339,3.2132,3.1992,3.1737,3.1478,3.1507,3.1218,3.0807,3.0689,3.0629,3.0673,2.9404,2.938,2.9275,2.9157,2.9091,2.8882,2.8803,2.8791,2.8578,2.851,2.851,2.8578,2.8657,2.8736,2.8657,2.8736,2.8922,2.8922,2.9,2.9091,2.9157,2.9236,2.9236,2.9236,2.9236,2.9197,2.9236,2.9236,2.9248,2.9326,2.9404,2.9457,2.9523,3.0203,3.1294,3.1244,3.17,3.2668,3.2682,3.2646,3.2646,3.2682,3.261,3.2285,3.1099,3.0405,3.0296,2.9238,2.8587,2.8587,2.8587,2.8587,2.8587,2.8587,2.8587,2.8587,2.8587,2.8587,2.8587,2.8587,2.8587,2.8587,2.8411,2.8249,2.8112,2.7921,2.7743,2.7656,2.7656,2.7789,2.8039,2.8183,2.8314,2.8444,2.8554,2.8587,2.8587,2.8587,2.8587,2.8587,2.8587,2.8587,2.8587,2.8587,2.8876,2.9446,2.9727,3.0005,3.0522,3.0777,3.0881,3.091,3.1043,3.1364,3.1737,3.1908,3.1879,3.1879,3.1908,3.202,3.2076,3.2076,3.1921,3.1918,3.1692,3.1492,3.1347,3.1217,3.0999,3.0837,3.0718,3.0389,3.0025,2.9919,2.9811,2.8961,2.9197,2.9013,2.8934,2.8934,2.8776,2.8724,2.8685,2.855,2.851,2.851,2.851,2.851,2.851,2.851,2.8578,2.8685,2.8712,2.8803,2.8934,2.8961,2.9013,2.9013,2.9013,2.9,2.9013,2.9013,2.904,2.9104,2.9104,2.9079,2.9094,2.9328,2.9896,3.067,3.0884,3.1405,3.22,3.2191,3.2205,3.2241,3.2444,3.2431,3.211,3.1029,3.0405,3.0378,2.9252,2.8587,2.8587,2.8587,2.8587,2.8587,2.8587,2.8587,2.8587,2.8587,2.8587,2.8587,2.8587,2.8587,2.8509,2.8333,2.8183,2.802,2.7822,2.7689,2.7623,2.7756,2.7987,2.8216,2.8254,2.8398,2.8554,2.8587,2.8587,2.8587,2.8587,2.8587,2.8587,2.8587,2.8587,2.8619,2.8716,2.8972,2.9477,2.9696,2.9898,3.0462,3.0598,3.0642,3.0612,3.0642,3.0851,3.1422,3.148,3.1522,3.1537,3.148,3.1508,3.1667,3.1667,3.1566,3.1349,3.1189,3.0911,3.0555,3.0451,3.0346,3.0163,3.0025,2.9856,2.9359,2.9282,2.9107,2.8211,2.8764,2.8618,2.855,2.851,2.855,2.851,2.855,2.851,2.851,2.851,2.851,2.851,2.851,2.851,2.851,2.851,2.851,2.855,2.859,2.8724,2.8803,2.8803,2.8843,2.8803,2.8803,2.8803,2.8895,2.9064,2.9104,2.9302,2.9588,2.9094,2.9328,3.0165,3.0355,3.0658,3.1331,3.1936,3.2205,3.2205,3.2205,3.2241,3.211,3.1029,3.0391,3.0256,2.9238,2.8587,2.8587,2.8587,2.8587,2.8587,2.8587,2.8587,2.8587,2.8587,2.8587,2.8587,2.8587,2.8522,2.8346,2.8216,2.8046,2.7888,2.7656,2.7623,2.7756,2.7934,2.8112,2.8145,2.8268,2.8398,2.8554,2.8587,2.8587,2.8587,2.8587,2.8587,2.8587,2.8587,2.8587,2.8633,2.8876,2.9194,2.954,2.9865,3.0172,3.0492,3.0612,3.0612,3.0612,3.0612,3.0642,3.0687,3.0851,3.0792,3.0807,3.094,3.0851,3.0955,3.1043,3.0881,3.0703,3.0463,3.0174,2.9744,2.9432,2.923,2.9071,2.904,2.883,2.8881,2.8702,2.8619,2.7886,2.8566,2.851,2.851,2.851,2.851,2.851,2.851,2.851,2.851,2.851,2.851,2.851,2.851,2.851,2.851,2.851,2.851,2.851,2.851,2.8578,2.8618,2.8618,2.8618,2.8618,2.8618,2.8578,2.863,2.8697,2.8709,2.8776,2.8882,2.8736,2.9,2.9678,3.0101,3.0595,3.1182,3.185,3.2205,3.2205,3.2205,3.2205,3.2151,3.1042,3.0215,2.9835,2.9021,2.8587,2.8587,2.8587,2.8587,2.8587,2.8587,2.8587,2.8587,2.8587,2.8587,2.8587,2.8587,2.8587,2.8476,2.8243,2.8079,2.7967,2.7689,2.7523,2.7656,2.7934,2.8079,2.8145,2.8327,2.8522,2.8587,2.8587,2.8587,2.8587,2.8587,2.8587,2.8587,2.8587,2.8587,2.8651,2.8908,2.9226,2.954,2.9896,3.0219,3.0522,3.0612,3.0612,3.0612,3.0612,3.0612,3.0612,3.0642,3.0612,3.0552,3.0552,3.0538,3.0612,3.0522,3.0357,3.0129,2.9851,2.9602,2.9289,2.9035,2.8716,2.8683,2.8587,2.8587,2.8587,2.8587,2.8587,2.7725,2.8431,2.851,2.851,2.851,2.851,2.851,2.851,2.851,2.851,2.851,2.851,2.851,2.851,2.851,2.851,2.851,2.851,2.851,2.851,2.851,2.851,2.851,2.851,2.851,2.851,2.851,2.851,2.851,2.851,2.851,2.851,2.851,2.8697,2.9157,2.9716,3.0292,3.0921,3.1556,3.1936,3.2132,3.2205,3.2096,3.1816,3.111,3.0405,2.9828,2.9021,2.8587,2.8587,2.8587,2.8587,2.8587,2.8587,2.8587,2.8587,2.8587,2.8587,2.8587,2.8587,2.8554,2.8438,2.8243,2.8046,2.7901,2.7669,2.7556,2.7656,2.7901,2.8112,2.8197,2.8425,2.8587,2.8587,2.8587,2.8587,2.8587,2.8587,2.8587,2.8587,2.8587,2.8587,2.8619,2.8908,2.9226,2.9554,2.9896,3.0233,3.0522,3.0612,3.0612,3.0612,3.0612,3.0507,3.0431,3.0371,3.0385,3.0325,3.0249,3.0249,3.0189,3.005,2.9865,2.9571,2.932,2.9099,2.8876,2.8651,2.8587,2.8587,2.8587,2.8587,2.8587,2.8587,2.8587,2.7672,2.8471,2.851,2.851,2.851,2.851,2.851,2.851,2.851,2.851,2.851,2.851,2.851,2.851,2.851,2.851,2.851,2.851,2.851,2.851,2.851,2.851,2.851,2.851,2.851,2.851,2.851,2.851,2.851,2.851,2.851,2.851,2.851,2.855,2.855,2.9197,2.9716,3.0317,3.0934,3.1556,3.2096,3.2169,3.2001,3.1477,3.1273,3.0975,3.0405,2.9279,2.8655,2.86,2.8587,2.8587,2.8587,2.8587,2.8587,2.8587,2.8587,2.8587,2.8587,2.8587,2.8471,2.8243,2.8112,2.7947,2.7656,2.7523,2.7556,2.7723,2.7934,2.8145,2.8281,2.8444,2.8587,2.8587,2.8587,2.8587,2.8587,2.8587,2.8587,2.8587,2.8587,2.8587,2.8665,2.8954,2.9289,2.9571,2.9927,3.0264,3.0552,3.0612,3.0612,3.0582,3.0522,3.0387,3.0249,3.008,3.0095,3.0064,2.9988,2.9943,2.982,2.9696,2.954,2.9289,2.9099,2.8908,2.878,2.8587,2.8587,2.8587,2.8587,2.8587,2.8587,2.8587,2.8587,2.7121,2.8431,2.851,2.851,2.851,2.851,2.851,2.851,2.851,2.851,2.851,2.851,2.851,2.851,2.851,2.851,2.851,2.851,2.851,2.851,2.851,2.851,2.851,2.851,2.851,2.851,2.851,2.851,2.851,2.851,2.851,2.851,2.851,2.851,2.855,2.9079,2.9535,2.9767,3.0696,3.1307,3.1542,3.1973,3.2074,3.1897,3.1531,3.1178,3.0988,2.9849,2.9034,2.8641,2.8587,2.8587,2.8587,2.8587,2.8587,2.8587,2.8587,2.8587,2.8587,2.8587,2.8476,2.8281,2.8131,2.7967,2.7723,2.7556,2.7556,2.7623,2.7789,2.7954,2.8151,2.8314,2.8444,2.8587,2.8587,2.8587,2.8587,2.8587,2.8587,2.8587,2.8587,2.8587,2.8683,2.9035,2.9415,2.9602,3.0036,3.0462,3.0552,3.0582,3.0612,3.0612,3.0431,3.0249,3.008,2.9896,2.9741,2.9648,2.9585,2.9571,2.9477,2.9352,2.9194,2.9067,2.8908,2.878,2.8651,2.8587,2.8587,2.8587,2.8587,2.8587,2.8587,2.8587,2.8587,2.6876,2.8471,2.851,2.851,2.851,2.851,2.851,2.851,2.851,2.851,2.851,2.851,2.851,2.851,2.851,2.851,2.851,2.851,2.851,2.851,2.851,2.851,2.851,2.851,2.851,2.851,2.851,2.851,2.851,2.851,2.851,2.851,2.851,2.851,2.8498,2.8882,2.9223,2.9755,3.0507,3.1084,3.1542,3.1973,3.2205,3.2164,3.1816,3.1531,3.1273,3.0561,2.9733,2.8982,2.8611,2.8476,2.8522,2.8554,2.8554,2.8509,2.8541,2.8554,2.8522,2.8476,2.8411,2.8249,2.8085,2.7901,2.7723,2.7556,2.7523,2.7623,2.7723,2.7908,2.8118,2.8235,2.8398,2.8587,2.8587,2.8587,2.8587,2.8587,2.8587,2.8587,2.8587,2.8587,2.8716,2.9004,2.9383,2.9509,3.0005,3.0341,3.0341,3.0447,3.0477,3.0522,3.0431,3.0219,2.9958,2.9696,2.9415,2.9257,2.9131,2.9131,2.9099,2.9004,2.8876,2.8844,2.8716,2.8683,2.8587,2.8587,2.8587,2.8587,2.8587,2.8587,2.8587,2.8587,2.8587,2.6876,2.8431,2.851,2.851,2.851,2.851,2.851,2.851,2.851,2.851,2.851,2.851,2.851,2.851,2.851,2.851,2.851,2.851,2.851,2.851,2.851,2.851,2.851,2.851,2.851,2.851,2.851,2.851,2.851,2.851,2.851,2.851,2.851,2.851,2.851,2.851,2.9028,2.9832,3.0165,3.0784,3.1753,3.2059,3.2096,3.2096,3.2114,3.1884,3.1477,3.1156,3.0483,2.9342,2.861,2.83,2.8333,2.8476,2.8457,2.8333,2.8476,2.8444,2.8333,2.83,2.8249,2.8112,2.7921,2.7723,2.7556,2.7536,2.7556,2.7676,2.7756,2.7908,2.817,2.8268,2.8379,2.8554,2.8587,2.8587,2.8587,2.8587,2.8587,2.8587,2.8587,2.8587,2.8619,2.8908,2.9099,2.9257,2.9741,2.9988,2.9974,3.0158,3.0341,3.0341,3.031,3.0036,2.9696,2.9352,2.9099,2.8972,2.8844,2.8844,2.8844,2.8748,2.8683,2.8651,2.8651,2.8619,2.8587,2.8587,2.8587,2.8587,2.8587,2.8587,2.8587,2.8587,2.8587,2.6864,2.8431,2.851,2.851,2.851,2.851,2.851,2.851,2.851,2.851,2.851,2.851,2.851,2.851,2.851,2.851,2.851,2.851,2.851,2.851,2.851,2.851,2.851,2.851,2.8471,2.8471,2.8471,2.851,2.851,2.851,2.851,2.851,2.851,2.851,2.851,2.851,2.863,2.9,2.9445,2.9755,3.0254,3.1084,3.1468,3.1505,3.1936,3.2101,3.1897,3.1254,3.0355,2.9295,2.8518,2.8197,2.8268,2.8249,2.8262,2.8268,2.8249,2.8249,2.8268,2.8216,2.8131,2.8079,2.7901,2.7723,2.7536,2.7503,2.7523,2.7556,2.7556,2.7736,2.8066,2.8164,2.8295,2.8522,2.8587,2.8587,2.8587,2.8587,2.8587,2.8587,2.8587,2.8587,2.8651,2.8844,2.9081,2.9162,2.954,2.9988,2.9882,3.0005,3.0233,3.0189,3.0083,2.9744,2.9432,2.9067,2.8812,2.8716,2.8651,2.8683,2.8683,2.8651,2.8619,2.8587,2.8619,2.8587,2.8587,2.8587,2.8587,2.8587,2.8587,2.8587,2.8587,2.8587,2.8587,2.6864,2.851,2.851,2.851,2.851,2.851,2.851,2.851,2.851,2.851,2.851,2.851,2.851,2.851,2.851,2.851,2.851,2.851,2.8403,2.8238,2.8214,2.8231,2.8222,2.8243,2.8231,2.8271,2.8431,2.851,2.851,2.851,2.851,2.851,2.851,2.851,2.851,2.851,2.855,2.8697,2.9,2.9172,2.9342,3.0266,3.0733,3.1009,3.1593,3.2073,3.1955,3.1118,3.0086,2.9171,2.8592,2.8299,2.8099,2.8085,2.8099,2.8105,2.8066,2.8099,2.8085,2.802,2.7954,2.7934,2.7802,2.7656,2.7536,2.7503,2.7503,2.7503,2.7503,2.7703,2.8013,2.821,2.8373,2.8554,2.8587,2.8587,2.8587,2.8587,2.8587,2.8587,2.8587,2.8587,2.8587,2.878,2.8844,2.8972,2.9257,2.9509,2.9634,2.9896,3.005,2.9974,2.9898,2.9665,2.9383,2.9035,2.878,2.8651,2.8587,2.8587,2.8587,2.8587,2.8587,2.8587,2.8587,2.8587,2.8587,2.8587,2.8587,2.8587,2.8587,2.8587,2.8587,2.8587,2.8587,2.6794,2.8339,2.8379,2.8431,2.8391,2.8391,2.8259,2.8351,2.8391,2.8391,2.8403,2.8443,2.8403,2.8431,2.8271,2.8311,2.8311,2.8338,2.8284,2.8122,2.8013,2.7976,2.7988,2.797,2.7906,2.7893,2.8191,2.8271,2.8219,2.8259,2.8311,2.8219,2.8259,2.8339,2.8219,2.8259,2.8459,2.8447,2.8474,2.8569,2.877,2.9473,2.9961,3.0355,3.1334,3.1803,3.1623,3.099,3.0094,2.8916,2.8778,2.8396,2.798,2.806,2.7967,2.7855,2.7934,2.7921,2.7822,2.7822,2.7776,2.7776,2.7636,2.7503,2.7503,2.7503,2.7503,2.7503,2.7536,2.7756,2.8112,2.8406,2.8522,2.8587,2.8587,2.8587,2.8587,2.8587,2.8587,2.8587,2.8587,2.8587,2.8587,2.8587,2.8619,2.8748,2.9035,2.9271,2.9383,2.9571,2.9696,2.9727,2.9665,2.9634,2.9352,2.9067,2.8844,2.8651,2.8619,2.8587,2.8587,2.8587,2.8587,2.8587,2.8587,2.8587,2.8587,2.8587,2.8587,2.8587,2.8587,2.8587,2.8587,2.8587,2.8587,2.6318,2.7203,2.7777,2.8042,2.7962,2.7644,2.751,2.7551,2.7869,2.8042,2.8042,2.8042,2.8042,2.8014,2.7696,2.7482,2.7627,2.7899,2.8145,2.8445,2.8116,2.7978,2.7935,2.7916,2.7711,2.7539,2.7452,2.751,2.751,2.7592,2.7458,2.751,2.7592,2.747,2.7551,2.7592,2.751,2.7551,2.7539,2.758,2.7718,2.8295,2.8966,2.9601,3.0835,3.1434,3.1421,3.1228,3.0684,2.9853,2.9018,2.8562,2.8341,2.7952,2.7742,2.7756,2.7689,2.7689,2.7756,2.7656,2.7623,2.7756,2.759,2.7503,2.7503,2.7503,2.7503,2.7536,2.7656,2.7842,2.8183,2.8444,2.8587,2.8587,2.8587,2.8587,2.8587,2.8587,2.8587,2.8587,2.8587,2.8587,2.8587,2.8587,2.8619,2.8651,2.8826,2.9049,2.9208,2.932,2.9477,2.9602,2.9352,2.932,2.9257,2.8972,2.878,2.8651,2.8619,2.8587,2.8587,2.8587,2.8587,2.8587,2.8587,2.8587,2.8587,2.8587,2.8587,2.8587,2.8587,2.8587,2.8587,2.8587,2.8587,2.5788,2.6588,2.7278,2.7574,2.7534,2.7307,2.7174,2.7214,2.7441,2.7586,2.7586,2.7574,2.7574,2.7574,2.733,2.7341,2.7538,2.7816,2.8187,2.8429,2.8232,2.7999,2.79,2.7719,2.7453,2.7254,2.7236,2.7185,2.7174,2.7174,2.7255,2.7174,2.7174,2.7255,2.7174,2.7174,2.7103,2.6928,2.6846,2.6775,2.6734,2.7325,2.8136,2.8888,2.973,3.005,3.0024,3.0393,3.0277,2.9878,2.945,2.8943,2.8567,2.8166,2.7904,2.7662,2.759,2.7556,2.759,2.7556,2.7556,2.7656,2.7556,2.7523,2.7503,2.7503,2.7503,2.7503,2.759,2.7789,2.8183,2.8457,2.8554,2.8587,2.8587,2.8587,2.8587,2.8587,2.8587,2.8587,2.8587,2.8587,2.8587,2.8587,2.8587,2.8619,2.8651,2.889,2.9303,2.9415,2.954,2.954,2.9162,2.9004,2.9035,2.8908,2.8683,2.8619,2.8619,2.8587,2.8587,2.8587,2.8587,2.8587,2.8587,2.8587,2.8587,2.8587,2.8587,2.8587,2.8587,2.8587,2.8587,2.8587,2.8587,2.5253,2.6019,2.6764,2.7092,2.7103,2.6981,2.6928,2.6981,2.7062,2.7103,2.7103,2.7103,2.7161,2.72,2.7099,2.7383,2.7802,2.7981,2.8255,2.8588,2.8372,2.8236,2.8116,2.7788,2.7436,2.7305,2.7016,2.6933,2.6899,2.6992,2.6816,2.694,2.6981,2.6857,2.694,2.6981,2.6745,2.6456,2.6415,2.6332,2.6146,2.6693,2.7447,2.8227,2.8664,2.877,2.9005,2.9408,2.9691,2.955,2.9844,2.9417,2.8807,2.8503,2.8268,2.7732,2.7719,2.7667,2.7562,2.7503,2.7503,2.7503,2.7503,2.7503,2.7503,2.7503,2.7503,2.7536,2.759,2.7802,2.8112,2.8406,2.8554,2.8587,2.8587,2.8587,2.8587,2.8587,2.8587,2.8587,2.8587,2.8587,2.8587,2.8587,2.8587,2.8587,2.8651,2.878,2.9194,2.9477,2.9571,2.9634,2.932,2.9067,2.9067,2.8844,2.8619,2.8587,2.8587,2.8587,2.8587,2.8587,2.8587,2.8587,2.8587,2.8587,2.8587,2.8587,2.8587,2.8587,2.8587,2.8587,2.8587,2.8587,2.8587,2.4797,2.4882,2.6102,2.661,2.6558,2.626,2.6177,2.6188,2.6487,2.661,2.661,2.6622,2.6891,2.7097,2.6838,2.7183,2.7822,2.8086,2.8327,2.8712,2.8628,2.8617,2.8462,2.8058,2.7655,2.7151,2.6653,2.6296,2.6188,2.6104,2.626,2.6177,2.6177,2.6177,2.6229,2.6146,2.6218,2.6104,2.6104,2.5979,2.6021,2.6146,2.658,2.7435,2.7879,2.8136,2.8493,2.9096,2.9381,2.8782,2.9372,2.9303,2.8896,2.8888,2.8707,2.8269,2.7958,2.7674,2.739,2.7369,2.7469,2.7503,2.7423,2.7423,2.7456,2.7503,2.7503,2.757,2.7769,2.8066,2.8249,2.8457,2.8554,2.8587,2.8587,2.8587,2.8587,2.8587,2.8587,2.8587,2.8587,2.8587,2.8587,2.8619,2.8651,2.8683,2.8761,2.8908,2.9226,2.9415,2.9509,2.9571,2.9571,2.932,2.9162,2.8844,2.8587,2.8587,2.8587,2.8587,2.8587,2.8587,2.8587,2.8587,2.8587,2.8587,2.8587,2.8587,2.8587,2.8587,2.8587,2.8587,2.8587,2.8587,2.8587,2.3897,2.4231,2.5253,2.5874,2.6135,2.5979,2.5895,2.5937,2.6104,2.6166,2.6243,2.6431,2.6674,2.6907,2.7031,2.7347,2.7882,2.8331,2.8538,2.8792,2.8803,2.8803,2.8749,2.8276,2.7785,2.725,2.6616,2.6114,2.5917,2.5948,2.5895,2.5937,2.5895,2.5895,2.5895,2.5948,2.5895,2.5895,2.5895,2.5895,2.5895,2.5895,2.6177,2.6539,2.6846,2.708,2.7284,2.7919,2.8199,2.8039,2.8585,2.8792,2.8741,2.8635,2.8635,2.8181,2.7645,2.712,2.6746,2.6546,2.6324,2.638,2.6701,2.6905,2.704,2.7209,2.7423,2.7536,2.7736,2.8033,2.8164,2.8314,2.8476,2.8587,2.8587,2.8587,2.8587,2.8587,2.8587,2.8587,2.8587,2.8587,2.8587,2.8619,2.8683,2.8794,2.8858,2.9049,2.9257,2.932,2.9383,2.9509,2.9509,2.9257,2.9067,2.8812,2.8587,2.8587,2.8587,2.8587,2.8587,2.8587,2.8587,2.8587,2.8587,2.8587,2.8587,2.8587,2.8587,2.8587,2.8587,2.8587,2.8587,2.8587,2.8587,2.3169,2.3877,2.4594,2.5295,2.5853,2.5895,2.5895,2.5895,2.5895,2.5972,2.6103,2.6441,2.6725,2.7009,2.7403,2.785,2.8211,2.865,2.8771,2.8792,2.8803,2.8803,2.8694,2.8364,2.7916,2.7315,2.6988,2.6463,2.5983,2.5895,2.5895,2.5895,2.5895,2.5895,2.5895,2.5895,2.5895,2.5895,2.5895,2.5895,2.5895,2.5895,2.5895,2.5895,2.5895,2.5979,2.6177,2.694,2.7185,2.7255,2.7649,2.8148,2.8148,2.7988,2.7873,2.7689,2.6831,2.6468,2.636,2.6009,2.6007,2.6179,2.6186,2.6298,2.6517,2.6905,2.7209,2.7276,2.7196,2.733,2.7464,2.7894,2.8124,2.8379,2.849,2.8587,2.8587,2.8587,2.8587,2.8587,2.8587,2.8587,2.8587,2.8587,2.8651,2.8748,2.8858,2.9017,2.9194,2.9194,2.9257,2.9415,2.9383,2.9099,2.8908,2.878,2.8619,2.8587,2.8587,2.8587,2.8587,2.8587,2.8587,2.8587,2.8587,2.8587,2.8587,2.8587,2.8587,2.8587,2.8587,2.8587,2.8587,2.8587,2.8587,2.3169,2.3844,2.4594,2.5295,2.5853,2.5895,2.5906,2.5853,2.5853,2.6157,2.6399,2.6649,2.7064,2.7774,2.8287,2.8617,2.8705,2.8598,2.8664,2.8664,2.8606,2.8617,2.8757,2.8781,2.8012,2.7402,2.7228,2.6704,2.6103,2.5895,2.5895,2.5895,2.5895,2.5895,2.5895,2.5895,2.5895,2.5895,2.5895,2.5895,2.5895,2.5895,2.5895,2.5895,2.5895,2.5895,2.5979,2.658,2.6787,2.6302,2.6899,2.7296,2.7214,2.658,2.6712,2.7088,2.7336,2.7488,2.7261,2.6574,2.6199,2.6251,2.631,2.6233,2.6315,2.6371,2.6517,2.6483,2.6183,2.6124,2.6561,2.7023,2.7438,2.7927,2.8346,2.8522,2.8587,2.8587,2.8587,2.8587,2.8587,2.8587,2.8587,2.8587,2.8619,2.8716,2.8844,2.9004,2.9099,2.9067,2.9067,2.9194,2.9194,2.894,2.8812,2.8683,2.8619,2.8587,2.8587,2.8587,2.8587,2.8587,2.8587,2.8587,2.8587,2.8587,2.8587,2.8587,2.8587,2.8587,2.8587,2.8587,2.8587,2.8587,2.8587,2.2818,2.3844,2.4155,2.4893,2.5853,2.5895,2.5675,2.5464,2.5738,2.5956,2.6184,2.6791,2.7545,2.8296,2.8738,2.8792,2.871,2.8315,2.8117,2.8034,2.7835,2.7788,2.8034,2.8121,2.7718,2.7522,2.7217,2.6758,2.619,2.5906,2.5895,2.5895,2.5895,2.5895,2.5895,2.5895,2.5895,2.5895,2.5895,2.5895,2.5895,2.5895,2.5895,2.5895,2.5895,2.5895,2.6021,2.6135,2.6302,2.5937,2.6343,2.6426,2.6426,2.6146,2.6135,2.6351,2.6542,2.652,2.6297,2.5814,2.5793,2.582,2.5794,2.5917,2.6033,2.594,2.5769,2.5756,2.5569,2.5522,2.5824,2.6535,2.701,2.7537,2.817,2.8457,2.8587,2.8587,2.8587,2.8587,2.8587,2.8587,2.8587,2.8587,2.8651,2.878,2.8812,2.8844,2.8908,2.8876,2.8876,2.8908,2.8876,2.8748,2.8716,2.8619,2.8619,2.8587,2.8587,2.8587,2.8587,2.8587,2.8587,2.8587,2.8587,2.8587,2.8587,2.8587,2.8587,2.8587,2.8587,2.8587,2.8587,2.8546,2.8465,2.2555,2.38,2.38,2.4627,2.5853,2.5895,2.5517,2.5041,2.553,2.569,2.5828,2.6589,2.7508,2.8036,2.8128,2.8034,2.8128,2.76,2.7542,2.7315,2.7078,2.721,2.7741,2.7866,2.7619,2.7435,2.7359,2.6878,2.6321,2.5972,2.5895,2.5895,2.5895,2.5895,2.5895,2.5895,2.5895,2.5895,2.5895,2.5895,2.5895,2.5895,2.5895,2.5895,2.5895,2.5895,2.5895,2.5937,2.5895,2.5937,2.5937,2.6021,2.5979,2.5979,2.5937,2.6063,2.6069,2.5948,2.5687,2.5341,2.4934,2.5076,2.5211,2.5707,2.5793,2.5491,2.523,2.5242,2.4694,2.4874,2.5357,2.6055,2.6718,2.7338,2.8026,2.8346,2.8587,2.8554,2.8554,2.8587,2.8587,2.8587,2.8587,2.8587,2.8683,2.8844,2.8844,2.8748,2.8748,2.8748,2.8748,2.8748,2.8716,2.8683,2.8651,2.8619,2.8587,2.8587,2.8587,2.8587,2.8587,2.8587,2.8587,2.8587,2.8587,2.8587,2.8587,2.8587,2.8587,2.8587,2.8587,2.8587,2.8573,2.8505,2.8288,2.2501,2.38,2.38,2.4584,2.5895,2.5895,2.5506,2.4945,2.5345,2.5412,2.5386,2.6127,2.6686,2.6781,2.6935,2.6887,2.6744,2.66,2.6877,2.702,2.6972,2.7078,2.7505,2.7573,2.7524,2.769,2.7344,2.69,2.654,2.6026,2.595,2.5895,2.5895,2.5895,2.5895,2.5895,2.5895,2.5895,2.5895,2.5895,2.5895,2.5895,2.5895,2.5895,2.5895,2.5895,2.5895,2.5895,2.5895,2.5895,2.5895,2.5895,2.5895,2.5895,2.5895,2.5895,2.5895,2.583,2.5688,2.5705,2.5913,2.5984,2.5846,2.5568,2.5562,2.5179,2.4975,2.4774,2.4144,2.3968,2.4551,2.5287,2.6055,2.6765,2.7404,2.8005,2.8241,2.8457,2.849,2.8554,2.8587,2.8587,2.8587,2.8587,2.8587,2.8748,2.8748,2.8651,2.8651,2.8651,2.8619,2.8619,2.8619,2.8619,2.8619,2.8587,2.8587,2.8587,2.8587,2.8587,2.8587,2.8587,2.8587,2.8587,2.8587,2.8587,2.8587,2.8587,2.8587,2.8587,2.8573,2.8532,2.8343,2.8166,2.7908,2.2255,2.3178,2.3178,2.4262,2.5864,2.5464,2.5168,2.503,2.5343,2.5516,2.5488,2.6154,2.6504,2.6456,2.6504,2.6504,2.6408,2.5916,2.6061,2.5819,2.5684,2.5829,2.6264,2.6672,2.651,2.7066,2.6873,2.6669,2.6551,2.6051,2.5961,2.5895,2.5895,2.5895,2.5895,2.5895,2.5895,2.5895,2.5895,2.5895,2.5895,2.5895,2.5895,2.5895,2.5895,2.5895,2.5895,2.5895,2.5895,2.5895,2.5895,2.5895,2.5895,2.5895,2.5895,2.5895,2.5895,2.5895,2.5895,2.5895,2.5994,2.5931,2.5672,2.536,2.5418,2.4954,2.4492,2.4133,2.3786,2.3694,2.3604,2.4384,2.5158,2.5928,2.6705,2.7452,2.7926,2.8176,2.8425,2.8522,2.8587,2.8587,2.8587,2.8587,2.8587,2.8619,2.8587,2.8587,2.8587,2.8587,2.8587,2.8587,2.8587,2.8587,2.8587,2.8587,2.8587,2.8587,2.8587,2.8587,2.8587,2.8587,2.8587,2.8587,2.8587,2.8587,2.8587,2.8587,2.8587,2.8587,2.8519,2.8424,2.818,2.7854,2.7406,2.1731,2.2299,2.2122,2.3299,2.5105,2.4765,2.4466,2.4364,2.4798,2.5113,2.5292,2.5663,2.5839,2.5839,2.5781,2.5742,2.5548,2.5255,2.5197,2.506,2.4824,2.4873,2.5304,2.5644,2.597,2.6475,2.6179,2.597,2.6004,2.5733,2.5571,2.5601,2.5812,2.5895,2.5895,2.5895,2.5895,2.5895,2.5895,2.5895,2.5895,2.5895,2.5895,2.5895,2.5895,2.5895,2.5895,2.5895,2.5895,2.5895,2.5895,2.5895,2.5895,2.5895,2.5895,2.5895,2.5895,2.5895,2.5895,2.5895,2.5895,2.59,2.5694,2.5497,2.5325,2.4967,2.4671,2.4357,2.3973,2.3629,2.3422,2.4353,2.5016,2.5836,2.6402,2.709,2.763,2.7966,2.8268,2.849,2.8554,2.8587,2.8587,2.8587,2.8587,2.8587,2.8587,2.8587,2.8587,2.8587,2.8587,2.8587,2.8587,2.8587,2.8587,2.8587,2.8587,2.8587,2.8587,2.8587,2.8587,2.8587,2.8587,2.8587,2.8587,2.8587,2.8587,2.8587,2.8587,2.8587,2.841,2.8153,2.78,2.7406,2.6769,2.0781,2.1204,2.069,2.1739,2.3661,2.38,2.3464,2.3154,2.3712,2.4155,2.4251,2.439,2.444,2.444,2.4637,2.4637,2.4587,2.444,2.4578,2.4864,2.4538,2.5109,2.5489,2.5615,2.5489,2.6034,2.5728,2.5244,2.5254,2.5103,2.5007,2.5211,2.5591,2.5895,2.5895,2.5895,2.5895,2.5895,2.5895,2.5895,2.5895,2.5895,2.5895,2.5895,2.5895,2.5895,2.5895,2.5895,2.5895,2.5895,2.5895,2.5895,2.5895,2.5895,2.5895,2.5895,2.5895,2.5895,2.5895,2.5895,2.5895,2.5895,2.5753,2.5764,2.5732,2.5459,2.5076,2.4821,2.4366,2.4232,2.4416,2.4707,2.5075,2.5569,2.6092,2.6744,2.7291,2.7822,2.8105,2.8457,2.8554,2.8587,2.8587,2.8587,2.8587,2.8587,2.8587,2.8587,2.8587,2.8587,2.8587,2.8587,2.8587,2.8587,2.8587,2.8587,2.8587,2.8587,2.8587,2.8587,2.8587,2.8587,2.8587,2.8587,2.8587,2.8587,2.8587,2.8587,2.8441,2.8241,2.8012,2.7759,2.7393,2.6945,2.6321,2.0428,2.0591,2.0374,2.0727,2.1516,2.1996,2.2252,2.2527,2.2815,2.3162,2.3511,2.3587,2.3895,2.4053,2.4152,2.4152,2.4211,2.4211,2.4489,2.4489,2.4301,2.444,2.4824,2.4971,2.502,2.5344,2.5078,2.4851,2.5123,2.4781,2.4755,2.4998,2.5497,2.5853,2.5895,2.5895,2.5895,2.5895,2.5895,2.5895,2.5895,2.5895,2.5895,2.5895,2.5895,2.5895,2.5895,2.5895,2.5895,2.5895,2.5895,2.5895,2.5895,2.5895,2.5895,2.5895,2.5895,2.5895,2.5895,2.5895,2.5895,2.5895,2.5895,2.5895,2.5852,2.5786,2.5524,2.5281,2.4858,2.458,2.4204,2.4091,2.438,2.5016,2.5639,2.6471,2.7103,2.7597,2.7987,2.8392,2.8587,2.8554,2.8522,2.8554,2.8554,2.8554,2.8522,2.8587,2.8587,2.8587,2.8587,2.8587,2.8587,2.8587,2.8587,2.8587,2.8587,2.8587,2.8587,2.8587,2.8587,2.8587,2.8587,2.8587,2.8587,2.8587,2.8587,2.8468,2.8064,2.7816,2.7539,2.7255,2.6894,2.6437,2.5928,1.9783,1.9791,1.9791,1.9783,1.9928,2.0637,2.1302,2.1844,2.1997,2.2377,2.2798,2.295,2.3329,2.3746,2.3895,2.4102,2.4152,2.4211,2.4211,2.4211,2.4211,2.4301,2.4251,2.4202,2.4538,2.4701,2.4524,2.4316,2.4452,2.4336,2.4593,2.512,2.5423,2.5654,2.577,2.5895,2.5895,2.5895,2.5895,2.5895,2.5895,2.5895,2.5895,2.5895,2.5895,2.5895,2.5895,2.5895,2.5895,2.5895,2.5895,2.5895,2.5895,2.5895,2.5895,2.5895,2.5895,2.5895,2.5895,2.5895,2.5895,2.5895,2.5895,2.5895,2.5895,2.5863,2.5732,2.5513,2.5347,2.492,2.4384,2.4137,2.4205,2.4891,2.5289,2.6099,2.6722,2.7175,2.7477,2.7908,2.8346,2.836,2.8392,2.849,2.8522,2.849,2.8471,2.8522,2.8587,2.8587,2.8587,2.8587,2.8587,2.8587,2.8587,2.8587,2.8587,2.8587,2.8587,2.8587,2.8587,2.8587,2.8587,2.8587,2.8587,2.8587,2.8522,2.8349,2.7835,2.7373,2.7018,2.6698,2.6351,2.5916,2.542,1.8827,1.8781,1.8781,1.8827,1.9012,1.9882,2.0489,2.0886,2.116,2.1553,2.1996,2.2355,2.2726,2.3229,2.3338,2.3637,2.4044,2.4152,2.4211,2.4211,2.4211,2.4211,2.4211,2.4211,2.4301,2.4122,2.3968,2.391,2.3627,2.3954,2.4536,2.5091,2.528,2.5519,2.5785,2.5922,2.591,2.595,2.5895,2.5895,2.5895,2.5895,2.5895,2.5895,2.5895,2.5895,2.5895,2.5895,2.5895,2.5895,2.5895,2.5895,2.5895,2.5895,2.5895,2.5895,2.5895,2.5895,2.5895,2.5895,2.5895,2.5895,2.5895,2.5895,2.5895,2.5895,2.5819,2.571,2.5524,2.5317,2.5084,2.478,2.45,2.4823,2.4951,2.5563,2.6154,2.653,2.6769,2.7175,2.7709,2.7908,2.8052,2.8197,2.8392,2.8457,2.8457,2.8554,2.8587,2.8587,2.8587,2.8587,2.8587,2.8587,2.8587,2.8587,2.8587,2.8587,2.8587,2.8587,2.8587,2.8587,2.8587,2.8587,2.8587,2.8522,2.8346,2.7958,2.7464,2.7003,2.6314,2.6061,2.5705,2.5351,2.4955,1.8781,1.8781,1.8781,1.8781,1.8827,1.9104,1.9453,1.9825,1.9971,2.049,2.1428,2.1528,2.2003,2.271,2.3129,2.337,2.3637,2.3945,2.4152,2.4152,2.4102,2.4152,2.4211,2.4211,2.4211,2.4174,2.4045,2.3804,2.3655,2.3843,2.3998,2.4408,2.5163,2.5518,2.5742,2.598,2.5936,2.5931,2.5855,2.5864,2.5906,2.5906,2.5906,2.5895,2.5895,2.5895,2.5895,2.5895,2.5895,2.5895,2.5895,2.5895,2.5895,2.5895,2.5895,2.5895,2.5895,2.5895,2.5895,2.5895,2.5895,2.5895,2.5895,2.5895,2.5895,2.5895,2.5895,2.5797,2.5732,2.5557,2.5317,2.5076,2.4937,2.5036,2.514,2.5361,2.5906,2.6188,2.6418,2.6803,2.731,2.7477,2.7656,2.802,2.8262,2.8346,2.8425,2.849,2.8554,2.8554,2.8587,2.8587,2.8587,2.8587,2.8587,2.8587,2.8587,2.8587,2.8587,2.8587,2.8587,2.8587,2.8587,2.8554,2.8522,2.8281,2.802,2.7558,2.6974,2.6044,2.5366,2.5232,2.505,2.4723,2.4565,1.8781,1.8781,1.8781,1.8781,1.8781,1.8781,1.8962,1.9161,1.9304,1.9878,2.0459,2.0606,2.1164,2.1895,2.2287,2.2613,2.2979,2.3238,2.3538,2.3786,2.3845,2.4044,2.4102,2.4152,2.4211,2.4211,2.4183,2.4055,2.38,2.3736,2.3871,2.4368,2.5187,2.5224,2.5393,2.5539,2.5667,2.5658,2.5657,2.5771,2.5822,2.5864,2.5906,2.5895,2.5895,2.5895,2.5895,2.5895,2.5895,2.5895,2.5895,2.5895,2.5895,2.5895,2.5895,2.5895,2.5895,2.5895,2.5895,2.5895,2.5895,2.5895,2.5895,2.5895,2.5895,2.5895,2.5895,2.5863,2.5852,2.5775,2.5535,2.5322,2.5362,2.5392,2.5338,2.528,2.5601,2.5926,2.627,2.6611,2.685,2.7007,2.731,2.7756,2.7888,2.761,2.7743,2.8151,2.8314,2.849,2.8554,2.8587,2.8587,2.8587,2.8587,2.8587,2.8587,2.8587,2.8587,2.8587,2.8587,2.8554,2.8554,2.8457,2.8392,2.8085,2.7743,2.7013,2.6343,2.5428,2.4645,2.4405,2.4305,2.4101,2.4086,1.8781,1.8781,1.8781,1.8781,1.8781,1.8781,1.8835,1.8859,1.9169,1.9407,1.9558,1.975,2.0362,2.1048,2.1403,2.1844,2.2272,2.2617,2.2979,2.322,2.3229,2.3488,2.3895,2.4102,2.4053,2.4152,2.4143,2.4057,2.3934,2.3776,2.3807,2.4421,2.4278,2.4421,2.4985,2.5243,2.5399,2.5471,2.5573,2.5657,2.5676,2.577,2.5906,2.5895,2.5895,2.5895,2.5895,2.5895,2.5895,2.5895,2.5895,2.5895,2.5895,2.5895,2.5895,2.5895,2.5895,2.5895,2.5895,2.5895,2.5895,2.5895,2.5895,2.5895,2.5895,2.5895,2.5895,2.5895,2.5884,2.5874,2.5688,2.5513,2.551,2.5413,2.5356,2.5123,2.5022,2.5277,2.5419,2.5804,2.6208,2.638,2.6782,2.7209,2.7776,2.7142,2.7343,2.7941,2.8085,2.8346,2.8425,2.849,2.8392,2.8425,2.8587,2.8587,2.8587,2.8587,2.8554,2.8587,2.8587,2.8554,2.8476,2.8216,2.7954,2.7776,2.7406,2.6563,2.5709,2.4942,2.423,2.3697,2.3462,2.3338,2.3395,1.8781,1.8781,1.8781,1.8781,1.8781,1.8781,1.8781,1.8789,1.8915,1.9121,1.9399,1.9519,1.9774,2.0265,2.0851,2.1296,2.1537,2.2013,2.2492,2.2677,2.2677,2.3029,2.3438,2.3637,2.3795,2.4102,2.4152,2.4003,2.3651,2.3412,2.3219,2.3161,2.3438,2.4172,2.4742,2.5066,2.5346,2.5381,2.5492,2.5519,2.5539,2.5601,2.5738,2.5822,2.5906,2.5895,2.5895,2.5895,2.5895,2.5895,2.5895,2.5895,2.5895,2.5895,2.5895,2.5895,2.5895,2.5895,2.5895,2.5895,2.5895,2.5895,2.5895,2.5895,2.5895,2.5895,2.5895,2.5895,2.5895,2.5895,2.5863,2.5762,2.562,2.5495,2.5354,2.4954,2.4547,2.4576,2.4645,2.504,2.5511,2.5861,2.6233,2.6701,2.7297,2.7743,2.8085,2.8392,2.8216,2.8281,2.8183,2.8216,2.8085,2.8118,2.8314,2.836,2.8249,2.8392,2.8425,2.849,2.8554,2.8457,2.8314,2.7776,2.7443,2.7229,2.6745,2.579,2.4983,2.4352,2.3568,2.2892,2.2628,2.2488,2.2555,1.8781,1.8781,1.8781,1.8781,1.8781,1.8781,1.8781,1.8781,1.8781,1.8939,1.9105,1.9161,1.9328,1.9662,2.02,2.0679,2.0875,2.1278,2.177,2.2022,2.2224,2.2677,2.2979,2.3229,2.3737,2.4053,2.4152,2.3954,2.3279,2.327,2.3153,2.2929,2.3493,2.4036,2.466,2.5212,2.5434,2.5365,2.5402,2.5419,2.5359,2.5475,2.5612,2.578,2.5853,2.5853,2.5895,2.5895,2.5895,2.5895,2.5895,2.5895,2.5895,2.5895,2.5895,2.5895,2.5895,2.5895,2.5895,2.5895,2.5895,2.5895,2.5895,2.5895,2.5895,2.5895,2.5895,2.5895,2.5895,2.5895,2.5895,2.5797,2.5764,2.5681,2.5385,2.4997,2.4502,2.4175,2.4449,2.4885,2.5194,2.5324,2.5641,2.5838,2.6346,2.6471,2.7129,2.7676,2.7709,2.8105,2.8052,2.7888,2.7709,2.7577,2.761,2.7676,2.7676,2.7875,2.8216,2.8295,2.8327,2.8281,2.8085,2.743,2.6892,2.6641,2.6013,2.5074,2.4394,2.3779,2.2883,2.1999,2.1858,2.1765,2.1721,1.8781,1.8781,1.8781,1.8781,1.8781,1.8781,1.8781,1.8781,1.8781,1.8781,1.8813,1.8813,1.9042,1.9209,1.9447,1.9861,2.0253,2.0634,2.1052,2.1374,2.1548,2.2064,2.2577,2.3038,2.3338,2.3596,2.3755,2.3388,2.2878,2.2878,2.2878,2.3129,2.3479,2.3967,2.4604,2.514,2.5278,2.5138,2.5135,2.5134,2.5188,2.5306,2.5517,2.5644,2.577,2.5864,2.5864,2.5812,2.5812,2.577,2.577,2.577,2.5812,2.5812,2.5853,2.5853,2.5895,2.5895,2.5895,2.5895,2.5895,2.5895,2.5895,2.5895,2.5895,2.5895,2.5895,2.5895,2.5895,2.5895,2.5895,2.5895,2.5874,2.5775,2.5409,2.4989,2.4465,2.3932,2.4235,2.4655,2.4742,2.4838,2.5147,2.5324,2.5453,2.5488,2.5791,2.6151,2.6667,2.743,2.7809,2.753,2.7263,2.7129,2.7175,2.7142,2.7229,2.7676,2.8006,2.8085,2.7941,2.7451,2.7116,2.6879,2.6436,2.5975,2.5274,2.4362,2.3712,2.3203,2.2218,2.138,2.1368,2.1242,2.0987,1.8781,1.8781,1.8781,1.8781,1.8781,1.8781,1.8781,1.8781,1.8781,1.8781,1.8781,1.8781,1.8845,1.8916,1.9264,1.9558,1.9733,2.0067,2.0337,2.0646,2.0996,2.1464,2.1979,2.2476,2.2426,2.2736,2.2937,2.2526,2.2375,2.2182,2.1827,2.1683,2.1573,2.2215,2.3153,2.3889,2.4708,2.4802,2.5198,2.5319,2.4835,2.4999,2.5391,2.5517,2.5654,2.5654,2.5601,2.5422,2.5369,2.5327,2.538,2.5517,2.5601,2.5696,2.577,2.5853,2.5895,2.5895,2.5895,2.5895,2.5895,2.5895,2.5895,2.5895,2.5895,2.5895,2.5895,2.5895,2.5895,2.5895,2.5895,2.5895,2.5874,2.5742,2.5467,2.4996,2.4513,2.4078,2.3977,2.4076,2.4116,2.4539,2.5099,2.5276,2.5488,2.5687,2.6264,2.6586,2.6552,2.7061,2.7451,2.7048,2.6641,2.7196,2.7397,2.696,2.6994,2.7464,2.7597,2.7284,2.6845,2.6217,2.5906,2.5906,2.5604,2.5146,2.4378,2.3688,2.3246,2.2648,2.1547,2.083,2.0839,2.0775,2.0582]},{"header":{"parameterUnit":"m.s-1","parameterCategory":1,"la1":31.0,"la2":29.5877,"lo1":-88.7671,"lo2":-86.6584,"dy":0.0162,"dx":0.0185,"nx":115,"ny":88,"refTime":"2024-04-17T12:00:00:Z","depth":0,"parameterNumber":3,"parameterNumberName":"V-component_of_WINDS"},"data":[0.0,0.0,0.0,0.0,0.0,0.0,0.0,0.0,0.0,0.0,0.0,0.0,0.0,0.0,0.0,0.0,0.0,0.0,0.0,0.0,0.0,0.0,0.0,0.0,0.0,0.0,0.0,0.0,0.0,0.0,0.0,0.0,0.0,0.0,0.0,0.0,0.0,0.0,0.0,0.0,0.0,0.0,0.0,0.0,0.0,0.0,0.0,0.0,0.0,0.0,0.0,0.0,0.0,0.0,0.0,0.0,0.0,0.0,0.0,0.0,0.0,0.0,0.0,0.0,0.0,0.0,0.0,0.0,0.0,0.0,0.0,0.0,0.0,0.0,0.0,0.0,0.0,0.0,0.0,0.0,0.0,0.0,0.0,0.0,0.0,0.0,0.0,0.0,0.0,0.0,0.0,0.0,0.0,0.0,0.0,0.0,0.0,0.0,0.0,0.0,0.0,0.0,0.0,0.0,0.0,0.0,0.0,0.0,0.0,0.0,0.0,0.0,0.0,0.0,0.0,0.0,0.0,0.0,0.0,0.0,0.0,0.0,0.0,0.0,0.0,0.0,0.0,0.0,0.0,0.0,0.0,0.0,0.0,0.0,0.0,0.0,0.0,0.0,0.0,0.0,0.0,0.0,0.0,0.0,0.0,0.0,0.0,0.0,0.0,0.0,0.0,0.0,0.0,0.0,0.0,0.0,0.0,0.0,0.0,0.0,0.0,0.0,0.0,0.0,0.0,0.0,0.0,0.0,0.0,0.0,0.0,0.0,0.0,0.0,0.0,0.0,0.0,0.0,0.0,0.0,0.0,0.0,0.0,0.0,0.0,0.0,0.0,0.0,0.0,0.0,0.0,0.0,0.0,0.0,0.0,0.0,0.0,0.0,0.0,0.0,0.0,0.0,0.0,0.0,0.0,0.0,0.0,0.0,0.0,0.0,0.0,0.0,0.0,0.0,0.0,0.0,0.0,0.0,0.0,0.0,0.0,0.0,0.0,0.0,0.0,0.0,0.0,0.0,0.0,0.0,0.0,0.0,0.0,0.0,0.0,0.0,0.0,0.0,0.0,0.0,0.0,0.0,0.0,0.0,0.0,0.0,0.0,0.0,0.0,0.0,0.0,0.0,0.0,0.0,0.0,0.0,0.0,0.0,0.0,0.0,0.0,0.0,0.0,0.0,0.0,0.0,0.0,0.0,0.0,0.0,0.0,0.0,0.0,0.0,0.0,0.0,0.0,0.0,0.0,0.0,0.0,0.0,0.0,0.0,0.0,0.0,0.0,0.0,0.0,0.0,0.0,0.0,0.0,0.0,0.0,0.0,0.0,0.0,0.0,0.0,0.0,0.0,0.0,0.0,0.0,0.0,0.0,0.0,0.0,0.0,0.0,0.0,0.0,0.0,0.0,0.0,0.0,0.0,0.0,0.0,0.0,0.0,0.0,0.0,0.0,0.0,0.0,0.0,0.0,0.0,0.0,0.0,0.0,0.0,0.0,0.0,0.0,0.0,0.0,0.0,0.0,0.0,0.0,0.0,0.0,0.0,0.0,0.0,0.0,0.0,0.0,0.0,0.0,0.0,0.0,0.0,0.0,0.0,0.0,0.0,0.0,0.0,0.0,0.0,0.0,0.0,0.0,0.0,0.0,0.0,0.0,0.0,0.0,0.0,0.0,0.0,0.0,0.0,0.0,0.0,0.0,0.0,0.0,0.0,0.0,0.0,0.0,0.0,0.0,0.0,0.0,0.0,0.0,0.0,0.0,0.0,0.0,0.0,0.0,0.0,0.0,0.0,0.0,0.0,0.0,0.0,0.0,0.0,0.0,0.0,0.0,0.0,0.0,0.0,0.0,0.0,0.0,0.0,0.0,0.0,0.0,0.0,0.0,0.0,0.0,0.0,0.0,0.0,0.0,0.0,0.0,0.0,0.0,0.0,0.0,0.0,0.0,0.0,0.0,0.0,0.0,0.0,0.0,0.0,0.0,0.0,0.0,0.0,0.0,0.0,0.0,0.0,0.0,0.0,0.0,0.0,0.0,0.0,0.0,0.0,0.0,0.0,0.0,0.0,0.0,0.0,0.0,0.0,0.0,0.0,0.0,0.0,0.0,0.0,0.0,0.0,0.0,0.0,0.0,0.0,0.0,0.0,0.0,0.0,0.0,0.0,0.0,0.0,0.0,0.0,0.0,0.0,0.0,0.0,0.0,0.0,0.0,0.0,0.0,0.0,0.0,0.0,0.0,0.0,0.0,0.0,0.0,0.0,0.0,0.0,0.0,0.0,0.0,0.0,0.0,0.0,0.0,0.0,0.0,0.0,0.0,0.0,0.0,0.0,0.0,0.0,0.0,0.0,0.0,0.0,0.0,0.0,0.0,0.0,0.0,0.0,0.0,0.0,0.0,0.0,0.0,0.0,0.0,0.0,0.0,0.0,0.0,0.0,0.0,0.0,0.0,0.0,0.0,0.0,0.0,0.0,0.0,0.0,0.0,0.0,0.0,0.0,0.0,0.0,0.0,0.0,0.0,0.0,0.0,0.0,0.0,0.0,0.0,0.0,0.0,0.0,0.0,0.0,0.0,0.0,0.0,0.0,0.0,0.0,0.0,0.0,0.0,0.0,0.0,0.0,0.0,0.0,0.0,0.0,0.0,0.0,0.0,0.0,0.0,0.0,0.0,0.0,0.0,0.0,0.0,0.0,0.0,0.0,0.0,0.0,0.0,0.0,0.0,0.0,0.0,0.0,0.0,0.0,0.0,0.0,0.0,0.0,0.0,0.0,0.0,0.0,0.0,0.0,0.0,0.0,0.0,0.0,0.0,0.0,0.0,0.0,0.0,0.0,0.0,0.0,0.0,0.0,0.0,0.0,0.0,0.0,0.0,0.0,0.0,0.0,0.0,0.0,0.0,0.0,0.0,0.0,0.0,0.0,0.0,0.0,0.0,0.0,0.0,0.0,0.0,0.0,0.0,0.0,0.0,0.0,0.0,0.0,0.0,0.0,0.0,0.0,0.0,0.0,0.0,0.0,0.0,0.0,0.0,0.0,0.0,0.0,0.0,0.0,0.0,0.0,0.0,0.0,0.0,0.0,0.0,0.0,0.0,0.0,0.0,0.0,0.0,0.0,0.0,0.0,0.0,0.0,0.0,0.0,0.0,0.0,0.0,0.0,0.0,0.0,0.0,0.0,0.0,0.0,0.0,0.0,0.0,0.0,0.0,0.0,0.0,0.0,0.0,0.0,0.0,0.0,0.0,0.0,0.0,0.0,0.0,0.0,0.0,0.0,0.0,0.0,0.0,0.0,0.0,0.0,0.0,0.0,0.0,0.0,0.0,0.0,0.0,0.0,0.0,0.0,0.0,0.0,0.0,0.0,0.0,0.0,0.0,0.0,0.0,0.0,0.0,0.0,0.0,0.0,0.0,0.0,0.0,0.0,0.0,0.0,0.0,0.0,0.0,0.0,0.0,0.0,0.0,0.0,0.0,0.0,0.0,0.0,0.0,0.0,0.0,0.0,0.0,0.0,0.0,0.0,0.0,0.0,0.0,0.0,0.0,0.0,0.0,0.0,0.0,0.0,0.0,0.0,0.0,0.0,0.0,0.0,0.0,0.0,0.0,0.0,0.0,0.0,0.0,0.0,0.0,0.0,0.0,0.0,0.0,0.0,0.0,0.0,0.0,0.0,0.0,0.0,0.0,0.0,0.0,0.0,0.0,0.0,0.0,0.0,0.0,0.0,0.0,0.0,0.0,0.0,0.0,0.0,0.0,0.0,0.0,0.0,0.0,0.0,0.0,0.0,0.0,0.0,0.0,0.0,0.0,0.0,0.0,0.0,0.0,0.0,0.0,0.0,0.0,0.0,0.0,0.0,0.0,0.0,0.0,0.0,0.0,0.0,0.0,0.0,0.0,0.0,0.0,0.0,0.0,0.0,0.0,0.0,0.0,0.0,0.0,0.0,0.0,0.0,0.0,0.0,0.0,0.0,0.0,0.0,0.0,0.0,0.0,0.0,0.0,0.0,0.0,0.0,0.0,0.0,0.0,0.0,0.0,0.0,0.0,0.0,0.0,0.0,0.0,0.0,0.0,0.0,0.0,0.0,0.0,0.0,0.0,0.0,0.0,0.0,0.0,0.0,0.0,0.0,0.0,0.0,0.0,0.0,0.0,0.0,0.0,0.0,0.0,0.0,0.0,0.0,0.0,0.0,0.0,0.0,0.0,0.0,0.0,0.0,0.0,0.0,0.0,0.0,0.0,0.0,0.0,0.0,0.0,0.0,0.0,0.0,0.0,0.0,1.31,0.0,0.0,0.0,0.0,0.0,0.0,0.0,0.0,0.0,0.0,0.0,0.0,0.0,0.0,0.0,0.0,0.0,0.0,0.0,0.0,0.0,0.0,0.0,0.0,0.0,0.0,0.0,0.0,0.0,0.0,0.0,0.0,0.0,0.0,0.0,0.0,0.0,0.0,0.0,0.0,0.0,0.0,0.0,0.0,0.0,0.0,0.0,0.0,0.0,0.0,0.0,0.0,0.0,0.0,0.0,0.0,0.0,0.0,0.0,0.0,0.0,0.0,0.0,0.0,0.0,0.0,0.0,0.0,0.0,0.0,0.0,0.0,0.0,0.0,0.0,0.0,0.0,0.0,0.0,0.0,0.0,0.0,0.0,0.0,0.0,0.0,0.0,0.0,0.0,0.0,0.0,0.0,0.0,0.0,0.0,0.0,0.0,0.0,0.0,0.0,0.0,0.0,0.0,0.0,0.0,0.0,0.0,0.0,0.0,0.0,1.3913,1.3568,1.3568,1.3483,1.3264,0.0,0.0,0.0,0.0,0.0,0.0,0.0,0.0,0.0,0.0,0.0,0.0,0.0,0.0,0.0,0.0,0.0,0.0,0.0,0.0,0.0,0.0,0.0,0.0,0.0,0.0,0.0,0.0,0.0,0.0,0.0,0.0,0.0,0.0,0.0,0.0,0.0,0.0,0.0,0.0,0.0,0.0,0.0,0.0,0.0,0.0,0.0,0.0,0.0,0.0,0.0,0.0,0.0,0.0,0.0,0.0,0.0,0.0,0.0,0.0,0.0,0.0,0.0,0.0,0.0,0.0,0.0,0.0,0.0,0.0,0.0,0.0,0.0,0.0,0.0,0.0,0.0,0.0,0.0,0.0,0.0,0.0,0.0,0.0,0.0,0.0,0.0,0.0,0.0,0.0,0.0,0.0,0.0,0.0,0.0,0.0,0.0,0.0,0.0,0.0,0.0,0.0,0.0,0.0,0.0,0.0,0.0,0.0,0.0,0.0,0.0,0.0,1.3737,1.3561,1.3355,0.0,0.0,0.0,0.0,0.0,0.0,0.0,0.0,0.0,0.0,0.0,0.0,0.0,0.0,0.0,0.0,0.0,0.0,0.0,0.0,0.0,0.0,0.0,0.0,0.0,0.0,0.0,0.0,0.0,0.0,0.0,0.0,0.0,0.0,0.0,0.0,0.0,0.0,0.0,0.0,0.0,0.0,0.0,0.0,0.0,0.0,0.0,0.0,0.0,0.0,0.0,0.0,0.0,0.0,0.0,0.0,0.0,0.0,0.0,0.0,0.0,0.0,0.0,0.0,0.0,0.0,0.0,0.0,0.0,0.0,0.0,0.0,0.0,0.0,0.0,0.0,0.0,0.0,0.0,0.0,0.0,0.0,0.0,0.0,0.0,0.0,0.0,0.0,0.0,0.0,0.0,0.0,0.0,0.0,0.0,0.0,0.0,0.0,0.0,0.0,0.0,0.0,0.0,0.0,0.0,0.0,0.0,0.0,0.0,0.0,1.4088,1.4039,1.3822,0.0,1.3137,0.0,0.0,0.0,0.0,0.0,0.0,0.0,0.0,0.0,0.0,0.0,0.0,0.0,0.0,0.0,0.0,0.0,0.0,0.0,0.0,0.0,0.0,0.0,0.0,0.0,0.0,0.0,0.0,0.0,0.0,0.0,0.0,0.0,0.0,0.0,0.0,0.0,0.0,0.0,0.0,0.0,0.0,0.0,0.0,0.0,0.0,0.0,0.0,0.0,0.0,0.0,0.0,0.0,0.0,0.0,0.0,0.0,0.0,0.0,0.0,0.0,0.0,0.0,0.0,0.0,0.0,0.0,0.0,0.0,0.0,0.0,0.0,0.0,0.0,0.0,0.0,0.0,0.0,0.0,0.0,0.0,0.0,0.0,0.0,0.0,0.0,0.0,0.0,0.0,0.0,0.0,0.0,0.0,0.0,0.0,0.0,0.0,0.0,0.0,0.0,0.0,0.0,0.0,0.0,0.0,0.0,0.0,0.0,0.0,0.0,1.4615,1.413,1.3822,1.3652,0.0,0.0,0.0,0.0,0.0,0.0,0.0,0.0,0.0,0.0,0.0,0.0,0.0,0.0,0.0,0.0,0.0,0.0,0.0,0.0,0.0,0.0,0.0,0.0,0.0,0.0,0.0,0.0,0.0,0.0,0.0,0.0,0.0,0.0,0.0,0.0,0.0,0.0,0.0,0.0,0.0,0.0,0.0,0.0,0.0,0.0,0.0,0.0,0.0,0.0,0.0,0.0,0.0,0.0,0.0,0.0,0.0,0.0,0.0,0.0,0.0,0.0,0.0,0.0,0.0,0.0,0.0,0.0,0.0,0.0,0.0,0.0,0.0,0.0,0.0,0.0,0.0,0.0,0.0,0.0,0.0,0.0,0.0,0.0,0.0,0.0,0.0,0.0,0.0,0.0,0.0,0.0,0.0,0.0,0.0,0.0,0.0,0.0,0.0,0.0,0.0,0.0,0.0,0.0,0.0,0.0,0.0,0.0,0.0,0.0,1.5151,1.4741,1.4124,1.3913,1.3786,1.3688,0.0,0.0,0.0,0.0,0.0,0.0,0.0,0.0,0.0,0.0,0.0,0.0,0.0,0.0,0.0,0.0,0.0,0.0,0.0,0.0,0.0,0.0,0.0,0.0,0.0,0.0,0.0,0.0,0.0,0.0,0.0,0.0,0.0,0.0,0.0,0.0,0.0,0.0,0.0,0.0,0.0,0.0,0.0,0.0,0.0,0.0,0.0,0.0,0.0,0.0,0.0,0.0,0.0,0.0,0.0,0.0,0.0,0.0,0.0,0.0,0.0,0.0,0.0,0.0,0.0,0.0,0.0,0.0,0.0,0.0,0.0,0.0,0.0,0.0,0.0,0.0,0.0,0.0,0.0,0.0,0.0,0.0,0.0,0.0,0.0,0.0,0.0,0.0,0.0,0.0,0.0,0.0,0.0,0.0,0.0,0.0,0.0,0.0,0.0,0.0,0.0,0.0,0.0,0.0,0.0,0.0,0.0,0.0,1.5394,1.4622,1.4173,1.4166,1.4088,1.3955,0.0,0.0,0.0,0.0,0.0,0.0,0.0,0.0,0.0,0.0,0.0,0.0,0.0,0.0,0.0,0.0,0.0,0.0,0.0,0.0,0.0,0.0,0.0,0.0,0.0,0.0,0.0,0.0,0.0,0.0,0.0,0.0,0.0,0.0,0.0,0.0,0.0,0.0,0.0,0.0,0.0,0.0,0.0,0.0,0.0,0.0,0.0,0.0,0.0,0.0,0.0,0.0,0.0,0.0,0.0,0.0,0.0,0.0,0.0,0.0,0.0,0.0,0.0,0.0,0.0,0.0,0.0,0.0,0.0,0.0,0.0,0.0,0.0,0.0,0.0,0.0,0.0,0.0,0.0,0.0,0.0,0.0,0.0,0.0,0.0,0.0,0.0,0.0,0.0,0.0,0.0,0.0,0.0,0.0,0.0,0.0,0.0,0.0,0.0,0.0,0.0,0.0,0.0,0.0,0.0,0.0,0.0,0.0,0.0,1.7017,1.6214,1.576,1.576,1.5235,1.4908,0.0,0.0,0.0,0.0,0.0,0.0,0.0,0.0,0.0,0.0,0.0,0.0,0.0,0.0,0.0,0.0,0.0,0.0,0.0,0.0,0.0,0.0,0.0,0.0,0.0,0.0,0.0,0.0,0.0,0.0,0.0,0.0,0.0,0.0,0.0,0.0,0.0,0.0,0.0,0.0,0.0,0.0,0.0,0.0,0.0,0.0,0.0,0.0,0.0,0.0,0.0,0.0,0.0,0.0,0.0,0.0,0.0,0.0,0.0,0.0,0.0,0.0,0.0,0.0,0.0,0.0,0.0,0.0,0.0,0.0,0.0,0.0,0.0,0.0,0.0,0.0,0.0,0.0,0.0,0.0,0.0,0.0,0.0,0.0,0.0,0.0,0.0,0.0,0.0,0.0,0.0,0.0,0.0,0.0,0.0,0.0,0.0,0.0,0.0,0.0,0.0,0.0,0.0,0.0,0.0,0.0,0.0,0.0,0.0,1.7666,0.0,1.6731,1.6772,1.6165,1.5842,0.0,0.0,0.0,0.0,0.0,0.0,0.0,0.0,0.0,0.0,0.0,0.0,0.0,0.0,0.0,0.0,0.0,0.0,0.0,0.0,0.0,0.0,0.0,0.0,0.0,0.0,0.0,0.0,0.0,0.0,0.0,0.0,0.0,0.0,0.0,0.0,0.0,0.0,0.0,0.0,0.0,0.0,0.0,0.0,0.0,0.0,0.0,0.0,0.0,0.0,0.0,0.0,0.0,0.0,0.0,0.0,0.0,0.0,0.0,0.0,0.0,0.0,0.0,0.0,0.0,0.0,0.0,0.0,0.0,0.0,0.0,0.0,0.0,0.0,0.0,0.0,0.0,0.0,0.0,0.0,0.0,0.0,0.0,0.0,0.0,0.0,0.0,0.0,0.0,0.0,0.0,0.0,0.0,0.0,0.0,0.0,0.0,0.0,0.0,0.0,0.0,0.0,0.0,0.0,0.0,0.0,0.0,0.0,1.7706,1.7082,1.6895,1.6935,1.7041,1.6854,1.6698,0.0,0.0,0.0,0.0,0.0,0.0,0.0,0.0,0.0,0.0,0.0,0.0,0.0,0.0,0.0,0.0,0.0,0.0,0.0,0.0,0.0,0.0,0.0,0.0,0.0,0.0,0.0,0.0,0.0,0.0,0.0,0.0,0.0,0.0,0.0,0.0,0.0,0.0,0.0,0.0,0.0,0.0,0.0,0.0,0.0,0.0,0.0,0.0,0.0,0.0,0.0,0.0,0.0,0.0,0.0,0.0,0.0,0.0,0.0,0.0,0.0,0.0,0.0,0.0,0.0,0.0,0.0,0.0,0.0,0.0,0.0,0.0,0.0,0.0,0.0,0.0,0.0,0.0,0.0,0.0,0.0,0.0,0.0,0.0,0.0,0.0,0.0,0.0,0.0,0.0,0.0,0.0,0.0,0.0,0.0,0.0,0.0,0.0,0.0,0.0,0.0,0.0,0.0,0.0,0.0,0.0,0.0,0.0,0.0,1.8607,1.8807,1.8807,1.8559,1.8069,1.7738,0.0,0.0,0.0,0.0,0.0,0.0,0.0,0.0,0.0,0.0,0.0,0.0,0.0,0.0,0.0,0.0,0.0,0.0,0.0,0.0,0.0,0.0,0.0,0.0,0.0,0.0,0.0,0.0,0.0,0.0,0.0,0.0,0.0,0.0,0.0,0.0,0.0,0.0,0.0,0.0,0.0,0.0,0.0,0.0,0.0,0.0,0.0,0.0,0.0,0.0,0.0,0.0,0.0,0.0,0.0,0.0,0.0,0.0,0.0,0.0,0.0,0.0,0.0,0.0,0.0,0.0,0.0,0.0,0.0,0.0,0.0,0.0,0.0,0.0,0.0,0.0,0.0,0.0,0.0,0.0,0.0,0.0,0.0,0.0,0.0,0.0,0.0,0.0,0.0,0.0,0.0,0.0,0.0,0.0,0.0,0.0,0.0,0.0,0.0,0.0,0.0,0.0,0.0,0.0,0.0,0.0,0.0,0.0,0.0,1.9539,1.9784,1.9824,1.9696,1.9164,1.8798,1.8607,0.0,0.0,0.0,0.0,0.0,0.0,0.0,0.0,0.0,0.0,0.0,0.0,0.0,0.0,0.0,0.0,0.0,0.0,0.0,0.0,0.0,0.0,0.0,0.0,0.0,0.0,0.0,0.0,0.0,0.0,0.0,0.0,0.0,0.0,0.0,0.0,0.0,0.0,0.0,0.0,0.0,0.0,0.0,0.0,0.0,0.0,0.0,0.0,0.0,0.0,0.0,0.0,0.0,0.0,0.0,0.0,0.0,0.0,0.0,0.0,0.0,0.0,0.0,0.0,0.0,0.0,0.0,0.0,0.0,0.0,0.0,0.0,0.0,0.0,0.0,0.0,0.0,0.0,0.0,0.0,0.0,0.0,0.0,0.0,0.0,0.0,0.0,0.0,0.0,0.0,0.0,0.0,0.0,0.0,0.0,0.0,0.0,0.0,0.0,0.0,0.0,0.0,0.0,0.0,0.0,0.0,0.0,0.0,1.9932,1.9942,2.0069,2.0264,2.002,1.9833,0.0,0.0,0.0,0.0,0.0,0.0,0.0,0.0,0.0,0.0,0.0,0.0,0.0,0.0,0.0,0.0,0.0,0.0,0.0,0.0,0.0,0.0,0.0,0.0,0.0,0.0,0.0,0.0,0.0,0.0,0.0,0.0,0.0,0.0,0.0,0.0,0.0,0.0,0.0,0.0,0.0,0.0,0.0,0.0,0.0,0.0,0.0,0.0,0.0,0.0,0.0,0.0,0.0,0.0,0.0,0.0,0.0,0.0,0.0,0.0,0.0,0.0,0.0,0.0,0.0,0.0,0.0,0.0,0.0,0.0,0.0,0.0,0.0,0.0,0.0,0.0,0.0,0.0,0.0,0.0,0.0,0.0,0.0,0.0,0.0,0.0,0.0,0.0,0.0,0.0,0.0,0.0,0.0,0.0,0.0,0.0,0.0,0.0,0.0,0.0,0.0,0.0,0.0,0.0,0.0,0.0,0.0,0.0,0.0,2.0186,2.0333,2.0294,2.002,2.0147,2.0029,0.0,0.0,0.0,0.0,0.0,0.0,0.0,0.0,0.0,0.0,0.0,0.0,0.0,0.0,0.0,0.0,0.0,0.0,0.0,0.0,0.0,0.0,0.0,0.0,0.0,0.0,0.0,0.0,0.0,0.0,0.0,0.0,0.0,0.0,0.0,0.0,0.0,0.0,0.0,0.0,0.0,0.0,0.0,0.0,0.0,0.0,0.0,0.0,0.0,0.0,0.0,0.0,0.0,0.0,0.0,0.0,0.0,0.0,0.0,0.0,0.0,0.0,0.0,0.0,0.0,0.0,0.0,0.0,0.0,0.0,0.0,0.0,0.0,0.0,0.0,0.0,0.0,0.0,0.0,0.0,0.0,0.0,0.0,0.0,0.0,0.0,0.0,0.0,0.0,0.0,0.0,0.0,0.0,0.0,0.0,0.0,0.0,0.0,0.0,0.0,0.0,0.0,0.0,0.0,0.0,0.0,0.0,0.0,2.0411,2.042,2.0527,2.045,2.0206,2.0333,2.0264,0.0,0.0,0.0,0.0,0.0,0.0,0.0,0.0,0.0,0.0,0.0,0.0,0.0,0.0,0.0,0.0,0.0,0.0,0.0,0.0,0.0,0.0,0.0,0.0,0.0,0.0,0.0,0.0,0.0,0.0,0.0,0.0,0.0,0.0,0.0,0.0,0.0,0.0,0.0,0.0,0.0,0.0,0.0,0.0,0.0,0.0,0.0,0.0,0.0,0.0,0.0,0.0,0.0,0.0,0.0,0.0,0.0,0.0,0.0,0.0,0.0,0.0,0.0,0.0,0.0,0.0,0.0,0.0,0.0,0.0,0.0,0.0,0.0,0.0,0.0,0.0,0.0,0.0,0.0,0.0,0.0,0.0,0.0,0.0,0.0,0.0,0.0,0.0,0.0,0.0,0.0,0.0,0.0,0.0,0.0,0.0,0.0,0.0,0.0,0.0,0.0,0.0,0.0,0.0,0.0,0.0,0.0,0.0,2.0615,2.0615,2.0615,2.0615,2.0615,2.0615,2.0489,0.0,0.0,0.0,0.0,0.0,0.0,0.0,0.0,0.0,0.0,0.0,0.0,0.0,0.0,0.0,0.0,0.0,0.0,0.0,0.0,0.0,0.0,0.0,0.0,0.0,0.0,0.0,0.0,0.0,0.0,0.0,0.0,0.0,0.0,0.0,0.0,0.0,0.0,0.0,0.0,0.0,0.0,0.0,0.0,0.0,0.0,0.0,0.0,0.0,0.0,0.0,0.0,0.0,0.0,0.0,0.0,0.0,0.0,0.0,0.0,0.0,0.0,0.0,0.0,0.0,0.0,0.0,0.0,0.0,0.0,0.0,0.0,0.0,0.0,0.0,0.0,0.0,0.0,0.0,0.0,0.0,0.0,0.0,0.0,0.0,0.0,0.0,0.0,0.0,0.0,0.0,0.0,0.0,0.0,0.0,0.0,0.0,0.0,0.0,0.0,0.0,0.0,0.0,0.0,0.0,0.0,0.0,0.0,2.0615,2.0615,2.0615,2.0615,2.0615,2.0615,2.0489,0.0,0.0,0.0,0.0,0.0,0.0,0.0,0.0,0.0,0.0,0.0,0.0,0.0,0.0,0.0,0.0,0.0,0.0,0.0,0.0,0.0,0.0,0.0,0.0,0.0,0.0,0.0,0.0,0.0,0.0,0.0,0.0,0.0,0.0,0.0,0.0,0.0,0.0,0.0,0.0,0.0,0.0,0.0,0.0,0.0,0.0,0.0,0.0,1.4593,0.0,0.0,0.0,0.0,0.0,0.0,0.0,0.0,0.0,0.0,0.0,0.0,0.0,0.0,0.0,0.0,0.0,0.0,0.0,0.0,0.0,0.0,0.0,0.0,0.0,0.0,0.0,0.0,0.0,0.0,0.0,0.0,0.0,0.0,0.0,0.0,0.0,0.0,0.0,0.0,0.0,0.0,0.0,0.0,0.0,0.0,0.0,0.0,0.0,0.0,0.0,0.0,0.0,0.0,0.0,0.0,0.0,0.0,0.0,2.0615,2.0615,2.0615,2.0615,2.0615,2.0615,2.0527,0.0,0.0,0.0,0.0,0.0,0.0,0.0,0.0,0.0,0.0,0.0,0.0,0.0,0.0,0.0,0.0,0.0,0.0,0.0,0.0,0.0,0.0,0.0,0.0,0.0,0.0,0.0,0.0,0.0,0.0,0.0,0.0,0.0,0.0,0.0,0.0,0.0,0.0,0.0,0.0,0.0,0.0,0.0,0.0,0.0,0.0,0.0,0.0,0.0,0.0,0.0,0.0,0.0,0.0,0.0,0.0,0.0,0.0,0.0,0.0,0.0,0.0,0.0,0.0,0.0,0.0,0.0,0.0,0.0,0.0,0.0,0.0,0.0,0.0,0.0,0.0,0.0,0.0,0.0,0.0,0.0,0.0,0.0,0.0,0.0,0.0,0.0,0.0,0.0,0.0,0.0,0.0,0.0,0.0,0.0,0.0,0.0,0.0,0.0,0.0,0.0,0.0,0.0,0.0,0.0,0.0,0.0,2.0644,2.0644,2.0644,2.0683,2.0683,2.0683,2.0644,2.0673,2.0742,0.0,0.0,0.0,0.0,0.0,0.0,0.0,0.0,0.0,0.0,0.0,0.0,0.0,0.0,0.0,0.0,0.0,0.0,0.0,0.0,0.0,0.0,0.0,0.0,0.0,0.0,0.0,0.0,0.0,0.0,0.0,0.0,0.0,0.0,0.0,0.0,0.0,0.0,1.6042,1.6624,0.0,0.0,0.0,0.0,0.0,0.0,0.0,0.0,1.6932,0.0,0.0,0.0,0.0,0.0,0.0,0.0,0.0,0.0,0.0,0.0,0.0,0.0,0.0,0.0,0.0,0.0,0.0,0.0,0.0,0.0,0.0,0.0,0.0,0.0,0.0,0.0,0.0,0.0,0.0,0.0,0.0,0.0,0.0,0.0,0.0,0.0,0.0,0.0,0.0,0.0,0.0,0.0,0.0,0.0,0.0,0.0,0.0,0.0,0.0,0.0,0.0,0.0,0.0,0.0,0.0,2.0595,2.078,2.0867,2.0858,2.1012,2.1089,2.1089,2.0935,2.0987,2.1313,0.0,0.0,0.0,0.0,0.0,0.0,0.0,0.0,0.0,0.0,0.0,0.0,0.0,0.0,0.0,0.0,0.0,0.0,0.0,0.0,0.0,0.0,0.0,0.0,0.0,0.0,0.0,0.0,0.0,0.0,0.0,0.0,0.0,0.0,0.0,0.0,0.0,0.0,0.0,1.8087,1.8489,0.0,0.0,0.0,0.0,0.0,0.0,0.0,0.0,1.6558,0.0,0.0,0.0,0.0,0.0,0.0,0.0,0.0,0.0,0.0,0.0,0.0,0.0,0.0,0.0,0.0,0.0,0.0,0.0,0.0,0.0,0.0,0.0,0.0,0.0,0.0,0.0,0.0,0.0,0.0,0.0,0.0,0.0,0.0,0.0,0.0,0.0,0.0,0.0,0.0,0.0,0.0,0.0,0.0,0.0,0.0,0.0,0.0,0.0,0.0,0.0,0.0,0.0,0.0,0.0,2.1326,2.1945,2.2247,2.2258,2.2322,2.222,2.1814,2.1711,2.1619,0.0,0.0,0.0,0.0,0.0,0.0,0.0,0.0,0.0,0.0,0.0,0.0,0.0,0.0,0.0,0.0,0.0,0.0,0.0,0.0,0.0,0.0,0.0,0.0,0.0,0.0,0.0,0.0,0.0,0.0,0.0,0.0,0.0,0.0,0.0,0.0,0.0,0.0,0.0,0.0,1.9416,1.9828,2.0448,0.0,0.0,0.0,0.0,0.0,0.0,1.6853,1.7345,0.0,0.0,0.0,0.0,0.0,0.0,0.0,0.0,0.0,0.0,0.0,0.0,0.0,0.0,0.0,0.0,0.0,0.0,0.0,0.0,0.0,0.0,0.0,0.0,0.0,0.0,0.0,0.0,0.0,0.0,0.0,0.0,0.0,0.0,0.0,0.0,0.0,0.0,0.0,0.0,0.0,0.0,0.0,0.0,0.0,0.0,0.0,0.0,0.0,0.0,0.0,0.0,0.0,0.0,0.0,2.2038,2.3036,2.3478,2.3342,2.339,2.3132,2.2547,2.2333,2.2102,0.0,0.0,0.0,0.0,0.0,0.0,0.0,0.0,0.0,0.0,0.0,0.0,0.0,0.0,0.0,0.0,0.0,0.0,0.0,0.0,0.0,0.0,0.0,0.0,0.0,0.0,0.0,0.0,0.0,0.0,0.0,0.0,0.0,0.0,0.0,0.0,0.0,0.0,0.0,0.0,0.0,2.091,2.1755,2.1171,0.0,0.0,0.0,0.0,1.7,1.7579,0.0,0.0,0.0,0.0,0.0,0.0,0.0,0.0,0.0,0.0,0.0,0.0,0.0,0.0,0.0,0.0,0.0,0.0,0.0,0.0,0.0,0.0,0.0,0.0,0.0,0.0,0.0,0.0,0.0,0.0,0.0,0.0,0.0,0.0,0.0,0.0,0.0,0.0,0.0,0.0,0.0,0.0,0.0,0.0,0.0,0.0,0.0,0.0,0.0,0.0,0.0,0.0,0.0,0.0,0.0,0.0,2.2038,2.3184,2.3452,2.2835,2.2979,2.3001,2.2927,2.2063,2.2162,0.0,0.0,0.0,0.0,0.0,0.0,0.0,0.0,0.0,0.0,0.0,0.0,0.0,0.0,0.0,0.0,0.0,0.0,0.0,0.0,0.0,0.0,0.0,0.0,0.0,0.0,0.0,0.0,0.0,0.0,0.0,0.0,0.0,0.0,0.0,0.0,0.0,0.0,0.0,0.0,0.0,2.158,2.1458,2.1219,2.0442,0.0,0.0,1.8335,1.7659,1.7672,0.0,0.0,0.0,0.0,0.0,0.0,0.0,0.0,0.0,0.0,0.0,0.0,0.0,0.0,0.0,0.0,0.0,0.0,0.0,0.0,0.0,0.0,0.0,0.0,0.0,0.0,0.0,0.0,0.0,0.0,0.0,0.0,0.0,0.0,0.0,0.0,0.0,0.0,0.0,0.0,0.0,0.0,0.0,0.0,0.0,0.0,0.0,0.0,0.0,0.0,0.0,0.0,0.0,0.0,0.0,2.316,2.3084,2.4552,2.5182,2.4886,2.4933,2.4767,2.4288,2.3438,2.3178,0.0,0.0,0.0,0.0,0.0,0.0,0.0,0.0,0.0,0.0,0.0,0.0,0.0,0.0,0.0,0.0,0.0,0.0,0.0,0.0,0.0,0.0,0.0,0.0,0.0,0.0,0.0,0.0,0.0,0.0,0.0,0.0,0.0,0.0,0.0,0.0,0.0,0.0,0.0,0.0,0.0,0.0,2.2226,2.1611,0.0,0.0,0.0,1.8335,1.7649,0.0,0.0,0.0,0.0,0.0,0.0,0.0,0.0,0.0,0.0,0.0,0.0,0.0,0.0,0.0,0.0,0.0,0.0,0.0,0.0,0.0,0.0,0.0,0.0,0.0,0.0,0.0,0.0,0.0,0.0,0.0,0.0,0.0,0.0,0.0,0.0,0.0,0.0,0.0,0.0,0.0,0.0,0.0,0.0,0.0,0.0,0.0,0.0,0.0,0.0,0.0,0.0,0.0,0.0,0.0,0.0,0.0,2.3745,2.5569,2.6314,2.5908,2.5908,2.5616,2.5016,2.424,0.0,0.0,0.0,0.0,0.0,0.0,0.0,0.0,0.0,0.0,0.0,0.0,0.0,0.0,0.0,0.0,0.0,0.0,0.0,0.0,0.0,0.0,0.0,0.0,0.0,0.0,0.0,2.2211,0.0,0.0,0.0,0.0,0.0,0.0,0.0,0.0,0.0,0.0,0.0,0.0,0.0,0.0,2.1951,2.2872,2.2018,2.1147,0.0,0.0,1.8598,1.8042,1.8452,1.8774,0.0,0.0,0.0,0.0,0.0,0.0,0.0,0.0,0.0,0.0,0.0,0.0,0.0,0.0,0.0,0.0,0.0,0.0,0.0,0.0,0.0,0.0,0.0,0.0,0.0,0.0,0.0,0.0,0.0,0.0,0.0,0.0,0.0,0.0,0.0,0.0,0.0,0.0,0.0,0.0,0.0,0.0,0.0,0.0,0.0,0.0,0.0,0.0,0.0,0.0,0.0,0.0,0.0,0.0,0.0,2.361,2.5499,2.5816,2.4337,2.4264,2.4217,2.4145,2.346,2.3616,0.0,0.0,0.0,0.0,0.0,0.0,0.0,0.0,0.0,0.0,0.0,0.0,0.0,0.0,0.0,0.0,0.0,0.0,0.0,0.0,0.0,0.0,0.0,0.0,0.0,0.0,0.0,0.0,0.0,0.0,0.0,0.0,0.0,0.0,0.0,0.0,0.0,0.0,0.0,0.0,0.0,2.2894,2.299,2.233,2.1901,0.0,0.0,1.9318,1.9414,1.9231,1.8931,1.8539,0.0,0.0,0.0,0.0,0.0,0.0,0.0,0.0,0.0,0.0,0.0,0.0,0.0,0.0,0.0,0.0,0.0,0.0,0.0,0.0,0.0,0.0,0.0,0.0,0.0,0.0,0.0,0.0,0.0,0.0,0.0,0.0,0.0,0.0,0.0,0.0,0.0,0.0,0.0,0.0,0.0,0.0,0.0,0.0,0.0,0.0,0.0,0.0,0.0,0.0,0.0,0.0,0.0,2.5658,2.4824,2.6566,2.7044,2.6116,2.6068,2.591,2.5581,2.4838,2.4696,0.0,0.0,0.0,0.0,0.0,0.0,0.0,0.0,0.0,0.0,0.0,0.0,0.0,0.0,0.0,0.0,0.0,0.0,0.0,0.0,0.0,0.0,0.0,0.0,0.0,0.0,0.0,0.0,2.3458,2.3481,2.3003,0.0,0.0,0.0,0.0,0.0,0.0,0.0,0.0,0.0,0.0,2.2725,2.2957,2.2381,0.0,0.0,2.0549,1.9356,1.9569,1.9341,1.9008,1.8741,1.8583,0.0,0.0,0.0,0.0,0.0,0.0,0.0,0.0,0.0,0.0,0.0,0.0,0.0,0.0,0.0,0.0,0.0,0.0,0.0,0.0,0.0,0.0,0.0,0.0,0.0,0.0,0.0,0.0,0.0,0.0,0.0,0.0,0.0,0.0,0.0,0.0,0.0,0.0,0.0,0.0,0.0,0.0,0.0,0.0,0.0,0.0,0.0,0.0,0.0,0.0,0.0,0.0,2.643,2.552,2.7211,2.7799,2.7184,2.7022,2.6774,2.6367,2.5455,2.5134,0.0,0.0,0.0,0.0,0.0,0.0,0.0,0.0,0.0,0.0,0.0,0.0,0.0,0.0,0.0,0.0,0.0,0.0,0.0,0.0,0.0,0.0,0.0,0.0,0.0,0.0,0.0,0.0,2.4007,2.4051,2.3671,0.0,0.0,0.0,0.0,0.0,0.0,0.0,0.0,0.0,0.0,2.2953,2.3091,2.2476,2.1982,2.1945,2.0518,1.945,1.9592,1.9341,1.9031,1.8841,0.0,0.0,0.0,0.0,0.0,0.0,0.0,0.0,0.0,0.0,0.0,0.0,0.0,0.0,0.0,0.0,0.0,0.0,0.0,0.0,0.0,0.0,0.0,0.0,0.0,0.0,0.0,2.696,0.0,0.0,2.4995,0.0,0.0,0.0,0.0,0.0,0.0,0.0,0.0,0.0,0.0,0.0,0.0,0.0,0.0,0.0,0.0,0.0,0.0,0.0,0.0,0.0,0.0,2.5837,2.5365,2.7185,2.7767,2.6964,2.6431,2.6178,2.613,2.4857,2.4616,2.5546,0.0,0.0,0.0,0.0,0.0,0.0,0.0,0.0,0.0,0.0,0.0,0.0,0.0,0.0,0.0,0.0,0.0,0.0,0.0,0.0,0.0,0.0,0.0,0.0,0.0,0.0,2.42,2.42,2.4177,0.0,0.0,0.0,0.0,0.0,0.0,0.0,0.0,0.0,0.0,2.3666,2.3969,2.3452,2.2682,2.2014,2.1509,2.039,1.9626,1.9615,1.9341,1.9031,0.0,0.0,0.0,0.0,0.0,0.0,0.0,0.0,0.0,0.0,0.0,0.0,0.0,0.0,0.0,0.0,0.0,0.0,0.0,0.0,0.0,0.0,0.0,0.0,0.0,0.0,0.0,2.9067,2.8199,0.0,0.0,0.0,0.0,0.0,0.0,0.0,0.0,0.0,0.0,0.0,2.7017,2.7649,0.0,0.0,0.0,0.0,0.0,0.0,0.0,0.0,0.0,0.0,0.0,0.0,2.7866,2.6645,2.8307,2.8925,2.8263,2.8077,2.7643,2.6937,2.6465,2.5912,2.523,0.0,0.0,0.0,0.0,0.0,0.0,0.0,0.0,0.0,0.0,0.0,0.0,0.0,0.0,0.0,0.0,0.0,0.0,0.0,0.0,0.0,0.0,0.0,0.0,0.0,2.4526,0.0,0.0,0.0,0.0,0.0,0.0,0.0,0.0,0.0,0.0,0.0,2.3787,2.3787,2.3722,2.3602,2.343,2.2583,2.1956,0.0,0.0,0.0,0.0,0.0,0.0,0.0,0.0,0.0,0.0,0.0,0.0,0.0,0.0,1.9075,1.8583,1.8674,1.8841,1.8831,0.0,0.0,0.0,0.0,0.0,0.0,0.0,0.0,0.0,0.0,0.0,0.0,0.0,0.0,3.0114,0.0,2.9028,0.0,0.0,0.0,0.0,0.0,0.0,0.0,0.0,2.7976,2.8227,2.8279,2.8897,2.8846,0.0,2.8159,2.8159,0.0,0.0,0.0,0.0,0.0,0.0,0.0,0.0,2.8791,2.781,2.9091,2.9642,2.9315,2.9089,2.8648,2.7979,2.766,2.6793,2.5264,2.524,2.5028,0.0,0.0,0.0,0.0,0.0,0.0,0.0,0.0,0.0,0.0,0.0,0.0,0.0,0.0,0.0,0.0,0.0,0.0,0.0,0.0,0.0,0.0,0.0,2.504,0.0,0.0,0.0,0.0,0.0,0.0,0.0,0.0,0.0,2.4298,2.4273,2.4273,2.42,2.3728,2.335,2.3167,0.0,0.0,0.0,0.0,0.0,0.0,0.0,1.9473,1.9142,1.8975,1.8875,1.8741,1.8908,1.9075,1.9075,0.0,0.0,1.8975,1.9142,1.9374,1.9363,1.9758,2.0085,2.0085,2.0313,2.0495,0.0,0.0,0.0,0.0,0.0,0.0,0.0,0.0,3.1516,3.1084,0.0,2.9561,0.0,0.0,0.0,0.0,0.0,2.8752,0.0,0.0,3.0279,3.0355,3.0368,3.0368,3.0355,3.0368,3.0139,3.0139,3.0279,2.9341,0.0,0.0,0.0,0.0,0.0,0.0,2.8661,2.8791,2.9456,2.9946,3.0088,2.953,2.92,2.9124,2.8336,2.7167,2.5746,2.5755,2.5755,2.558,2.4133,0.0,0.0,0.0,0.0,0.0,0.0,0.0,0.0,0.0,0.0,0.0,0.0,0.0,0.0,0.0,0.0,0.0,0.0,0.0,0.0,2.5824,0.0,0.0,0.0,0.0,0.0,0.0,0.0,0.0,0.0,0.0,2.4431,2.4418,2.4454,2.4202,0.0,0.0,0.0,0.0,2.1206,2.0714,2.0334,2.0128,2.0096,1.9824,1.9638,1.9572,0.0,0.0,1.9142,1.9407,1.9605,1.9605,1.9889,2.0009,1.9704,1.978,1.99,1.9933,2.0215,2.0431,2.0463,2.0807,2.1158,3.3498,0.0,0.0,0.0,0.0,3.22,3.2321,3.2478,3.1928,3.1626,3.1368,3.057,0.0,0.0,0.0,0.0,0.0,0.0,2.9172,2.9484,2.9484,2.9806,3.0406,3.0406,3.0406,3.0406,3.033,3.033,3.0406,3.0254,2.9985,2.9638,0.0,0.0,0.0,0.0,2.9613,2.9094,2.9819,3.0254,3.033,3.0139,2.9666,2.8873,2.8241,2.7471,2.6636,2.6645,2.6346,2.5755,2.531,0.0,0.0,0.0,0.0,0.0,0.0,0.0,0.0,0.0,0.0,0.0,0.0,0.0,0.0,0.0,0.0,0.0,0.0,0.0,2.5276,2.6205,2.6671,0.0,0.0,0.0,0.0,0.0,0.0,0.0,0.0,0.0,2.455,2.4909,2.4826,0.0,0.0,2.2708,2.2214,2.1644,2.1202,2.1042,2.0935,0.0,2.0172,2.0215,2.0161,1.9671,1.9726,1.9813,1.9813,1.9911,1.9944,1.9955,2.0248,2.0442,2.0345,2.0356,2.0388,2.0442,2.07,2.0967,2.0955,2.1094,2.1201,3.4706,3.3734,3.3782,3.3561,3.3171,3.3171,3.3276,3.3415,3.267,3.2182,3.1869,3.111,3.0419,2.9729,2.9639,0.0,0.0,0.0,2.9755,2.9832,2.9871,3.0114,3.0596,3.0634,3.0634,3.0634,3.0571,3.0571,3.0634,3.066,3.0584,3.0356,0.0,0.0,2.947,3.0088,3.0165,2.9767,3.0165,3.0444,3.0533,3.0533,3.0108,2.9279,2.8721,2.8143,2.7473,2.7296,2.6952,2.6402,2.6079,2.5615,0.0,0.0,0.0,0.0,0.0,0.0,0.0,0.0,0.0,0.0,0.0,2.4921,2.4396,0.0,0.0,0.0,2.5871,2.5791,2.6035,2.6561,0.0,0.0,0.0,0.0,0.0,0.0,0.0,2.6567,2.6837,2.6752,2.6114,2.604,2.5404,2.3641,2.2995,2.249,2.1963,0.0,2.127,2.1433,2.1468,2.1396,2.1151,2.1196,2.103,2.0495,2.0585,2.0675,2.0708,2.0819,2.0919,2.0953,2.1196,2.1359,2.1167,2.1133,2.1054,2.0873,2.1031,2.1201,2.1201,2.1201,2.1201,3.5489,3.5392,3.437,3.4022,3.4109,3.4129,3.4211,3.4312,3.3596,3.2897,3.2218,3.1431,3.0949,3.0698,3.0533,0.0,3.0723,3.0736,3.0811,3.1024,3.1024,3.1024,3.1024,3.0986,3.1024,3.0986,3.0874,3.0874,3.0986,3.0874,3.0773,3.0736,3.0698,3.0622,3.0406,3.0444,3.052,3.0736,3.0558,3.0571,3.0736,3.0698,3.0538,3.0113,2.9588,2.893,2.817,2.7735,2.7469,2.7302,2.662,2.5975,2.551,0.0,0.0,0.0,0.0,0.0,0.0,0.0,0.0,0.0,0.0,0.0,0.0,0.0,0.0,0.0,2.7438,0.0,2.7504,2.6947,0.0,0.0,0.0,2.6824,2.7584,2.8103,2.8473,2.8565,0.0,0.0,2.8208,2.7307,2.593,2.3712,2.3029,2.2557,2.2029,2.1647,2.1477,2.1894,2.1951,2.2112,2.24,2.2264,2.2012,2.1669,2.1688,2.1656,2.1702,2.1931,2.2194,2.2183,2.248,2.2524,2.2032,2.1951,2.1802,2.141,2.1247,2.1201,2.1201,2.1201,2.1201,3.5489,3.5457,3.5213,3.5115,3.5133,3.5133,3.5166,3.5133,3.4375,3.3925,3.3685,3.2412,3.1505,3.0911,3.0861,3.0874,3.0911,3.0911,3.0949,3.1024,3.1024,3.1024,3.1024,3.1024,3.1024,3.1061,3.1529,3.1492,3.1048,3.1492,3.1505,3.0949,3.0911,3.0836,3.0647,3.0798,3.0874,3.0911,3.0874,3.0861,3.0949,3.0911,3.0637,3.0113,2.9588,2.9,2.833,2.7803,2.7503,2.7469,2.7276,2.7108,2.6973,2.5824,0.0,0.0,0.0,0.0,0.0,0.0,0.0,0.0,0.0,2.5673,2.5533,0.0,2.6193,0.0,2.7841,2.8051,2.755,2.7789,0.0,0.0,2.7637,2.7736,2.8944,2.8274,2.8158,2.9228,2.808,2.7002,2.6663,2.5854,2.4917,2.3781,2.3384,2.3036,2.2586,2.2401,2.2397,2.2467,2.2501,2.2479,2.2388,2.2251,2.2274,2.24,2.2446,2.2434,2.2434,2.2514,2.2582,2.2582,2.2651,2.2627,2.2524,2.2501,2.2467,2.2316,2.1742,2.1201,2.1201,2.1213,2.1213,3.5489,3.5489,3.5489,3.5489,3.5489,3.5489,3.5489,3.5424,3.4643,3.4312,3.4211,3.2741,3.1713,3.1024,3.1024,3.1024,3.1024,3.1024,3.1024,3.1024,3.1024,3.1024,3.1024,3.1024,3.1024,3.1024,3.1736,3.175,3.1048,3.1736,3.175,3.1024,3.1024,3.0949,3.0849,3.0949,3.1024,3.1024,3.1024,3.1024,3.1024,3.1024,3.083,3.0503,2.9706,2.9166,2.8826,2.7968,2.739,2.7167,2.7154,2.7019,2.6803,2.623,2.5918,0.0,0.0,0.0,0.0,0.0,0.0,0.0,0.0,0.0,0.0,0.0,2.7098,2.7324,2.8038,2.8214,2.7584,2.7822,2.8168,2.8473,2.8182,2.839,2.9477,2.8912,2.8743,2.9479,2.8544,2.767,2.7211,2.6346,2.5462,2.4735,2.4118,2.3502,2.2854,2.2715,2.2765,2.2972,2.3029,2.304,2.307,2.3081,2.3151,2.3316,2.3351,2.3362,2.3351,2.3351,2.3362,2.3351,2.3362,2.327,2.3075,2.3018,2.296,2.2696,2.227,2.1947,2.1978,2.1999,2.201,3.5489,3.5489,3.5489,3.5489,3.5489,3.5489,3.5489,3.5457,3.4758,3.438,3.4211,3.2953,3.1905,3.1161,3.1123,3.1161,3.1123,3.1024,3.1048,3.1123,3.1123,3.1086,3.1024,3.1198,3.1222,3.1198,3.1978,3.1992,3.131,3.2015,3.1942,3.1147,3.1147,3.1086,3.1024,3.1024,3.1024,3.1024,3.1024,3.1024,3.1024,3.1024,3.1024,3.0947,2.9876,2.931,2.9284,2.815,2.7289,2.6816,2.6816,2.6598,2.6208,2.6564,2.6564,0.0,2.6778,0.0,0.0,0.0,0.0,0.0,0.0,0.0,0.0,2.8409,2.8247,2.767,2.8136,2.8312,2.7802,2.7769,2.7999,2.857,2.8634,2.8903,2.9495,2.9602,2.9602,2.9602,2.954,2.9184,2.851,2.7565,2.6596,2.5778,2.4879,2.4001,2.3121,2.296,2.3098,2.3453,2.351,2.3637,2.3969,2.4143,2.4143,2.4166,2.412,2.4189,2.4131,2.4143,2.4166,2.4166,2.412,2.4005,2.3579,2.351,2.3432,2.3087,2.3017,2.2959,2.2854,2.2863,2.3069,3.5489,3.5489,3.5489,3.5489,3.5489,3.5489,3.5489,3.5504,3.5344,3.4905,3.4279,3.3979,3.3164,3.1942,3.1882,3.1869,3.1869,3.1259,3.1334,3.1919,3.1882,3.1566,3.1099,3.2245,3.2484,3.2015,3.3269,3.3512,3.2791,3.3512,3.3199,3.1905,3.1919,3.1603,3.1024,0.0,0.0,0.0,3.1024,3.1024,3.1024,3.1024,3.1024,3.0998,2.9912,0.0,2.9235,2.815,2.7469,2.7356,2.7356,0.0,0.0,0.0,0.0,0.0,0.0,0.0,0.0,0.0,0.0,0.0,2.8045,2.8111,2.8287,2.8422,2.8427,2.833,2.8441,2.8712,2.918,2.9198,2.9275,2.9355,2.9401,2.9463,2.9571,2.9602,2.9602,2.9602,2.9089,2.8666,2.846,2.7486,2.6532,2.5915,2.5272,2.4625,2.3998,2.3892,2.3925,2.4039,2.4016,2.4062,2.4177,2.4189,2.4189,2.4189,2.4189,2.4189,2.4189,2.4189,2.4189,2.4189,2.4189,2.4177,2.4051,2.4159,2.4209,2.414,2.4259,2.4061,2.3006,2.29,2.3036,3.5489,3.5489,3.5489,3.5489,0.0,3.5489,3.5489,3.5489,3.5489,3.5052,3.4312,3.4312,3.3699,3.2648,3.2648,3.2434,3.2123,3.2101,3.2101,3.2123,3.2123,3.2087,3.2114,3.2484,3.2648,3.2684,3.3754,3.3925,3.3297,3.3925,3.3547,3.2123,3.2123,3.1736,3.1011,3.1024,3.1024,3.1024,3.1024,3.1024,3.1024,3.1024,3.1024,3.0985,2.9876,0.0,0.0,0.0,0.0,0.0,0.0,0.0,0.0,2.7584,0.0,2.8091,2.8032,2.7986,2.7986,2.8149,2.8454,2.8912,2.8944,2.8944,2.8944,2.8994,2.9062,2.9125,2.9062,2.9216,2.9637,2.9634,2.9602,2.9602,2.9602,2.9602,2.9602,2.9602,2.9602,2.9571,2.9261,2.8917,2.8538,2.7966,2.717,2.6389,2.5928,2.5417,2.4743,2.4358,2.4189,2.4189,2.4189,2.4189,2.4189,2.4189,2.4189,2.4189,2.4189,2.4189,2.4189,2.4189,2.4189,2.4189,2.4189,2.4189,2.4189,2.4261,2.4381,2.449,2.4574,2.4517,2.384,2.3886,2.4048,3.5489,3.5489,3.5489,3.5489,3.5489,3.5489,3.5537,3.5537,0.0,0.0,0.0,3.4514,3.4109,3.3422,3.3422,3.3108,3.2528,3.2953,3.2932,3.2506,3.2492,3.2755,3.3178,3.2861,3.2946,3.3422,3.4143,3.4192,3.3644,3.4225,3.3837,3.2599,3.247,3.2051,3.1259,3.1185,3.1161,3.1099,3.1024,3.1024,3.1024,3.1061,3.1136,3.1086,3.0079,2.9487,2.9473,2.8625,2.7967,2.7497,2.7716,2.7881,2.7947,2.7934,2.8189,2.8748,2.9035,2.9162,2.9194,2.9446,2.9602,2.9602,2.9602,2.9602,2.9602,2.9634,2.9682,2.9777,2.9713,2.9727,2.9853,2.9699,2.9634,2.9634,2.9602,2.9602,2.9602,2.9602,2.9602,2.9602,2.9571,2.9369,2.8807,2.8565,2.8078,2.7204,2.6718,2.6205,2.5323,2.4611,2.4189,2.4189,2.4189,2.4189,2.4189,2.4189,2.4189,2.4189,2.4189,2.4189,2.4189,2.4189,2.4189,2.4189,2.4189,2.4189,2.4189,2.4273,2.4345,2.4538,2.4598,2.467,2.4849,2.5004,2.5099,3.5489,3.5489,3.5489,3.5489,3.5489,3.5489,3.5539,3.5655,3.5569,3.5424,3.5344,3.5477,3.4993,3.4129,3.4312,3.4245,3.3959,3.3457,3.3478,3.3959,3.3993,3.3699,3.3297,3.4471,3.4706,3.4245,3.4953,3.5294,3.518,3.5279,3.4872,3.4075,3.4007,3.3269,3.2051,3.1942,3.1809,3.1519,3.1198,3.1024,3.1024,3.1347,3.1519,3.1479,3.0672,3.0261,3.02,2.9112,2.849,2.8425,2.8457,2.8619,2.8894,2.8894,2.9067,2.9415,2.9509,2.954,2.954,2.9571,2.9602,2.9602,2.9602,2.9602,2.9602,2.9713,2.9777,2.9808,2.9929,3.0019,3.0036,2.9867,2.9747,2.9761,2.9651,2.9602,2.9602,2.9602,2.9602,2.9602,2.9602,2.9571,2.9401,2.9149,2.8734,2.8111,2.7417,2.6731,2.5849,2.485,2.4261,2.4189,2.4189,2.4189,2.4189,2.4189,2.4189,2.4189,2.4189,2.4189,2.4189,2.4189,2.4189,2.4189,2.4189,2.4189,2.4189,2.4502,2.4646,2.4718,2.4909,2.5111,2.5182,2.5253,2.5276,3.5489,3.5489,3.5489,3.5489,3.5489,3.5587,3.5638,3.572,3.5765,3.5765,3.578,3.5846,3.5623,3.5237,3.5317,3.5041,3.4447,3.4528,3.4447,3.4312,3.4312,3.4346,3.4471,3.4725,3.4905,3.4986,3.5311,3.5489,3.5489,3.5489,3.51,3.4312,3.3734,3.3038,3.229,3.2173,3.1932,3.1593,3.1198,3.1161,3.1593,3.1593,3.1666,3.1873,3.0918,3.0398,3.0371,2.9422,2.8876,2.8876,2.9035,2.9226,2.9352,2.9383,2.9446,2.9571,2.9602,2.9602,2.9602,2.9602,2.9602,2.9602,2.9602,2.9634,2.9727,2.9761,2.987,3.0038,3.0097,3.008,3.008,2.9929,2.9747,2.9713,2.9634,2.9602,2.9602,2.9602,2.9602,2.9602,2.9602,2.9602,2.9602,2.9446,2.9226,2.8734,2.7894,2.6994,2.6414,2.5664,2.4993,2.4718,2.4394,2.4225,2.4225,2.4189,2.4189,2.4189,2.4189,2.4189,2.4189,2.4189,2.4225,2.4189,2.4189,2.4189,2.4225,2.4345,2.4538,2.479,2.4885,2.5052,2.5253,2.5581,2.5721,3.5537,3.5554,3.5554,3.5554,3.5619,3.5735,3.5816,3.5847,3.6022,3.61,3.61,3.6068,3.6037,3.6005,3.6037,3.5623,3.5073,3.5512,3.5382,3.4728,3.4614,3.4957,3.5442,3.4876,3.4942,3.5474,3.5554,3.5554,3.5554,3.5537,3.5133,3.4442,3.3713,3.3122,3.264,3.2583,3.2331,3.185,3.1445,3.1519,3.2055,3.1909,3.1982,3.2169,3.1198,3.0651,3.063,2.9748,2.9226,2.9226,2.9477,2.9602,2.9602,2.9602,2.9602,2.9602,2.9602,2.9602,2.9602,2.9602,2.9602,2.9602,2.962,2.9713,2.9853,2.9915,3.0007,3.0221,3.0249,3.0203,3.0127,2.9991,2.9806,2.9651,2.9588,2.9602,2.9602,2.9602,2.9602,2.9602,2.9602,2.9602,2.9602,2.9602,2.9415,2.8908,2.8072,2.731,2.6918,2.6427,2.5896,2.5476,2.4921,2.4683,2.4575,2.4611,2.4647,2.4575,2.4611,2.4611,2.4539,2.4467,2.4503,2.4503,2.4539,2.4683,2.4658,2.4778,2.4993,2.5324,2.5535,2.5629,2.5884,2.6299,2.6517,3.5572,3.5671,3.5688,3.5799,3.5941,3.6085,3.6148,3.6164,3.6383,3.646,3.6429,3.6274,3.6116,3.6037,3.6116,3.6053,3.5831,3.5941,3.5894,3.5799,3.5655,3.5623,3.5655,3.5591,3.5608,3.5703,3.5703,3.5703,3.5703,3.5572,3.5294,3.4968,3.5234,3.4643,3.343,3.3659,3.3451,3.2596,3.22,3.2019,3.2128,3.2403,3.2632,3.2605,3.1832,3.1385,3.131,3.0213,2.954,2.954,2.9571,2.9602,2.9602,2.9602,2.9602,2.9602,2.9602,2.9602,2.9602,2.9602,2.9602,2.9602,2.9699,2.9867,3.005,3.0174,3.0266,3.0326,3.0447,3.0431,3.0296,3.0158,2.9974,2.9761,2.9651,2.9602,2.9602,2.9602,2.9602,2.9602,2.9602,2.9602,2.9602,2.9602,2.9352,2.878,2.8327,2.7789,2.7403,2.6952,2.6598,2.6474,2.6082,2.5756,2.5652,2.5721,2.5581,2.5616,2.5687,2.5441,2.5158,2.53,2.5616,2.5158,2.5323,2.5616,2.5791,2.6104,2.6355,2.6321,2.6663,2.7136,2.7271,2.7338,2.7317,3.575,3.572,3.5831,3.5926,3.6005,3.6148,3.6211,3.6196,3.6414,3.6492,3.6492,3.6414,3.6352,3.6289,3.6352,3.6289,3.6116,3.6116,3.6053,3.6005,3.5926,3.5863,3.5863,3.5863,3.5863,3.5894,3.5863,3.5863,3.5878,3.5814,3.575,3.5655,3.5576,3.4975,3.4002,3.4022,3.3624,3.2739,3.2753,3.2789,3.2789,3.2753,3.2824,3.2925,3.2064,3.1485,3.1373,3.0277,2.9602,2.9602,2.9602,2.9602,2.9602,2.9602,2.9602,2.9602,2.9602,2.9602,2.9602,2.9602,2.9602,2.9602,2.9744,2.9898,3.008,3.0205,3.0342,3.0447,3.0447,3.0326,3.0068,2.996,2.9837,2.9713,2.9634,2.9602,2.9602,2.9602,2.9602,2.9602,2.9602,2.9602,2.9602,2.9602,2.932,2.8748,2.8457,2.8164,2.7603,2.7289,2.7201,2.7167,2.6985,2.6552,2.6104,2.5896,2.5931,2.5931,2.5896,2.5756,2.5687,2.5687,2.5849,2.5789,2.6067,2.6308,2.642,2.6603,2.6828,2.7043,2.7237,2.7604,2.7999,2.8084,2.8228,3.6085,3.5894,3.6068,3.6132,3.6132,3.6258,3.6274,3.6305,3.646,3.6492,3.6492,3.6492,3.6492,3.6492,3.6492,3.6414,3.6305,3.6258,3.6211,3.6132,3.6085,3.6068,3.6068,3.6068,3.6053,3.6068,3.6068,3.6022,3.602,3.602,3.599,3.5928,3.5737,3.5237,3.4514,3.4375,3.3899,3.3199,3.3262,3.3276,3.3241,3.3016,3.3002,3.3178,3.2131,3.1485,3.1457,3.0291,2.9602,2.9602,2.9602,2.9602,2.9602,2.9602,2.9602,2.9602,2.9602,2.9602,2.9602,2.9602,2.9602,2.9651,2.9792,2.996,3.0113,3.0296,3.0417,3.0477,3.0357,3.0144,2.9929,2.9839,2.973,2.9634,2.9602,2.9602,2.9602,2.9602,2.9602,2.9602,2.9602,2.9602,2.9571,2.9477,2.9226,2.8716,2.849,2.8249,2.7669,2.749,2.7469,2.7503,2.7469,2.7175,2.6483,2.6414,2.6333,2.6346,2.6414,2.638,2.622,2.622,2.6311,2.6539,2.6697,2.6989,2.7391,2.7478,2.7564,2.7822,2.7999,2.8208,2.8725,2.8776,2.898,3.66,3.6242,3.6383,3.646,3.6492,3.646,3.6492,3.646,3.6492,3.6492,3.6492,3.6492,3.6492,3.6492,3.6492,3.6492,3.6492,3.6492,3.646,3.6429,3.6274,3.6211,3.6211,3.6179,3.6211,3.6211,3.6211,3.6163,3.6052,3.602,3.5784,3.5497,3.5928,3.5737,3.5008,3.4843,3.4576,3.3968,3.3507,3.3276,3.3276,3.3276,3.3241,3.3178,3.2131,3.1471,3.1331,3.0277,2.9602,2.9602,2.9602,2.9602,2.9602,2.9602,2.9602,2.9602,2.9602,2.9602,2.9602,2.9602,2.9665,2.9806,2.9929,3.0142,3.0235,3.0447,3.0477,3.0357,3.0219,3.008,3.005,2.9853,2.973,2.9634,2.9602,2.9602,2.9602,2.9602,2.9602,2.9602,2.9602,2.9602,2.9585,2.932,2.9004,2.8651,2.8341,2.8013,2.7636,2.7503,2.7503,2.7503,2.7503,2.7469,2.739,2.7175,2.7242,2.7255,2.7074,2.7175,2.7087,2.6985,2.7142,2.7343,2.761,2.7954,2.8411,2.8734,2.8912,2.9071,2.9103,2.9338,2.9261,2.9463,2.9571,3.6922,3.6399,3.6492,3.6492,3.6492,3.6492,3.6492,3.6492,3.6492,3.6492,3.6492,3.6492,3.6492,3.6492,3.6492,3.6492,3.6492,3.6492,3.6492,3.6492,3.6414,3.6383,3.6383,3.6383,3.6383,3.6383,3.6414,3.6398,3.632,3.6336,3.6258,3.6148,3.6289,3.6053,3.5447,3.5088,3.4658,3.4104,3.3563,3.3276,3.3276,3.3276,3.3276,3.322,3.2145,3.1288,3.0895,3.0052,2.9602,2.9602,2.9602,2.9602,2.9602,2.9602,2.9602,2.9602,2.9602,2.9602,2.9602,2.9602,2.9602,2.9682,2.9958,3.0111,3.0189,3.0417,3.0568,3.0447,3.0219,3.0111,3.005,2.9851,2.9665,2.9602,2.9602,2.9602,2.9602,2.9602,2.9602,2.9602,2.9602,2.9602,2.954,2.9289,2.8972,2.8651,2.8308,2.7934,2.7603,2.7503,2.7503,2.7503,2.7503,2.7503,2.7503,2.7469,2.7503,2.757,2.757,2.7556,2.7503,2.7603,2.7756,2.7973,2.8327,2.8587,2.8908,2.9162,2.9477,2.9509,2.9602,2.9602,2.9602,2.9602,2.9602,3.7043,3.6554,3.6492,3.6492,3.6492,3.6492,3.6492,3.6492,3.6492,3.6492,3.6492,3.6492,3.6492,3.6492,3.6492,3.6492,3.6492,3.6492,3.6492,3.6492,3.6492,3.6492,3.6492,3.6492,3.6492,3.6492,3.6492,3.6492,3.6492,3.6492,3.6492,3.6492,3.6492,3.632,3.5926,3.5415,3.4924,3.4341,3.3839,3.3507,3.3347,3.3276,3.3164,3.2946,3.2216,3.1485,3.082,3.0052,2.9602,2.9602,2.9602,2.9602,2.9602,2.9602,2.9602,2.9602,2.9602,2.9602,2.9602,2.9602,2.9634,2.9772,2.9958,3.0142,3.0249,3.0462,3.0538,3.0447,3.0249,3.008,2.9974,2.9758,2.9602,2.9602,2.9602,2.9602,2.9602,2.9602,2.9602,2.9602,2.9602,2.9602,2.9571,2.9289,2.8972,2.8665,2.8308,2.7947,2.7603,2.7503,2.7503,2.7503,2.7503,2.759,2.7703,2.7769,2.7782,2.7848,2.7901,2.7901,2.7967,2.8145,2.8341,2.8619,2.8876,2.9099,2.932,2.954,2.9602,2.9602,2.9602,2.9602,2.9602,2.9602,2.9602,3.7058,3.6523,3.6492,3.6492,3.6492,3.6492,3.6492,3.6492,3.6492,3.6492,3.6492,3.6492,3.6492,3.6492,3.6492,3.6492,3.6492,3.6492,3.6492,3.6492,3.6492,3.6492,3.6492,3.6492,3.6492,3.6492,3.6492,3.6492,3.6492,3.6492,3.6492,3.6492,3.6492,3.646,3.646,3.5894,3.5415,3.4876,3.4356,3.3839,3.3382,3.3312,3.3066,3.2595,3.2384,3.2075,3.1485,3.0319,2.9673,2.9617,2.9602,2.9602,2.9602,2.9602,2.9602,2.9602,2.9602,2.9602,2.9602,2.9602,2.9741,2.9958,3.008,3.0233,3.0447,3.0568,3.0538,3.0387,3.0219,3.005,2.9867,2.9713,2.9602,2.9602,2.9602,2.9602,2.9602,2.9602,2.9602,2.9602,2.9602,2.9602,2.9554,2.9271,2.8908,2.8619,2.8276,2.7914,2.757,2.7503,2.7503,2.7536,2.7603,2.7723,2.7901,2.8112,2.8125,2.8158,2.821,2.8229,2.836,2.849,2.8651,2.8908,2.9099,2.9289,2.9415,2.9602,2.9602,2.9602,2.9602,2.9602,2.9602,2.9602,2.9602,3.7415,3.6554,3.6492,3.6492,3.6492,3.6492,3.6492,3.6492,3.6492,3.6492,3.6492,3.6492,3.6492,3.6492,3.6492,3.6492,3.6492,3.6492,3.6492,3.6492,3.6492,3.6492,3.6492,3.6492,3.6492,3.6492,3.6492,3.6492,3.6492,3.6492,3.6492,3.6492,3.6492,3.6492,3.646,3.599,3.5591,3.5397,3.4543,3.4016,3.3825,3.3472,3.3213,3.3031,3.2651,3.2286,3.2089,3.0909,3.0066,2.9659,2.9602,2.9602,2.9602,2.9602,2.9602,2.9602,2.9602,2.9602,2.9602,2.9602,2.9682,2.9867,3.0036,3.0189,3.0387,3.0538,3.0538,3.0477,3.0326,3.0174,2.9991,2.9837,2.9713,2.9602,2.9602,2.9602,2.9602,2.9602,2.9602,2.9602,2.9602,2.9602,2.9509,2.9162,2.878,2.8587,2.8131,2.7669,2.757,2.7536,2.7503,2.7503,2.7703,2.7901,2.8112,2.8308,2.8471,2.8568,2.8633,2.8619,2.8716,2.8844,2.9004,2.9131,2.9289,2.9415,2.954,2.9602,2.9602,2.9602,2.9602,2.9602,2.9602,2.9602,2.9602,3.7592,3.6523,3.6492,3.6492,3.6492,3.6492,3.6492,3.6492,3.6492,3.6492,3.6492,3.6492,3.6492,3.6492,3.6492,3.6492,3.6492,3.6492,3.6492,3.6492,3.6492,3.6492,3.6492,3.6492,3.6492,3.6492,3.6492,3.6492,3.6492,3.6492,3.6492,3.6492,3.6492,3.6492,3.6476,3.6148,3.5847,3.5382,3.471,3.4221,3.3825,3.3472,3.3276,3.3234,3.2946,3.2651,3.2384,3.1578,3.0857,3.0143,2.9823,2.9682,2.9665,2.9634,2.9634,2.9651,2.962,2.9634,2.9665,2.9682,2.9744,2.9898,3.0052,3.0249,3.0387,3.0538,3.0568,3.0477,3.0387,3.019,3.0021,2.9884,2.973,2.9602,2.9602,2.9602,2.9602,2.9602,2.9602,2.9602,2.9602,2.9602,2.9477,2.9194,2.8812,2.8683,2.8164,2.7802,2.7802,2.7656,2.7623,2.7603,2.7703,2.7934,2.8243,2.849,2.878,2.894,2.9067,2.9067,2.9099,2.9194,2.932,2.9352,2.9477,2.9509,2.9602,2.9602,2.9602,2.9602,2.9602,2.9602,2.9602,2.9602,2.9602,3.7592,3.6554,3.6492,3.6492,3.6492,3.6492,3.6492,3.6492,3.6492,3.6492,3.6492,3.6492,3.6492,3.6492,3.6492,3.6492,3.6492,3.6492,3.6492,3.6492,3.6492,3.6492,3.6492,3.6492,3.6492,3.6492,3.6492,3.6492,3.6492,3.6492,3.6492,3.6492,3.6492,3.6492,3.6492,3.6492,3.6006,3.5317,3.5008,3.4491,3.3681,3.3417,3.3382,3.3382,3.3255,3.3016,3.2595,3.2334,3.1843,3.0853,3.0148,2.9822,2.9792,2.9682,2.9727,2.9792,2.9682,2.9713,2.9792,2.9822,2.9898,3.008,3.0205,3.0387,3.0538,3.0582,3.0538,3.0403,3.0357,3.019,2.9946,2.9853,2.9775,2.9634,2.9602,2.9602,2.9602,2.9602,2.9602,2.9602,2.9602,2.9602,2.9571,2.9289,2.9099,2.894,2.8471,2.821,2.8197,2.8,2.7802,2.7802,2.7835,2.8131,2.849,2.8844,2.9099,2.9226,2.9352,2.9352,2.9352,2.9446,2.9509,2.954,2.954,2.9571,2.9602,2.9602,2.9602,2.9602,2.9602,2.9602,2.9602,2.9602,2.9602,3.7576,3.6554,3.6492,3.6492,3.6492,3.6492,3.6492,3.6492,3.6492,3.6492,3.6492,3.6492,3.6492,3.6492,3.6492,3.6492,3.6492,3.6492,3.6492,3.6492,3.6492,3.6492,3.6492,3.6492,3.6523,3.6523,3.6523,3.6492,3.6492,3.6492,3.6492,3.6492,3.6492,3.6492,3.6492,3.6492,3.6398,3.6053,3.564,3.5382,3.4957,3.4221,3.3894,3.3859,3.3507,3.3241,3.3031,3.2863,3.2127,3.0871,3.0316,2.9974,2.9853,2.9898,2.9913,2.9853,2.9898,2.9898,2.9853,2.9929,3.0036,3.0111,3.0249,3.0387,3.0582,3.0612,3.0568,3.0538,3.0538,3.0401,3.0097,3.0005,2.9882,2.9665,2.9602,2.9602,2.9602,2.9602,2.9602,2.9602,2.9602,2.9602,2.954,2.9352,2.9145,2.9035,2.8651,2.821,2.8295,2.8164,2.7947,2.7967,2.8052,2.8411,2.8734,2.9131,2.9383,2.9477,2.954,2.9509,2.9509,2.954,2.9571,2.9602,2.9571,2.9602,2.9602,2.9602,2.9602,2.9602,2.9602,2.9602,2.9602,2.9602,2.9602,3.7576,3.6492,3.6492,3.6492,3.6492,3.6492,3.6492,3.6492,3.6492,3.6492,3.6492,3.6492,3.6492,3.6492,3.6492,3.6492,3.6492,3.6492,3.66,3.6801,3.7188,3.7126,3.6863,3.6724,3.6708,3.6677,3.6554,3.6492,3.6492,3.6492,3.6492,3.6492,3.6492,3.6492,3.6492,3.6492,3.646,3.632,3.6053,3.5864,3.5674,3.4894,3.4509,3.4288,3.3805,3.3431,3.3381,3.3152,3.2405,3.1282,3.0728,3.0413,3.0066,3.0052,3.0066,3.0007,3.0097,3.0066,3.0052,3.0113,3.0174,3.0219,3.0341,3.0447,3.0582,3.0612,3.0612,3.0612,3.0612,3.0431,3.0172,2.9988,2.9834,2.9634,2.9602,2.9602,2.9602,2.9602,2.9602,2.9602,2.9602,2.9602,2.9602,2.9415,2.9352,2.9226,2.894,2.8683,2.8554,2.8308,2.8145,2.8197,2.8249,2.8522,2.8812,2.9162,2.9415,2.954,2.9602,2.9602,2.9602,2.9602,2.9602,2.9602,2.9602,2.9602,2.9602,2.9602,2.9602,2.9602,2.9602,2.9602,2.9602,2.9602,2.9602,3.765,3.66,3.6569,3.6554,3.6585,3.6585,3.6662,3.6616,3.6585,3.6585,3.66,3.6569,3.66,3.6554,3.6677,3.6647,3.6647,3.6848,3.7111,3.7575,3.8118,3.8242,3.7651,3.7372,3.7201,3.7015,3.6739,3.6677,3.6693,3.6662,3.6647,3.6693,3.6662,3.66,3.6693,3.6662,3.6507,3.6492,3.6445,3.6321,3.6088,3.5516,3.5157,3.4843,3.4045,3.366,3.3616,3.3378,3.277,3.1625,3.1406,3.0989,3.0469,3.0289,3.0189,3.0266,3.0219,3.0205,3.0296,3.0296,3.0312,3.0312,3.0492,3.0612,3.0612,3.0612,3.0612,3.0612,3.0582,3.0357,3.008,2.9803,2.9665,2.9602,2.9602,2.9602,2.9602,2.9602,2.9602,2.9602,2.9602,2.9602,2.9602,2.9602,2.9571,2.9446,2.9162,2.8954,2.8812,2.8619,2.849,2.8457,2.8522,2.8554,2.8844,2.9131,2.9352,2.954,2.9571,2.9602,2.9602,2.9602,2.9602,2.9602,2.9602,2.9602,2.9602,2.9602,2.9602,2.9602,2.9602,2.9602,2.9602,2.9602,2.9602,3.7937,3.7356,3.7029,3.6877,3.6938,3.7104,3.7178,3.7148,3.6984,3.6877,3.6877,3.6877,3.6877,3.6923,3.7089,3.7224,3.7335,3.779,3.8385,3.9061,3.9418,3.9588,3.9163,3.86,3.788,3.7473,3.727,3.7178,3.7178,3.7118,3.7193,3.7178,3.7118,3.7208,3.7148,3.7118,3.7178,3.7148,3.7133,3.7103,3.6951,3.6461,3.593,3.5434,3.4471,3.4005,3.3991,3.393,3.3633,3.2938,3.2086,3.1445,3.1065,3.0706,3.0475,3.0357,3.0417,3.0417,3.0357,3.0447,3.0477,3.0357,3.0507,3.0612,3.0612,3.0612,3.0612,3.0582,3.0447,3.0251,2.996,2.9713,2.9602,2.9602,2.9602,2.9602,2.9602,2.9602,2.9602,2.9602,2.9602,2.9602,2.9602,2.9602,2.9571,2.954,2.9397,2.9176,2.9017,2.8876,2.8716,2.8587,2.8844,2.8876,2.894,2.9226,2.9415,2.954,2.9571,2.9602,2.9602,2.9602,2.9602,2.9602,2.9602,2.9602,2.9602,2.9602,2.9602,2.9602,2.9602,2.9602,2.9602,2.9602,2.9602,3.8322,3.7796,3.7373,3.718,3.721,3.7328,3.7401,3.7371,3.7254,3.7195,3.7195,3.718,3.718,3.718,3.7359,3.7545,3.8078,3.8817,3.9608,4.0226,4.0602,4.0739,4.0595,3.9865,3.9026,3.8209,3.7573,3.7417,3.7401,3.7401,3.7342,3.7401,3.7401,3.7342,3.7401,3.7401,3.7476,3.7578,3.7637,3.7711,3.774,3.7266,3.6584,3.5993,3.5352,3.5106,3.5077,3.481,3.46,3.4144,3.3141,3.2075,3.1519,3.1145,3.0855,3.0521,3.0507,3.0538,3.0507,3.0538,3.0538,3.0447,3.0538,3.0568,3.0612,3.0612,3.0612,3.0612,3.0507,3.0326,2.996,2.9727,2.9634,2.9602,2.9602,2.9602,2.9602,2.9602,2.9602,2.9602,2.9602,2.9602,2.9602,2.9602,2.9602,2.9571,2.954,2.9334,2.8922,2.878,2.8651,2.8651,2.9035,2.9194,2.9162,2.9289,2.9509,2.9571,2.9571,2.9602,2.9602,2.9602,2.9602,2.9602,2.9602,2.9602,2.9602,2.9602,2.9602,2.9602,2.9602,2.9602,2.9602,2.9602,2.9602,3.8701,3.8214,3.7695,3.746,3.7476,3.7565,3.7578,3.7565,3.7506,3.7476,3.7476,3.7476,3.7555,3.7696,3.7816,3.8213,3.9066,3.9777,4.0634,4.1306,4.1573,4.1666,4.1488,4.0908,4.0107,3.9177,3.8139,3.7671,3.7623,3.7581,3.7682,3.7594,3.7565,3.7653,3.7594,3.7565,3.7756,3.796,3.7988,3.8046,3.8221,3.777,3.7177,3.6538,3.6197,3.6088,3.5899,3.5595,3.5385,3.5452,3.4407,3.3249,3.2276,3.1656,3.1395,3.08,3.0785,3.0727,3.0611,3.0612,3.0612,3.0612,3.0612,3.0612,3.0612,3.0612,3.0612,3.0582,3.0507,3.0341,3.008,2.9803,2.9634,2.9602,2.9602,2.9602,2.9602,2.9602,2.9602,2.9602,2.9602,2.9602,2.9602,2.9602,2.9602,2.9602,2.954,2.9415,2.9004,2.8716,2.8619,2.8554,2.8876,2.9131,2.9131,2.9352,2.9571,2.9602,2.9602,2.9602,2.9602,2.9602,2.9602,2.9602,2.9602,2.9602,2.9602,2.9602,2.9602,2.9602,2.9602,2.9602,2.9602,2.9602,2.9602,3.9017,3.8963,3.8157,3.7828,3.7841,3.8119,3.8177,3.8193,3.7915,3.7828,3.7828,3.7844,3.8227,3.8608,3.9049,3.9831,4.0671,4.1153,4.1604,4.2169,4.2344,4.2327,4.2197,4.1598,4.0903,4.0065,3.8963,3.8261,3.8193,3.825,3.8119,3.8177,3.8177,3.8177,3.8164,3.8221,3.8148,3.825,3.825,3.8335,3.8307,3.8221,3.7873,3.7161,3.6829,3.6584,3.6306,3.585,3.5642,3.6103,3.5473,3.469,3.3908,3.3013,3.2234,3.1604,3.1462,3.1349,3.1027,3.0732,3.0642,3.0612,3.0657,3.0657,3.0628,3.0612,3.0612,3.0552,3.0371,3.0097,2.9898,2.9727,2.9634,2.9602,2.9602,2.9602,2.9602,2.9602,2.9602,2.9602,2.9602,2.9602,2.9602,2.9571,2.954,2.9509,2.946,2.9289,2.8972,2.878,2.8683,2.8619,2.8619,2.8876,2.9035,2.9352,2.9602,2.9602,2.9602,2.9602,2.9602,2.9602,2.9602,2.9602,2.9602,2.9602,2.9602,2.9602,2.9602,2.9602,2.9602,2.9602,2.9602,2.9602,2.9602,3.9575,3.9348,3.8701,3.8359,3.8205,3.8335,3.8391,3.8363,3.825,3.816,3.8273,3.8547,3.8901,3.9333,3.9793,4.064,4.1434,4.2002,4.231,4.2586,4.2602,4.2602,4.2522,4.1921,4.1193,4.0399,3.946,3.8715,3.8424,3.8379,3.8391,3.8363,3.8391,3.8391,3.8391,3.8379,3.8391,3.8391,3.8391,3.8391,3.8391,3.8391,3.8177,3.7902,3.7637,3.7445,3.7296,3.6799,3.6585,3.6707,3.6259,3.5794,3.5334,3.4815,3.39,3.285,3.2511,3.2392,3.2017,3.1777,3.1581,3.1508,3.1263,3.1087,3.097,3.0822,3.0657,3.0582,3.0401,3.0127,3.0005,2.9837,2.9682,2.9602,2.9602,2.9602,2.9602,2.9602,2.9602,2.9602,2.9602,2.9602,2.9602,2.9571,2.9509,2.9429,2.9366,2.9176,2.894,2.8876,2.8812,2.8683,2.8683,2.894,2.9131,2.9383,2.9602,2.9602,2.9602,2.9602,2.9602,2.9602,2.9602,2.9602,2.9602,2.9602,2.9602,2.9602,2.9602,2.9602,2.9602,2.9602,2.9602,2.9602,2.9602,4.0028,3.9542,3.9169,3.8766,3.842,3.8391,3.8391,3.8391,3.8391,3.8505,3.8699,3.9201,3.9622,4.0043,4.0626,4.129,4.1824,4.2376,4.2554,4.2586,4.2602,4.2602,4.2441,4.2051,4.1387,4.0496,4.0011,3.9233,3.8521,3.8391,3.8391,3.8391,3.8391,3.8391,3.8391,3.8391,3.8391,3.8391,3.8391,3.8391,3.8391,3.8391,3.8391,3.8391,3.8391,3.8335,3.8177,3.7594,3.7417,3.7342,3.7027,3.66,3.66,3.6722,3.5998,3.4577,3.4035,3.3725,3.3288,3.3141,3.2695,3.2256,3.2049,3.1831,3.1393,3.1087,3.0822,3.0762,3.0807,3.0688,3.0569,3.0176,2.9962,2.9775,2.9696,2.9602,2.9602,2.9602,2.9602,2.9602,2.9602,2.9602,2.9602,2.9602,2.954,2.9446,2.9366,2.9208,2.9004,2.9004,2.894,2.878,2.8812,2.9099,2.9289,2.9415,2.9571,2.9602,2.9602,2.9602,2.9602,2.9602,2.9602,2.9602,2.9602,2.9602,2.9602,2.9602,2.9602,2.9602,2.9602,2.9602,2.9602,2.9602,2.9602,4.0028,3.9584,3.9169,3.8766,3.842,3.8391,3.8408,3.842,3.842,3.878,3.9324,3.9509,4.0218,4.1177,4.1938,4.2327,4.2457,4.2599,4.2696,4.2696,4.2711,4.2728,4.2634,4.257,4.1628,4.0721,4.0367,3.959,3.8699,3.8391,3.8391,3.8391,3.8391,3.8391,3.8391,3.8391,3.8391,3.8391,3.8391,3.8391,3.8391,3.8391,3.8391,3.8391,3.8391,3.8391,3.8335,3.7873,3.7727,3.8091,3.7623,3.7312,3.7371,3.7873,3.7709,3.6859,3.5868,3.4712,3.4043,3.4014,3.3836,3.3225,3.3003,3.254,3.1994,3.1567,3.1393,3.1422,3.1622,3.162,3.1305,3.0881,3.0539,3.0146,2.9806,2.9665,2.9602,2.9602,2.9602,2.9602,2.9602,2.9602,2.9602,2.9602,2.9571,2.9477,2.9352,2.9194,2.9099,2.9131,2.9131,2.9004,2.9004,2.9257,2.9383,2.9509,2.9571,2.9602,2.9602,2.9602,2.9602,2.9602,2.9602,2.9602,2.9602,2.9602,2.9602,2.9602,2.9602,2.9602,2.9602,2.9602,2.9602,2.9602,2.9602,4.0229,3.9584,3.9418,3.898,3.842,3.8391,3.8516,3.8655,3.852,3.8938,3.9748,4.0001,4.0836,4.2049,4.2505,4.2586,4.2665,4.2881,4.2988,4.3066,4.3171,4.3202,4.3066,4.2892,4.2176,4.0899,4.0351,3.9671,3.8829,3.8408,3.8391,3.8391,3.8391,3.8391,3.8391,3.8391,3.8391,3.8391,3.8391,3.8391,3.8391,3.8391,3.8391,3.8391,3.8391,3.8391,3.8307,3.8205,3.8091,3.8363,3.8062,3.8004,3.8004,3.8221,3.8205,3.7985,3.747,3.6669,3.5865,3.5612,3.5096,3.4736,3.4463,3.3929,3.2874,3.2249,3.2035,3.202,3.2145,3.2158,3.189,3.1275,3.0867,3.045,2.9946,2.9727,2.9602,2.9602,2.9602,2.9602,2.9602,2.9602,2.9602,2.9602,2.954,2.9415,2.9383,2.9352,2.9289,2.932,2.932,2.9289,2.932,2.9446,2.9477,2.9571,2.9571,2.9602,2.9602,2.9602,2.9602,2.9602,2.9602,2.9602,2.9602,2.9602,2.9602,2.9602,2.9602,2.9602,2.9602,2.9602,2.9602,2.956,2.9476,4.0377,3.961,3.961,3.9125,3.842,3.8391,3.8644,3.8931,3.8939,3.9465,4.0445,4.114,4.2057,4.2762,4.3005,4.3066,4.3005,4.3323,4.3336,4.3502,4.3651,4.3545,4.3232,4.3012,4.2427,4.0769,4.0561,3.9849,3.9023,3.8505,3.8391,3.8391,3.8391,3.8391,3.8391,3.8391,3.8391,3.8391,3.8391,3.8391,3.8391,3.8391,3.8391,3.8391,3.8391,3.8391,3.8391,3.8363,3.8391,3.8363,3.8363,3.8307,3.8335,3.8335,3.8363,3.8278,3.8108,3.7931,3.7375,3.7044,3.6707,3.6231,3.5756,3.482,3.4073,3.3296,3.2881,3.297,3.292,3.2711,3.2238,3.1677,3.1145,3.0629,3.0054,2.9806,2.9602,2.9634,2.9634,2.9602,2.9602,2.9602,2.9602,2.9602,2.9509,2.9352,2.9352,2.9446,2.9446,2.9446,2.9446,2.9446,2.9477,2.9509,2.954,2.9571,2.9602,2.9602,2.9602,2.9602,2.9602,2.9602,2.9602,2.9602,2.9602,2.9602,2.9602,2.9602,2.9602,2.9602,2.9602,2.9602,2.9588,2.9518,2.9293,4.0385,3.961,3.961,3.9152,3.8391,3.8391,3.8628,3.9062,3.9687,4.0569,4.1733,4.2951,4.3548,4.381,4.3739,4.3768,4.3856,4.3943,4.3752,4.3663,4.3693,4.3651,4.3383,4.3177,4.2791,4.1539,4.0924,4.0164,3.9347,3.8586,3.8472,3.8391,3.8391,3.8391,3.8391,3.8391,3.8391,3.8391,3.8391,3.8391,3.8391,3.8391,3.8391,3.8391,3.8391,3.8391,3.8391,3.8391,3.8391,3.8391,3.8391,3.8391,3.8391,3.8391,3.8391,3.8391,3.8391,3.8294,3.8084,3.7931,3.7528,3.6596,3.5903,3.5598,3.5264,3.4577,3.4218,3.4099,3.3927,3.3524,3.2953,3.2293,3.1677,3.1131,3.0569,2.9966,2.9825,2.9727,2.9696,2.9634,2.9602,2.9602,2.9602,2.9602,2.9602,2.9446,2.9446,2.954,2.954,2.954,2.9571,2.9571,2.9571,2.9571,2.9571,2.9602,2.9602,2.9602,2.9602,2.9602,2.9602,2.9602,2.9602,2.9602,2.9602,2.9602,2.9602,2.9602,2.9602,2.9602,2.9588,2.9546,2.935,2.9167,2.89,4.0566,4.0045,4.0045,3.9398,3.8436,3.8655,3.8849,3.9101,3.9781,4.1034,4.2629,4.3528,4.4001,4.403,4.4001,4.4001,4.4059,4.4328,4.4243,4.4384,4.4485,4.4401,4.4145,4.3739,4.3473,4.218,4.1282,4.0388,3.9457,3.8805,3.8489,3.8391,3.8391,3.8391,3.8391,3.8391,3.8391,3.8391,3.8391,3.8391,3.8391,3.8391,3.8391,3.8391,3.8391,3.8391,3.8391,3.8391,3.8391,3.8391,3.8391,3.8391,3.8391,3.8391,3.8391,3.8391,3.8391,3.8391,3.8391,3.8391,3.8088,3.7729,3.7006,3.6557,3.6469,3.5888,3.5305,3.5031,3.4771,3.4314,3.371,3.3029,3.2419,3.1806,3.113,3.0422,3.0013,2.9886,2.9758,2.9665,2.9602,2.9602,2.9602,2.9602,2.9602,2.9571,2.9602,2.9602,2.9602,2.9602,2.9602,2.9602,2.9602,2.9602,2.9602,2.9602,2.9602,2.9602,2.9602,2.9602,2.9602,2.9602,2.9602,2.9602,2.9602,2.9602,2.9602,2.9602,2.9602,2.9602,2.9532,2.9434,2.9181,2.8844,2.838,4.0871,4.0541,4.0638,3.9952,3.8843,3.9061,3.9249,3.9565,4.0467,4.1898,4.3696,4.4226,4.4418,4.4418,4.4429,4.4474,4.4586,4.4752,4.4763,4.4862,4.5015,4.4988,4.4725,4.4418,4.3979,4.2783,4.1794,4.0864,4.0332,3.9156,3.8725,3.8588,3.8448,3.8391,3.8391,3.8391,3.8391,3.8391,3.8391,3.8391,3.8391,3.8391,3.8391,3.8391,3.8391,3.8391,3.8391,3.8391,3.8391,3.8391,3.8391,3.8391,3.8391,3.8391,3.8391,3.8391,3.8391,3.8391,3.8391,3.8391,3.8391,3.8129,3.7915,3.7623,3.7457,3.7015,3.6319,3.5942,3.5542,3.4949,3.4239,3.3366,3.2602,3.1905,3.1465,3.0822,3.0286,3.0056,2.9853,2.9696,2.9634,2.9602,2.9602,2.9602,2.9602,2.9602,2.9602,2.9602,2.9602,2.9602,2.9602,2.9602,2.9602,2.9602,2.9602,2.9602,2.9602,2.9602,2.9602,2.9602,2.9602,2.9602,2.9602,2.9602,2.9602,2.9602,2.9602,2.9602,2.9602,2.9602,2.942,2.9153,2.8788,2.838,2.772,4.134,4.1059,4.1386,4.0778,3.9671,3.961,3.9833,4.0307,4.1698,4.3354,4.5016,4.5274,4.5247,4.5247,4.514,4.514,4.5167,4.5247,4.515,4.4971,4.5194,4.4835,4.4597,4.4479,4.4484,4.3759,4.2713,4.191,4.1516,3.9979,3.9254,3.8821,3.8572,3.8391,3.8391,3.8391,3.8391,3.8391,3.8391,3.8391,3.8391,3.8391,3.8391,3.8391,3.8391,3.8391,3.8391,3.8391,3.8391,3.8391,3.8391,3.8391,3.8391,3.8391,3.8391,3.8391,3.8391,3.8391,3.8391,3.8391,3.8391,3.8391,3.8181,3.8197,3.8149,3.7744,3.7177,3.6713,3.6125,3.5176,3.4308,3.3543,3.2901,3.2145,3.1722,3.1175,3.0644,3.0163,3.0007,2.9727,2.9634,2.9602,2.9602,2.9602,2.9602,2.9602,2.9602,2.9602,2.9602,2.9602,2.9602,2.9602,2.9602,2.9602,2.9602,2.9602,2.9602,2.9602,2.9602,2.9602,2.9602,2.9602,2.9602,2.9602,2.9602,2.9602,2.9602,2.9602,2.958,2.9501,2.9071,2.8745,2.8366,2.7902,2.7256,4.1538,4.1413,4.1542,4.1346,4.0896,4.0618,4.0456,4.0639,4.224,4.4025,4.5407,4.5675,4.5537,4.5476,4.5423,4.5423,4.5414,4.5414,4.522,4.522,4.5344,4.5247,4.5015,4.4934,4.4906,4.4342,4.3436,4.2507,4.1709,4.0638,3.9713,3.9144,3.8704,3.842,3.8391,3.8391,3.8391,3.8391,3.8391,3.8391,3.8391,3.8391,3.8391,3.8391,3.8391,3.8391,3.8391,3.8391,3.8391,3.8391,3.8391,3.8391,3.8391,3.8391,3.8391,3.8391,3.8391,3.8391,3.8391,3.8391,3.8391,3.8391,3.8391,3.8391,3.8327,3.823,3.7841,3.7392,3.6853,3.5932,3.5053,3.4727,3.4022,3.2749,3.2089,3.1407,3.0837,3.0448,3.0144,2.9789,2.9602,2.9634,2.9665,2.9634,2.9634,2.9634,2.9665,2.9602,2.9602,2.9602,2.9602,2.9602,2.9602,2.9602,2.9602,2.9602,2.9602,2.9602,2.9602,2.9602,2.9602,2.9602,2.9602,2.9602,2.9602,2.9602,2.9602,2.9608,2.9509,2.9312,2.8957,2.8471,2.8033,2.7497,2.6849,4.1827,4.1845,4.1845,4.1827,4.178,4.1391,4.114,4.1408,4.2825,4.4276,4.5354,4.578,4.5786,4.5615,4.5537,4.545,4.5423,4.5414,4.5414,4.5414,4.5414,4.5344,4.5371,4.5397,4.5194,4.4793,4.4243,4.342,4.2782,4.1835,4.0729,3.9622,3.8869,3.8576,3.8476,3.8391,3.8391,3.8391,3.8391,3.8391,3.8391,3.8391,3.8391,3.8391,3.8391,3.8391,3.8391,3.8391,3.8391,3.8391,3.8391,3.8391,3.8391,3.8391,3.8391,3.8391,3.8391,3.8391,3.8391,3.8391,3.8391,3.8391,3.8391,3.8391,3.8391,3.8343,3.8149,3.7825,3.7489,3.6858,3.6066,3.5785,3.4648,3.3333,3.2588,3.1944,3.1219,3.0851,3.0583,3.019,2.9806,2.982,2.9789,2.9696,2.9665,2.9696,2.9741,2.9665,2.9602,2.9602,2.9602,2.9602,2.9602,2.9602,2.9602,2.9602,2.9602,2.9602,2.9602,2.9602,2.9602,2.9602,2.9602,2.9602,2.9602,2.9602,2.9665,2.9614,2.959,2.9354,2.891,2.8381,2.7768,2.7131,2.6497,4.2287,4.2308,4.2308,4.2287,4.2205,4.1801,4.2008,4.2705,4.3506,4.4314,4.5098,4.5835,4.5957,4.5837,4.5803,4.5649,4.5459,4.5423,4.5414,4.5414,4.5414,4.5414,4.5414,4.5414,4.5344,4.5129,4.4724,4.4268,4.4087,4.2773,4.1446,4.0447,3.9682,3.9203,3.8865,3.8703,3.8594,3.8472,3.8391,3.8391,3.8391,3.8391,3.8391,3.8391,3.8391,3.8391,3.8391,3.8391,3.8391,3.8391,3.8391,3.8391,3.8391,3.8391,3.8391,3.8391,3.8391,3.8391,3.8391,3.8391,3.8391,3.8391,3.8391,3.8391,3.8391,3.8391,3.8278,3.8116,3.7841,3.7533,3.7101,3.6055,3.499,3.4087,3.3337,3.2573,3.1798,3.1408,3.1204,3.0851,3.0372,3.019,3.0083,2.9974,2.9789,2.9727,2.9727,2.9634,2.9602,2.9602,2.9602,2.9602,2.9602,2.9602,2.9602,2.9602,2.9602,2.9602,2.9602,2.9602,2.9602,2.9602,2.9602,2.9602,2.9602,2.9665,2.9806,2.985,2.9776,2.9404,2.8843,2.8254,2.7625,2.6832,2.6239,4.2308,4.2308,4.2308,4.2308,4.2287,4.2163,4.2562,4.3251,4.3571,4.4192,4.5305,4.5517,4.5745,4.6052,4.5887,4.5743,4.5649,4.5511,4.5423,4.5423,4.545,4.5423,4.5414,4.5414,4.5414,4.5345,4.5104,4.4768,4.4139,4.3125,4.2524,4.1748,4.0862,4.0249,3.9734,3.9438,3.8999,3.8626,3.8513,3.8436,3.8408,3.8408,3.8408,3.8391,3.8391,3.8391,3.8391,3.8391,3.8391,3.8391,3.8391,3.8391,3.8391,3.8391,3.8391,3.8391,3.8391,3.8391,3.8391,3.8391,3.8391,3.8391,3.8391,3.8391,3.8391,3.8391,3.8391,3.8246,3.8149,3.789,3.7533,3.6658,3.5614,3.4777,3.3975,3.3125,3.2351,3.1769,3.1553,3.1175,3.0732,3.0583,3.0447,3.0113,2.9913,2.9806,2.9758,2.9696,2.9634,2.9634,2.9602,2.9602,2.9602,2.9602,2.9602,2.9602,2.9602,2.9602,2.9602,2.9602,2.9602,2.9602,2.9602,2.9634,2.9665,2.9867,3.0113,3.0008,2.9827,2.9244,2.8671,2.8084,2.7458,2.6804,2.6285,4.2308,4.2308,4.2308,4.2308,4.2308,4.2308,4.259,4.3036,4.3358,4.3999,4.4636,4.4955,4.5386,4.5775,4.5694,4.573,4.5963,4.5854,4.5701,4.5572,4.5563,4.5459,4.545,4.5423,4.5414,4.5414,4.5363,4.5121,4.4527,4.3829,4.3176,4.2853,4.2126,4.1466,4.0835,4.0282,3.9713,3.9229,3.8856,3.8569,3.8464,3.8436,3.8408,3.8391,3.8391,3.8391,3.8391,3.8391,3.8391,3.8391,3.8391,3.8391,3.8391,3.8391,3.8391,3.8391,3.8391,3.8391,3.8391,3.8391,3.8391,3.8391,3.8391,3.8391,3.8391,3.8391,3.8391,3.8343,3.8327,3.8213,3.7857,3.7365,3.6389,3.5435,3.4557,3.3701,3.2915,3.2159,3.1727,3.1365,3.1161,3.0999,3.0732,3.0357,3.0235,3.0463,3.0342,2.9991,2.9837,2.9696,2.9634,2.9602,2.9602,2.9602,2.9602,2.9602,2.9602,2.9602,2.9602,2.9602,2.9602,2.9634,2.9634,2.9727,2.9789,3.0052,3.0342,3.0001,2.971,2.9188,2.8729,2.8137,2.7653,2.7182,2.675,4.2308,4.2308,4.2308,4.2308,4.2308,4.2308,4.2305,4.2358,4.3054,4.3461,4.3672,4.4228,4.4809,4.5267,4.5382,4.5669,4.5919,4.5989,4.5963,4.5819,4.5837,4.5727,4.5537,4.545,4.5476,4.5423,4.5406,4.5363,4.5252,4.4716,4.4191,4.3831,4.324,4.262,4.1997,4.1294,4.0647,3.9885,3.9285,3.8856,3.8609,3.8476,3.8408,3.8391,3.8391,3.8391,3.8391,3.8391,3.8391,3.8391,3.8391,3.8391,3.8391,3.8391,3.8391,3.8391,3.8391,3.8391,3.8391,3.8391,3.8391,3.8391,3.8391,3.8391,3.8391,3.8391,3.8391,3.8391,3.8375,3.8359,3.8084,3.7825,3.7118,3.6378,3.5629,3.4738,3.3893,3.3091,3.2388,3.2007,3.1652,3.1508,3.1219,3.0822,3.0312,3.0881,3.0703,3.016,3.0052,2.9806,2.9758,2.9696,2.9789,2.9758,2.9602,2.9602,2.9602,2.9602,2.9634,2.9602,2.9602,2.9634,2.9682,2.9929,3.0174,3.0312,3.0437,3.009,2.9771,2.9528,2.9004,2.8304,2.7838,2.7508,2.7331,4.2308,4.2308,4.2308,4.2308,4.2308,4.2308,4.2308,4.2325,4.2483,4.2947,4.3444,4.3711,4.4153,4.4725,4.5101,4.5411,4.5664,4.6022,4.6116,4.6112,4.6112,4.5938,4.5752,4.5649,4.5589,4.545,4.5423,4.5502,4.5554,4.5458,4.5447,4.5455,4.4784,4.4059,4.3179,4.2448,4.1666,4.052,3.9918,3.9203,3.8676,3.8588,3.852,3.8464,3.8408,3.8391,3.8391,3.8391,3.8391,3.8391,3.8391,3.8391,3.8391,3.8391,3.8391,3.8391,3.8391,3.8391,3.8391,3.8391,3.8391,3.8391,3.8391,3.8391,3.8391,3.8391,3.8391,3.8391,3.8391,3.8391,3.8343,3.8104,3.7894,3.727,3.6633,3.5721,3.4814,3.3904,3.3079,3.2633,3.2216,3.1936,3.1682,3.1263,3.0718,3.0342,3.0052,2.9789,2.9929,2.9867,2.996,2.9929,3.0052,3.0021,2.9837,2.982,2.9898,2.9789,2.9758,2.9696,2.9634,2.9727,2.9837,3.0312,3.0613,3.0777,3.0631,3.0063,2.9774,2.9739,2.9169,2.8459,2.832,2.8082,2.7978,4.2308,4.2308,4.2308,4.2308,4.2308,4.2308,4.2308,4.2308,4.2308,4.2537,4.2912,4.3036,4.3411,4.4032,4.4454,4.5115,4.5412,4.5893,4.6159,4.6299,4.6332,4.6112,4.5963,4.5837,4.5598,4.5476,4.5423,4.5528,4.5811,4.5794,4.581,4.5988,4.5614,4.5087,4.4146,4.3449,4.2434,4.099,4.0553,3.9709,3.8864,3.8672,3.8604,3.8492,3.842,3.842,3.8391,3.8391,3.8391,3.8391,3.8391,3.8391,3.8391,3.8391,3.8391,3.8391,3.8391,3.8391,3.8391,3.8391,3.8391,3.8391,3.8391,3.8391,3.8391,3.8391,3.8391,3.8391,3.8391,3.8391,3.8391,3.8246,3.8197,3.7806,3.7109,3.6286,3.5155,3.4048,3.3345,3.28,3.2539,3.2413,3.2163,3.1979,3.1537,3.1407,3.0866,3.0403,3.0372,3.0007,3.0083,3.0235,3.0372,3.0493,3.0463,3.0403,3.0403,3.0221,2.9929,2.9882,2.9851,2.9867,3.0052,3.0598,3.1073,3.1262,3.1001,3.0485,3.0259,3.0299,2.9487,2.8541,2.855,2.8622,2.863,4.2308,4.2308,4.2308,4.2308,4.2308,4.2308,4.2308,4.2308,4.2308,4.2308,4.2379,4.2379,4.2769,4.3144,4.3551,4.4478,4.5223,4.5672,4.6062,4.6365,4.6607,4.6387,4.6161,4.5955,4.5803,4.5693,4.5632,4.5778,4.6013,4.6013,4.6013,4.5887,4.5709,4.5433,4.4847,4.3986,4.2913,4.1837,4.1017,4.0029,3.9347,3.8782,3.8644,3.856,3.8476,3.8436,3.8436,3.8448,3.8448,3.8476,3.8476,3.8476,3.8448,3.8448,3.842,3.842,3.8391,3.8391,3.8391,3.8391,3.8391,3.8391,3.8391,3.8391,3.8391,3.8391,3.8391,3.8391,3.8391,3.8391,3.8391,3.8391,3.8359,3.8213,3.7494,3.6788,3.5514,3.4338,3.3742,3.3168,3.2908,3.2812,3.2551,3.2413,3.2287,3.2259,3.1992,3.1724,3.1292,3.0598,3.0282,3.0509,3.0748,3.0866,3.0851,3.0881,3.0777,3.0403,3.0099,3.0052,3.016,3.0554,3.0852,3.1058,3.1436,3.1792,3.1631,3.1182,3.1042,3.0791,2.9821,2.8959,2.8943,2.9036,2.922,4.2308,4.2308,4.2308,4.2308,4.2308,4.2308,4.2308,4.2308,4.2308,4.2308,4.2308,4.2308,4.245,4.2611,4.3268,4.3929,4.4321,4.5071,4.5677,4.5967,4.6473,4.656,4.6471,4.6211,4.6235,4.6105,4.6005,4.6186,4.6259,4.6374,4.6542,4.6631,4.6661,4.6315,4.581,4.4811,4.3671,4.2422,4.1321,4.042,3.9456,3.8958,3.8727,3.8644,3.8576,3.8576,3.8588,3.8683,3.8694,3.8722,3.8711,3.8644,3.8588,3.8548,3.8476,3.842,3.8391,3.8391,3.8391,3.8391,3.8391,3.8391,3.8391,3.8391,3.8391,3.8391,3.8391,3.8391,3.8391,3.8391,3.8391,3.8391,3.8359,3.8165,3.7667,3.6972,3.6002,3.5116,3.4402,3.3831,3.3346,3.3011,3.2563,3.2425,3.2259,3.2076,3.158,3.1335,3.1364,3.0925,3.0554,3.0911,3.1262,3.0807,3.0628,3.1014,3.0984,3.0569,3.0448,3.0703,3.1087,3.1593,3.1849,3.1849,3.2117,3.2477,3.2204,3.1867,3.1344,3.0959,3.0069,2.9405,2.935,2.9396,2.9531]}]]